[[{"header":{"parameterUnit":"m.s-1","parameterCategory":1,"la1":30.6,"la2":28.766,"lo1":-90.7593,"lo2":-88.6598,"dy":0.0162,"dx":0.0183,"nx":116,"ny":114,"refTime":"2023-05-22T00:00:00:Z","depth":0,"parameterNumber":2,"parameterNumberName":"U-component_of_WINDS"},"data":[0.0,0.0,0.0,0.0,0.0,0.0,0.0,0.0,0.0,0.0,0.0,0.0,0.0,0.0,0.0,0.0,0.0,0.0,0.0,0.0,0.0,0.0,0.0,0.0,0.0,0.0,0.0,0.0,0.0,0.0,0.0,0.0,0.0,0.0,0.0,0.0,0.0,0.0,0.0,0.0,0.0,0.0,0.0,0.0,0.0,0.0,0.0,0.0,0.0,0.0,0.0,0.0,0.0,0.0,0.0,0.0,0.0,0.0,0.0,0.0,0.0,0.0,0.0,0.0,0.0,0.0,0.0,0.0,0.0,0.0,0.0,0.0,0.0,0.0,0.0,0.0,0.0,0.0,0.0,0.0,0.0,0.0,0.0,0.0,0.0,0.0,0.0,0.0,0.0,0.0,0.0,0.0,0.0,0.0,0.0,0.0,0.0,0.0,0.0,0.0,0.0,0.0,0.0,0.0,0.0,0.0,0.0,0.0,0.0,0.0,0.0,0.0,0.0,0.0,0.0,0.0,0.0,0.0,0.0,0.0,0.0,0.0,0.0,0.0,0.0,0.0,0.0,0.0,0.0,0.0,0.0,0.0,0.0,0.0,0.0,0.0,0.0,0.0,0.0,0.0,0.0,0.0,0.0,0.0,0.0,0.0,0.0,0.0,0.0,0.0,0.0,0.0,0.0,0.0,0.0,0.0,0.0,0.0,0.0,0.0,0.0,0.0,0.0,0.0,0.0,0.0,0.0,0.0,0.0,0.0,0.0,0.0,0.0,0.0,0.0,0.0,0.0,0.0,0.0,0.0,0.0,0.0,0.0,0.0,0.0,0.0,0.0,0.0,0.0,0.0,0.0,0.0,0.0,0.0,0.0,0.0,0.0,0.0,0.0,0.0,0.0,0.0,0.0,0.0,0.0,0.0,0.0,0.0,0.0,0.0,0.0,0.0,0.0,0.0,0.0,0.0,0.0,0.0,0.0,0.0,0.0,0.0,0.0,0.0,0.0,0.0,0.0,0.0,0.0,0.0,0.0,0.0,0.0,0.0,0.0,0.0,0.0,0.0,0.0,0.0,0.0,0.0,0.0,0.0,0.0,0.0,0.0,0.0,0.0,0.0,0.0,0.0,0.0,0.0,0.0,0.0,0.0,0.0,0.0,0.0,0.0,0.0,0.0,0.0,0.0,0.0,0.0,0.0,0.0,0.0,0.0,0.0,0.0,0.0,0.0,0.0,0.0,0.0,0.0,0.0,0.0,0.0,0.0,0.0,0.0,0.0,0.0,0.0,0.0,0.0,0.0,0.0,0.0,0.0,0.0,0.0,0.0,0.0,0.0,0.0,0.0,0.0,0.0,0.0,0.0,0.0,0.0,0.0,0.0,0.0,0.0,0.0,0.0,0.0,0.0,0.0,0.0,0.0,0.0,0.0,0.0,0.0,0.0,0.0,0.0,0.0,0.0,0.0,0.0,0.0,0.0,0.0,0.0,0.0,0.0,0.0,0.0,0.0,0.0,0.0,0.0,0.0,0.0,0.0,0.0,0.0,0.0,0.0,0.0,0.0,0.0,0.0,0.0,0.0,0.0,0.0,0.0,0.0,0.0,0.0,0.0,0.0,0.0,0.0,0.0,0.0,0.0,0.0,0.0,0.0,0.0,0.0,0.0,0.0,0.0,0.0,0.0,0.0,0.0,0.0,0.0,0.0,0.0,0.0,0.0,0.0,0.0,0.0,0.0,0.0,0.0,0.0,0.0,0.0,0.0,0.0,0.0,0.0,0.0,0.0,0.0,0.0,0.0,0.0,0.0,0.0,0.0,0.0,0.0,0.0,0.0,0.0,0.0,0.0,0.0,0.0,0.0,0.0,0.0,0.0,0.0,0.0,0.0,0.0,0.0,0.0,0.0,0.0,0.0,0.0,0.0,0.0,0.0,0.0,0.0,0.0,0.0,0.0,0.0,0.0,0.0,0.0,0.0,0.0,0.0,0.0,0.0,0.0,0.0,0.0,0.0,0.0,0.0,0.0,0.0,0.0,0.0,0.0,0.0,0.0,0.0,0.0,0.0,0.0,0.0,0.0,0.0,0.0,0.0,0.0,0.0,0.0,0.0,0.0,0.0,0.0,0.0,0.0,0.0,0.0,0.0,0.0,0.0,0.0,0.0,0.0,0.0,0.0,0.0,0.0,0.0,0.0,0.0,0.0,0.0,0.0,0.0,0.0,0.0,0.0,0.0,0.0,0.0,0.0,0.0,0.0,0.0,0.0,0.0,0.0,0.0,0.0,0.0,0.0,0.0,0.0,0.0,0.0,0.0,0.0,0.0,0.0,0.0,0.0,0.0,0.0,0.0,0.0,0.0,0.0,0.0,0.0,0.0,0.0,0.0,0.0,0.0,0.0,0.0,0.0,0.0,0.0,0.0,0.0,0.0,0.0,0.0,0.0,0.0,0.0,0.0,0.0,0.0,0.0,0.0,0.0,0.0,0.0,0.0,0.0,0.0,0.0,0.0,0.0,0.0,0.0,0.0,0.0,0.0,0.0,0.0,0.0,0.0,0.0,0.0,0.0,0.0,0.0,0.0,0.0,0.0,0.0,0.0,0.0,0.0,0.0,0.0,0.0,0.0,0.0,0.0,0.0,0.0,0.0,0.0,0.0,0.0,0.0,0.0,0.0,0.0,0.0,0.0,0.0,0.0,0.0,0.0,0.0,0.0,0.0,0.0,0.0,0.0,0.0,0.0,0.0,0.0,0.0,0.0,0.0,0.0,0.0,0.0,0.0,0.0,0.0,0.0,0.0,0.0,0.0,0.0,0.0,0.0,0.0,0.0,0.0,0.0,0.0,0.0,0.0,0.0,0.0,0.0,0.0,0.0,0.0,0.0,0.0,0.0,0.0,0.0,0.0,0.0,0.0,0.0,0.0,0.0,0.0,0.0,0.0,0.0,0.0,0.0,0.0,0.0,0.0,0.0,0.0,0.0,0.0,0.0,0.0,0.0,0.0,0.0,0.0,0.0,0.0,0.0,0.0,0.0,0.0,0.0,0.0,0.0,0.0,0.0,0.0,0.0,0.0,0.0,0.0,0.0,0.0,0.0,0.0,0.0,0.0,0.0,0.0,0.0,0.0,0.0,0.0,0.0,0.0,0.0,0.0,0.0,0.0,0.0,0.0,0.0,0.0,0.0,0.0,0.0,0.0,0.0,0.0,0.0,0.0,0.0,0.0,0.0,0.0,0.0,0.0,0.0,0.0,0.0,0.0,0.0,0.0,0.0,0.0,0.0,0.0,0.0,0.0,0.0,0.0,0.0,0.0,0.0,0.0,0.0,0.0,0.0,0.0,0.0,0.0,0.0,0.0,0.0,0.0,0.0,0.0,0.0,0.0,0.0,0.0,0.0,0.0,0.0,0.0,0.0,0.0,0.0,0.0,0.0,0.0,0.0,0.0,0.0,0.0,0.0,0.0,0.0,0.0,0.0,0.0,0.0,0.0,0.0,0.0,0.0,0.0,0.0,0.0,0.0,0.0,0.0,0.0,0.0,0.0,0.0,0.0,0.0,0.0,0.0,0.0,0.0,0.0,0.0,0.0,0.0,0.0,0.0,0.0,0.0,0.0,0.0,0.0,0.0,0.0,0.0,0.0,0.0,0.0,0.0,0.0,0.0,0.0,0.0,0.0,0.0,0.0,0.0,0.0,0.0,0.0,0.0,0.0,0.0,0.0,0.0,0.0,0.0,0.0,0.0,0.0,0.0,0.0,0.0,0.0,0.0,0.0,0.0,0.0,0.0,0.0,0.0,0.0,0.0,0.0,0.0,0.0,0.0,0.0,0.0,0.0,0.0,0.0,0.0,0.0,0.0,0.0,0.0,0.0,0.0,0.0,0.0,0.0,0.0,0.0,0.0,0.0,0.0,0.0,0.0,0.0,0.0,0.0,0.0,0.0,0.0,0.0,0.0,0.0,0.0,0.0,0.0,0.0,0.0,0.0,0.0,0.0,0.0,0.0,0.0,0.0,0.0,0.0,0.0,0.0,0.0,0.0,0.0,0.0,0.0,0.0,0.0,0.0,0.0,0.0,0.0,0.0,0.0,0.0,0.0,0.0,0.0,0.0,0.0,0.0,0.0,0.0,0.0,0.0,0.0,0.0,0.0,0.0,0.0,0.0,0.0,0.0,0.0,0.0,0.0,0.0,0.0,0.0,0.0,0.0,0.0,0.0,0.0,0.0,0.0,0.0,0.0,0.0,0.0,0.0,0.0,0.0,0.0,0.0,0.0,0.0,0.0,0.0,0.0,0.0,0.0,0.0,0.0,0.0,0.0,0.0,0.0,0.0,0.0,0.0,0.0,0.0,0.0,0.0,0.0,0.0,0.0,0.0,0.0,0.0,0.0,0.0,0.0,0.0,0.0,0.0,0.0,0.0,0.0,0.0,0.0,0.0,0.0,0.0,0.0,0.0,0.0,0.0,0.0,0.0,0.0,0.0,0.0,0.0,0.0,0.0,0.0,0.0,0.0,0.0,0.0,0.0,0.0,0.0,0.0,0.0,0.0,0.0,0.0,0.0,0.0,0.0,0.0,0.0,0.0,0.0,0.0,0.0,0.0,0.0,0.0,0.0,0.0,0.0,0.0,0.0,0.0,0.0,0.0,0.0,0.0,0.0,0.0,0.0,0.0,0.0,0.0,0.0,0.0,0.0,0.0,0.0,0.0,0.0,0.0,0.0,0.0,0.0,0.0,0.0,0.0,0.0,0.0,0.0,0.0,0.0,0.0,0.0,0.0,0.0,0.0,0.0,0.0,0.0,0.0,0.0,0.0,0.0,0.0,0.0,0.0,0.0,0.0,0.0,0.0,0.0,0.0,0.0,0.0,0.0,0.0,0.0,0.0,0.0,0.0,0.0,0.0,0.0,0.0,0.0,0.0,0.0,0.0,0.0,0.0,0.0,0.0,0.0,0.0,0.0,0.0,0.0,0.0,0.0,0.0,0.0,0.0,0.0,0.0,0.0,0.0,0.0,0.0,0.0,0.0,0.0,0.0,0.0,0.0,0.0,0.0,0.0,0.0,0.0,0.0,0.0,0.0,0.0,0.0,0.0,0.0,0.0,0.0,0.0,0.0,0.0,0.0,0.0,0.0,0.0,0.0,0.0,0.0,0.0,0.0,0.0,0.0,0.0,0.0,0.0,0.0,0.0,0.0,0.0,0.0,0.0,0.0,0.0,0.0,0.0,0.0,0.0,0.0,0.0,0.0,0.0,0.0,0.0,0.0,0.0,0.0,0.0,0.0,0.0,0.0,0.0,0.0,0.0,0.0,0.0,0.0,0.0,0.0,0.0,0.0,0.0,0.0,0.0,0.0,0.0,0.0,0.0,0.0,0.0,0.0,0.0,0.0,0.0,0.0,0.0,0.0,0.0,0.0,0.0,0.0,0.0,0.0,0.0,0.0,0.0,0.0,0.0,0.0,0.0,0.0,0.0,0.0,0.0,0.0,0.0,0.0,0.0,0.0,0.0,0.0,0.0,0.0,0.0,0.0,0.0,0.0,0.0,0.0,0.0,0.0,0.0,0.0,0.0,0.0,0.0,0.0,0.0,0.0,0.0,0.0,0.0,0.0,0.0,0.0,0.0,0.0,0.0,0.0,0.0,0.0,0.0,0.0,0.0,0.0,0.0,0.0,0.0,0.0,0.0,0.0,0.0,0.0,0.0,0.0,0.0,0.0,0.0,0.0,0.0,0.0,0.0,0.0,0.0,0.0,0.0,0.0,0.0,0.0,0.0,0.0,0.0,0.0,0.0,0.0,0.0,0.0,0.0,0.0,0.0,0.0,0.0,0.0,0.0,0.0,0.0,0.0,0.0,0.0,0.0,0.0,0.0,0.0,0.0,0.0,0.0,0.0,0.0,0.0,0.0,0.0,0.0,0.0,0.0,0.0,0.0,0.0,0.0,0.0,0.0,0.0,0.0,0.0,0.0,0.0,0.0,0.0,0.0,0.0,0.0,0.0,0.0,0.0,0.0,0.0,0.0,0.0,0.0,0.0,0.0,0.0,0.0,0.0,0.0,0.0,0.0,0.0,0.0,0.0,0.0,0.0,0.0,0.0,0.0,0.0,0.0,0.0,0.0,0.0,0.0,3.6883,3.7165,0.0,0.0,0.0,0.0,0.0,0.0,0.0,0.0,0.0,0.0,0.0,0.0,0.0,0.0,0.0,0.0,0.0,0.0,0.0,0.0,0.0,0.0,0.0,0.0,0.0,0.0,0.0,0.0,0.0,0.0,0.0,0.0,0.0,0.0,0.0,0.0,0.0,0.0,3.4381,3.4181,3.3794,3.4551,3.5142,3.5577,0.0,0.0,0.0,0.0,0.0,0.0,0.0,0.0,0.0,0.0,0.0,0.0,0.0,0.0,0.0,0.0,0.0,0.0,0.0,0.0,0.0,0.0,0.0,0.0,0.0,0.0,0.0,0.0,0.0,0.0,0.0,0.0,0.0,0.0,0.0,0.0,0.0,0.0,0.0,0.0,0.0,0.0,0.0,0.0,0.0,0.0,0.0,0.0,0.0,0.0,0.0,0.0,0.0,0.0,0.0,0.0,0.0,0.0,0.0,0.0,0.0,0.0,0.0,0.0,0.0,0.0,0.0,0.0,0.0,0.0,3.5864,3.6322,0.0,0.0,0.0,0.0,0.0,0.0,0.0,0.0,0.0,0.0,0.0,0.0,0.0,0.0,0.0,0.0,0.0,0.0,0.0,0.0,0.0,0.0,0.0,0.0,3.3003,3.3003,3.3126,3.3196,0.0,0.0,0.0,0.0,0.0,0.0,0.0,3.3196,3.3196,3.3196,3.3064,3.3003,3.302,3.3633,3.3984,3.4152,3.511,0.0,0.0,0.0,0.0,0.0,0.0,0.0,0.0,0.0,0.0,0.0,0.0,0.0,0.0,0.0,0.0,0.0,0.0,0.0,0.0,0.0,0.0,0.0,0.0,0.0,0.0,0.0,0.0,0.0,0.0,0.0,0.0,0.0,0.0,0.0,0.0,0.0,0.0,0.0,0.0,0.0,0.0,0.0,0.0,0.0,0.0,0.0,0.0,0.0,0.0,0.0,0.0,0.0,0.0,0.0,0.0,0.0,0.0,0.0,0.0,0.0,0.0,0.0,3.3428,3.3428,3.3428,3.3428,3.3428,3.3481,3.4597,3.5235,3.5528,3.5528,0.0,0.0,0.0,0.0,0.0,0.0,0.0,0.0,0.0,0.0,0.0,0.0,0.0,0.0,0.0,0.0,0.0,0.0,0.0,0.0,0.0,3.1864,3.2245,3.2245,3.2826,3.3196,0.0,0.0,0.0,0.0,0.0,0.0,0.0,3.3196,3.3196,3.3196,3.2559,3.2245,3.2245,3.2344,3.2737,3.3405,3.4975,3.568,3.5712,0.0,0.0,0.0,0.0,0.0,0.0,0.0,0.0,0.0,0.0,0.0,0.0,0.0,0.0,0.0,0.0,0.0,0.0,0.0,0.0,0.0,0.0,0.0,0.0,0.0,0.0,0.0,0.0,0.0,0.0,0.0,0.0,0.0,0.0,0.0,0.0,0.0,0.0,0.0,0.0,0.0,3.5111,3.5002,0.0,0.0,0.0,0.0,0.0,0.0,0.0,0.0,0.0,0.0,0.0,0.0,0.0,3.2237,3.2304,3.2304,3.2304,3.2304,3.2304,3.2304,3.2304,3.2304,3.2304,3.2314,3.2495,0.0,3.483,3.483,0.0,0.0,0.0,0.0,0.0,0.0,0.0,0.0,0.0,0.0,0.0,0.0,0.0,0.0,0.0,0.0,0.0,0.0,0.0,0.0,0.0,3.1287,3.1487,3.1487,3.1777,3.1955,3.1955,3.1955,0.0,0.0,0.0,3.1955,3.1955,3.1955,3.1955,3.1955,3.163,3.1487,3.1483,3.1905,3.2263,3.2648,3.4213,3.5213,3.5712,3.5799,0.0,0.0,0.0,0.0,0.0,0.0,0.0,0.0,0.0,0.0,0.0,0.0,0.0,0.0,0.0,0.0,0.0,0.0,0.0,0.0,0.0,0.0,0.0,0.0,0.0,0.0,0.0,0.0,0.0,0.0,0.0,0.0,0.0,0.0,0.0,0.0,0.0,0.0,0.0,3.5117,3.4587,3.4288,3.3921,3.3474,0.0,0.0,0.0,0.0,0.0,0.0,0.0,0.0,0.0,3.0523,3.0526,3.0674,3.0962,3.0984,3.0984,3.0984,3.0984,3.0984,3.0984,3.0984,3.0984,3.0984,3.0984,3.1617,3.2711,3.3076,3.3257,3.3284,0.0,0.0,0.0,0.0,3.2832,3.2882,0.0,0.0,0.0,0.0,0.0,0.0,0.0,0.0,0.0,0.0,0.0,0.0,3.1005,3.1005,3.1005,3.1005,3.1005,3.1005,3.1005,3.1005,0.0,0.0,0.0,3.1005,3.1005,3.1005,3.1005,3.1005,3.1005,3.1005,3.1015,3.1557,3.1915,3.2155,3.3443,3.4505,3.5366,3.5559,3.5766,3.5926,0.0,0.0,0.0,0.0,0.0,0.0,0.0,0.0,0.0,0.0,0.0,0.0,0.0,0.0,0.0,0.0,0.0,0.0,0.0,0.0,0.0,0.0,0.0,0.0,0.0,0.0,0.0,0.0,0.0,0.0,0.0,0.0,0.0,0.0,0.0,0.0,0.0,3.4656,3.3984,3.3274,3.2741,3.2215,0.0,0.0,0.0,0.0,0.0,0.0,2.9219,2.9165,2.9144,2.9098,2.91,2.928,2.9687,2.9699,2.9699,2.9699,2.9699,2.9699,2.9699,2.9699,2.9699,2.9699,2.9699,2.9974,3.0506,3.1448,3.1856,3.1877,3.1877,3.1777,3.1645,3.1617,3.1608,3.1677,0.0,0.0,0.0,0.0,0.0,0.0,0.0,0.0,0.0,0.0,0.0,3.1005,3.1005,3.1005,3.1005,3.1005,3.1005,3.1005,3.1005,3.1005,3.1005,3.1005,3.1005,3.1005,3.1005,3.1005,3.1005,3.1005,3.1005,3.1005,3.1005,3.1043,3.1431,3.2128,3.2906,3.3673,3.4422,3.519,3.5588,3.572,3.5728,0.0,0.0,0.0,0.0,0.0,0.0,0.0,0.0,0.0,0.0,0.0,0.0,0.0,0.0,0.0,0.0,0.0,0.0,0.0,0.0,0.0,0.0,0.0,0.0,0.0,0.0,0.0,0.0,0.0,0.0,0.0,0.0,0.0,0.0,0.0,0.0,0.0,0.0,3.1382,3.1217,0.0,0.0,0.0,0.0,2.9532,2.8961,2.8614,2.855,2.855,2.8542,2.8536,2.8536,2.8548,2.8585,2.8585,2.8585,2.8585,2.8585,2.8585,2.8585,2.8585,2.8585,2.8585,2.8585,2.8592,2.8767,3.0451,3.1188,3.125,3.125,3.09,3.0385,3.0325,3.0306,3.029,0.0,0.0,0.0,0.0,0.0,0.0,0.0,0.0,3.1005,3.1005,3.1005,3.1005,3.1005,3.1005,3.1005,3.1005,3.1005,3.1005,3.1005,3.1005,3.1005,3.1005,3.1005,3.1005,3.1005,3.1005,3.1005,3.1005,3.1005,3.1005,3.1005,3.1005,3.1142,3.1422,3.216,3.2906,3.3673,3.4968,3.5522,3.558,3.5671,3.5736,0.0,0.0,0.0,0.0,0.0,0.0,0.0,0.0,0.0,0.0,0.0,0.0,0.0,0.0,0.0,0.0,0.0,0.0,0.0,0.0,0.0,0.0,0.0,0.0,0.0,0.0,0.0,0.0,0.0,0.0,0.0,0.0,0.0,0.0,0.0,0.0,0.0,3.0675,3.02,0.0,2.9154,2.9125,2.8821,2.8045,2.7783,2.7409,2.6782,2.6752,2.6752,2.6752,2.6752,2.6752,2.6752,2.6752,2.6752,2.6752,2.6752,2.6752,2.6783,2.7389,2.7664,2.7694,2.8259,2.85,2.8544,2.9167,2.9446,2.946,2.946,2.9327,2.9143,2.9112,2.9105,2.9148,0.0,0.0,0.0,0.0,0.0,0.0,0.0,0.0,3.012,3.012,3.0381,3.0564,3.0564,3.0823,3.0879,3.0583,3.0564,3.0564,3.0564,3.0564,3.07,3.0986,3.1005,3.1005,3.1005,3.1005,3.1005,3.1005,3.1005,3.1005,3.1005,3.1005,3.1005,3.102,3.1773,3.2506,3.3288,3.4549,3.5272,3.5572,3.5662,3.5736,3.5823,0.0,0.0,0.0,0.0,0.0,0.0,0.0,0.0,0.0,0.0,0.0,0.0,0.0,0.0,0.0,0.0,0.0,0.0,0.0,0.0,0.0,0.0,0.0,0.0,0.0,0.0,0.0,0.0,0.0,0.0,0.0,0.0,0.0,0.0,3.1102,3.0551,2.9788,2.9298,2.8885,2.8536,2.8229,2.7886,2.7435,2.7127,2.6746,2.6268,2.6236,2.6236,2.6236,2.6236,2.6236,2.6236,2.6236,2.6236,2.6236,2.6236,2.6236,2.6268,2.6883,2.7178,2.7198,2.7782,2.802,2.802,2.802,2.802,2.8059,2.838,2.85,2.85,2.85,2.85,2.8509,0.0,0.0,0.0,0.0,0.0,0.0,0.0,2.8959,2.8406,2.8406,2.9147,2.9665,2.9665,3.0409,3.0583,2.9733,2.9665,2.9665,2.9665,2.9665,3.0043,3.0879,3.0936,3.0968,3.0968,3.0986,3.1005,3.1005,3.1005,3.1005,3.1005,3.1005,3.1005,3.1033,3.1745,3.2488,3.3253,3.3965,3.482,3.5696,3.5696,3.5815,3.6005,0.0,0.0,0.0,0.0,0.0,0.0,0.0,0.0,0.0,0.0,0.0,0.0,0.0,0.0,0.0,0.0,0.0,0.0,0.0,0.0,0.0,0.0,0.0,0.0,0.0,0.0,0.0,0.0,0.0,0.0,0.0,0.0,0.0,3.0167,3.0241,2.9816,2.864,2.8512,2.8524,2.8524,2.775,2.7395,2.776,2.6969,2.6639,2.6996,2.7018,2.7018,2.7018,2.7018,2.7018,2.7018,2.7018,2.7018,2.7018,2.7018,2.7018,2.7018,2.7051,2.7062,2.7062,2.7084,2.7095,2.7095,2.7095,2.7095,2.7195,2.8105,2.8469,2.8469,2.8469,2.8447,2.8313,0.0,0.0,0.0,0.0,0.0,0.0,0.0,2.8959,2.8406,2.8406,2.8614,2.8752,2.8752,2.8969,2.9018,2.8782,2.8752,2.8752,2.8752,2.8752,2.8861,2.9108,2.9723,3.0053,3.0053,3.0681,3.1005,3.1005,3.1005,3.1005,3.1005,3.1005,3.1005,3.1015,3.1203,3.2001,3.3204,3.3422,3.4299,3.5539,3.5539,3.5645,3.5799,0.0,0.0,0.0,0.0,0.0,0.0,0.0,0.0,0.0,0.0,0.0,0.0,0.0,0.0,0.0,0.0,0.0,0.0,0.0,0.0,0.0,0.0,0.0,0.0,0.0,0.0,0.0,0.0,0.0,0.0,0.0,2.903,2.8805,2.897,2.8995,2.8876,2.8532,2.8837,2.9088,2.9088,2.8561,2.8001,2.7489,2.6536,2.5743,2.5175,2.514,2.514,2.514,2.514,2.514,2.514,2.514,2.514,2.514,2.514,2.514,2.5174,2.5855,2.6159,2.6193,2.683,2.7095,2.7095,2.7095,2.7095,2.7129,2.7379,2.7472,2.7472,2.7472,2.7302,2.6977,0.0,0.0,0.0,0.0,0.0,0.0,0.0,2.8129,2.7355,2.7355,2.7668,2.7899,2.7899,2.8197,2.8257,2.7929,2.7899,2.7899,2.7899,2.8207,2.8406,2.8406,2.8893,2.9323,2.9694,3.02,3.0631,3.1005,3.1005,3.1005,3.1005,3.1005,3.1005,3.1005,3.1005,3.1823,3.3196,3.3196,3.4087,3.5496,3.5496,3.558,3.5712,3.5799,3.5894,3.5973,3.5744,3.5367,3.4968,3.4846,0.0,0.0,0.0,0.0,0.0,0.0,0.0,0.0,0.0,0.0,0.0,0.0,0.0,0.0,0.0,0.0,0.0,0.0,0.0,0.0,0.0,0.0,0.0,0.0,2.893,2.8847,2.8847,2.8847,2.8847,2.8847,2.9112,2.9304,2.9304,2.8524,2.7724,2.702,2.6233,2.5471,2.4736,2.4851,2.4947,2.4947,2.4947,2.4947,2.4947,2.4947,2.4947,2.4947,2.4947,2.4947,2.4959,2.5503,2.576,2.5795,2.6285,2.6505,2.6505,2.6505,2.6505,2.6544,0.0,0.0,0.0,0.0,2.6943,2.6661,0.0,0.0,0.0,0.0,0.0,0.0,0.0,2.6877,2.5906,2.6031,2.6632,2.7093,2.7195,2.776,2.7829,2.7124,2.7052,2.7052,2.7052,2.7718,2.8118,2.8118,2.8207,2.8624,2.9403,2.9607,3.0082,3.0851,3.0949,3.1005,3.1005,3.1005,3.1005,3.1005,3.1005,3.1823,3.3196,3.3196,3.4087,3.5496,3.5496,3.558,3.572,3.5894,3.5981,3.5902,3.5162,3.4919,3.4846,3.4103,0.0,0.0,0.0,0.0,0.0,0.0,0.0,0.0,0.0,0.0,0.0,0.0,0.0,0.0,0.0,0.0,0.0,0.0,0.0,0.0,0.0,0.0,0.0,0.0,2.8943,2.9232,2.9292,2.9304,2.9304,2.9304,2.9304,2.9304,2.9304,2.8122,2.7146,2.6638,2.6137,2.5644,2.5132,2.5476,0.0,0.0,0.0,2.5706,2.5706,2.5706,2.5706,2.5706,2.5706,2.5706,2.5706,2.5706,2.5706,2.5706,2.5706,2.5706,2.5706,2.5706,2.5706,2.5775,2.6619,2.6935,2.6946,2.6882,2.6871,2.676,0.0,0.0,0.0,0.0,0.0,0.0,0.0,2.6279,2.5979,2.6848,2.6477,2.6426,2.7124,2.6714,2.6322,2.6177,2.6157,2.6157,2.6157,2.6302,2.6384,2.6384,2.7062,2.7509,2.7681,2.901,2.9781,2.9957,3.0659,3.1005,3.1005,3.1005,3.1005,3.1005,3.1005,3.1823,3.3196,3.3196,3.4087,3.5496,3.5496,3.558,3.5704,3.5736,3.5863,3.5902,3.5162,3.4528,3.3945,3.3197,3.2587,3.2155,3.2304,3.2273,0.0,0.0,0.0,0.0,0.0,0.0,0.0,0.0,0.0,0.0,0.0,0.0,0.0,0.0,0.0,0.0,0.0,0.0,0.0,2.9096,2.8871,2.8811,2.9232,2.9304,2.9304,2.9304,2.9304,2.9304,2.9304,2.8714,2.8007,2.7195,2.6612,2.5936,2.5141,2.5476,2.5706,2.5706,2.5706,2.5706,2.5706,2.5706,2.5706,2.5706,2.5706,0.0,2.5706,2.5706,2.5706,2.5706,2.5706,2.5706,2.5706,2.5706,2.5706,2.5723,2.591,2.5972,2.5934,2.5613,2.5485,2.5411,0.0,0.0,0.0,0.0,0.0,0.0,0.0,2.6351,2.5937,2.6477,2.6549,2.6549,2.6549,2.6549,2.6363,2.5937,2.5895,2.5895,2.5895,2.5895,2.5895,2.5895,2.6735,2.7387,2.779,2.905,2.9919,3.0352,3.0795,3.1005,3.1005,3.1005,3.1005,3.1005,3.1005,3.1823,3.3196,3.3196,3.4087,3.5496,3.5496,3.5538,3.5589,3.5589,3.542,3.5073,3.4428,3.3791,3.3159,3.2521,3.2123,3.1918,3.2018,3.2055,3.2073,0.0,0.0,0.0,0.0,0.0,0.0,0.0,0.0,0.0,0.0,0.0,0.0,0.0,0.0,2.9037,2.9296,0.0,2.8681,2.9208,2.9076,2.8981,2.9256,2.9304,2.9304,2.9304,2.9304,2.9304,2.9304,2.8634,2.7839,2.6976,2.6589,2.6027,2.5151,2.5476,2.5706,2.5706,2.5706,2.5706,2.5706,2.5706,2.5706,2.5706,2.5706,2.5706,2.5706,2.5706,2.5706,2.5706,2.5706,2.5706,2.5706,2.5706,2.5706,2.5706,2.5706,2.5706,2.5676,2.5476,2.54,2.5371,0.0,0.0,0.0,0.0,0.0,0.0,0.0,2.6823,2.642,2.653,2.7015,2.7176,2.6684,2.697,2.6919,2.6208,2.6302,2.6322,2.6167,2.6302,2.6384,2.6384,2.7061,2.774,2.8386,2.9255,3.0043,3.0757,3.0917,3.1005,3.1005,3.1005,3.108,3.1203,3.1203,3.2028,3.3405,3.3405,3.4229,3.5496,3.5496,3.5496,3.548,3.5335,3.4864,3.4211,3.3483,3.2946,3.2507,3.1922,3.1849,3.2023,3.2059,3.2109,3.2155,3.2191,3.2105,0.0,0.0,0.0,0.0,0.0,0.0,0.0,0.0,2.9236,2.9123,2.872,2.8573,2.8657,2.9208,2.8861,2.8705,2.9352,2.9374,2.9364,2.9591,2.952,2.9459,2.9459,2.9364,2.934,2.9459,2.8553,2.7581,2.6725,2.6504,2.6027,2.5151,2.5476,2.5706,2.5706,2.5706,2.5706,2.5706,2.5893,2.5989,2.5992,2.6197,2.6272,2.6272,2.6272,2.6272,2.6269,2.6076,2.5989,2.5977,2.5781,2.5706,2.5706,2.5706,2.5706,2.5706,2.5706,2.5706,2.5706,0.0,0.0,0.0,0.0,0.0,0.0,0.0,0.0,2.829,2.877,2.8296,2.8262,2.9177,2.8031,2.7165,2.7062,2.772,2.7819,2.7103,2.7718,2.8118,2.8118,2.8207,2.8307,2.8406,2.9255,2.9752,2.9851,3.0621,3.1005,3.1005,3.1005,3.1352,3.1978,3.1978,3.2794,3.4186,3.4186,3.4691,3.5496,3.5496,3.5496,3.5416,3.4716,3.4371,3.4112,3.2741,3.2223,3.206,3.1334,3.1239,3.143,3.1605,3.1789,3.1972,3.2155,3.1776,3.1298,3.121,3.0425,2.9593,2.9525,2.9099,2.8677,0.0,2.861,2.8723,2.9132,2.8835,2.8657,2.9208,2.8861,2.8835,2.9843,2.9605,2.9629,3.0588,3.0311,3.0012,3.0012,2.9591,2.9495,2.9964,2.9099,2.8143,2.7283,2.6717,2.6027,2.5151,2.5476,2.5706,2.5706,2.5706,2.5706,2.5706,2.6588,2.7023,2.7045,2.7934,2.8367,2.8367,2.8367,2.8367,2.8308,2.7426,2.7023,2.6962,2.6064,2.5706,2.5706,2.5706,2.5706,2.5706,2.5706,2.5706,2.5706,0.0,0.0,0.0,0.0,0.0,0.0,0.0,0.0,0.0,2.9737,2.9894,2.9983,2.999,2.9047,2.8282,2.7923,2.8207,2.8257,2.7919,2.8207,2.8406,2.8406,2.8893,2.9157,2.9157,3.0015,3.046,3.046,3.0823,3.1005,3.1015,3.1441,3.18,3.211,3.255,3.3321,3.4304,3.4304,3.4766,3.5496,3.5496,3.5496,3.5367,3.4138,3.3665,3.3544,3.2614,3.2005,0.0,3.1555,3.1573,3.1675,3.189,3.1748,3.1519,3.1588,3.1168,3.0601,3.0254,2.9535,2.8885,2.8885,2.8929,2.8967,2.8967,2.9208,2.9484,2.9723,2.9591,2.9603,3.0132,2.9785,2.9677,3.0433,3.012,2.9928,3.0361,3.024,3.0227,3.0528,3.0371,2.9969,2.9289,2.9137,2.8663,2.772,2.7702,2.7577,2.7204,2.7356,2.7449,2.7449,2.7449,2.7449,2.7449,2.7852,2.8075,2.8086,2.8506,2.8704,2.8704,2.8704,2.8704,2.8646,2.764,2.7201,2.7118,2.6113,2.604,2.6576,2.6576,2.6576,2.6492,2.5917,2.5706,2.5706,0.0,0.0,0.0,0.0,0.0,0.0,0.0,0.0,0.0,0.0,3.1255,3.1358,3.0611,3.0358,2.9964,2.9287,2.9307,2.9241,2.9023,2.9074,2.9128,2.9128,2.9723,3.0063,3.0063,3.0681,3.1005,3.1005,3.1194,3.1306,3.1324,3.206,3.2515,3.2732,3.3274,3.3914,3.4627,3.4627,3.4978,3.5496,3.5496,3.5496,3.5326,3.3796,3.3196,3.3104,3.2295,3.1675,3.1254,3.1545,3.1725,3.1808,3.1798,3.1519,3.1177,3.0996,3.0516,2.9919,2.9321,2.8823,2.8507,2.8518,2.8924,2.9297,2.9318,2.9726,3.0132,3.0289,3.0204,3.0252,3.0804,3.0468,3.0287,3.0804,3.0576,3.0361,3.0528,3.054,3.0684,3.1069,3.1117,3.0581,2.9179,2.939,2.9195,2.8201,2.8484,2.8588,2.8297,2.8553,2.8704,2.8704,2.8704,2.8704,2.8704,2.8981,2.9108,2.912,2.9384,2.9532,2.9532,2.9532,2.9532,2.9475,2.846,2.8028,2.7957,2.6936,2.696,2.7616,2.7616,2.7616,2.7533,2.6803,2.6344,2.6149,0.0,0.0,0.0,0.0,0.0,0.0,0.0,0.0,0.0,0.0,0.0,0.0,0.0,3.2109,3.2246,3.139,3.1549,3.1374,3.0585,3.0778,3.0917,3.0917,3.0949,3.0968,3.0968,3.0986,3.1005,3.1005,3.1722,3.2069,3.2074,3.2817,3.3552,3.4222,3.4262,3.4716,3.5464,3.5464,3.548,3.5496,3.5496,3.5496,3.5326,3.3796,3.3196,3.3017,3.1561,3.1033,3.1015,3.1024,3.1289,3.1516,3.0924,3.0951,3.108,3.0497,2.9899,2.9302,2.8687,2.851,2.8521,2.8583,2.8952,2.9323,2.9383,2.9756,3.0251,3.0768,3.0468,3.0252,3.0804,3.0468,3.0287,3.0804,3.0899,3.1057,3.1574,3.1646,3.1658,3.167,3.167,3.127,3.0248,3.0169,2.9761,2.8751,2.8693,2.8262,2.7298,2.818,2.8704,2.8704,2.8704,2.8704,2.8704,2.967,3.0159,3.017,3.1149,3.1617,3.1617,3.1617,3.1617,3.155,3.0554,3.0113,3.0022,2.9016,2.8634,2.8657,2.8657,2.8657,2.8657,2.8622,2.7993,2.7296,0.0,0.0,0.0,0.0,0.0,0.0,0.0,0.0,0.0,0.0,0.0,0.0,0.0,0.0,0.0,0.0,3.2345,3.228,3.2013,3.1698,3.1529,3.1529,3.1196,3.1005,3.1005,3.1005,3.1231,3.1727,3.1978,3.2344,3.2844,3.3573,3.4067,3.4321,3.4864,3.5254,3.5496,3.5496,3.5496,3.5496,3.5496,3.5496,3.5326,3.3796,3.3196,3.3017,0.0,3.1005,3.1024,3.1142,3.1382,3.1457,3.0678,3.033,2.9951,2.8636,2.8325,2.8362,2.8156,2.8107,2.818,2.8513,2.8754,2.9068,2.9722,3.0262,3.0787,3.1316,3.1575,3.1648,3.1465,3.1564,3.1636,3.1465,3.1429,3.1489,3.167,3.1694,3.1694,3.1694,3.1694,3.1572,3.1227,3.1193,3.0779,2.9772,3.0317,3.0543,3.0204,3.0509,3.0689,3.0689,3.0689,3.0689,3.0689,3.1037,3.1193,3.1204,3.1539,3.1694,3.1694,3.1694,3.1694,3.1639,3.0633,3.0204,3.0125,2.9108,2.9085,2.9704,2.9704,2.9704,2.9784,3.0441,3.0045,2.9143,0.0,0.0,0.0,0.0,0.0,0.0,0.0,0.0,0.0,0.0,0.0,0.0,0.0,0.0,0.0,0.0,0.0,3.3022,3.3022,3.2453,3.213,3.213,3.1864,3.1717,3.1717,3.176,3.2019,3.2488,3.275,3.3129,3.3613,3.4369,3.4733,3.475,3.5271,3.5496,3.5496,3.5496,3.5496,3.5496,3.5496,3.5496,3.5326,3.3796,3.3196,0.0,3.1524,3.1052,3.1123,3.1263,3.1434,3.1438,3.0495,2.9774,2.9025,2.7815,2.7907,2.8334,2.7988,2.8165,2.851,2.8802,2.9057,2.9446,3.0217,3.0797,3.1284,3.1628,3.2129,3.2345,3.1802,3.214,3.2322,3.179,3.1694,3.1694,3.1694,3.1694,3.1694,3.1694,3.1694,3.1694,3.1694,3.1694,3.1271,3.0283,3.1137,3.1538,3.1182,3.1494,3.1694,3.1694,3.1694,3.1694,3.1694,3.1694,3.1694,3.1694,3.1694,3.1694,3.1694,3.1694,3.1694,3.1661,3.1026,3.0734,3.07,3.0045,3.0159,3.0734,3.0734,3.0734,3.079,3.125,3.1015,3.0385,0.0,0.0,0.0,0.0,0.0,0.0,0.0,0.0,0.0,0.0,0.0,0.0,0.0,0.0,0.0,0.0,0.0,0.0,3.365,3.3074,3.2767,3.2807,3.2959,3.3073,3.3106,3.3201,3.3269,3.3313,3.3979,3.4321,3.4371,3.5141,3.5496,3.5496,3.5496,3.5496,3.5496,3.5496,3.5496,3.5496,3.5496,3.5496,3.5326,3.3796,3.3196,3.3017,3.1524,3.1123,3.13,3.1291,3.1351,3.1258,3.0228,2.9206,2.8301,2.7977,2.8502,2.9017,2.82,2.8653,2.9376,2.9431,2.9813,3.0282,3.0785,3.1282,3.1673,3.173,3.2176,3.2382,3.1838,3.2177,3.2357,3.179,3.1694,3.1694,3.1694,3.1694,3.1694,3.1694,3.1694,3.1694,3.1694,3.1694,3.1293,3.0351,3.116,3.1271,3.0328,3.1182,3.1694,3.1694,3.1694,3.1694,3.1694,3.1694,3.1694,3.1694,3.1694,3.1694,3.1694,3.1694,3.1694,3.1694,3.1694,3.1694,3.1694,3.1694,3.1694,3.1694,3.1694,3.1694,3.1639,3.1151,3.0962,3.1018,0.0,0.0,0.0,0.0,0.0,0.0,0.0,0.0,0.0,0.0,0.0,0.0,0.0,0.0,0.0,0.0,0.0,0.0,3.4199,3.3689,3.3641,3.4233,3.3873,3.3974,3.4626,3.4175,3.4207,3.4759,3.4451,3.461,3.5205,3.54,3.5496,3.5496,3.5496,3.5496,3.5496,3.5496,3.5496,3.5496,3.5496,3.5496,3.5326,3.3796,3.3196,3.3017,3.1524,3.1123,3.1282,3.1123,3.0254,2.9135,2.8711,2.7647,2.668,2.728,2.762,2.8,2.8862,2.8982,2.9053,2.9805,2.9845,2.989,3.0709,3.101,3.1335,3.2134,3.2719,3.2935,3.2382,3.273,3.2791,3.185,3.1694,3.1694,3.1694,3.1694,3.1694,3.1694,3.1694,3.1694,3.1694,3.1694,3.1594,3.1339,3.1561,3.1594,3.1327,3.1549,3.1694,3.1694,3.1694,3.1694,3.1694,3.1694,3.1694,3.1694,3.1694,3.1694,3.1694,3.1694,3.1694,3.1694,3.1694,3.1694,3.1694,3.1694,3.1694,3.1694,3.1694,3.1694,3.172,3.1995,3.1832,3.1572,0.0,0.0,0.0,0.0,0.0,0.0,0.0,0.0,0.0,0.0,0.0,0.0,0.0,0.0,0.0,0.0,0.0,0.0,0.0,3.4688,3.4885,3.5682,3.5481,3.5582,3.6077,3.5776,3.5819,3.6218,3.5577,3.5498,3.5923,3.5639,3.5496,3.5496,3.5496,3.5496,3.5496,3.5496,3.5496,0.0,0.0,3.5496,3.5397,3.4475,3.3897,3.3485,3.2598,3.2116,3.1827,3.1216,2.9911,2.8579,2.8624,2.8078,2.7457,2.7567,2.8212,2.893,2.9144,2.9424,2.981,3.0367,3.0304,3.0373,3.1374,3.1426,3.1567,3.2628,3.3074,3.31,3.2589,3.2935,3.2947,3.1874,3.1694,3.1694,3.1694,3.1694,3.1694,3.1694,3.1694,3.1694,3.1694,3.1694,3.1694,3.1694,3.1694,3.1802,3.2044,3.2056,3.2164,3.2393,3.2393,3.2393,3.2393,3.2393,3.2393,3.2393,3.2393,3.2393,3.2393,3.2393,3.2393,3.2393,3.2393,3.2393,3.2393,3.2393,3.2393,3.2393,3.2393,3.2393,3.2418,3.2478,3.232,3.2066,0.0,0.0,0.0,0.0,0.0,0.0,0.0,0.0,0.0,0.0,0.0,0.0,0.0,0.0,0.0,0.0,0.0,0.0,0.0,0.0,0.0,3.703,3.7236,3.7377,3.7487,3.7513,3.753,3.753,3.6919,3.662,3.6605,3.6028,3.575,3.575,3.575,3.575,3.575,3.575,3.575,3.575,3.575,3.575,3.5728,0.0,3.4843,3.4192,3.3864,3.3225,3.2367,3.1305,3.0073,2.8978,2.9093,2.9129,2.9002,2.838,2.9299,3.0316,2.9428,2.9973,3.0836,3.0971,3.096,3.118,3.2257,3.2137,3.2142,3.3318,3.3481,3.328,3.2824,3.304,3.2947,3.1874,3.1694,3.1694,3.1694,3.1694,3.1694,3.1694,3.1694,3.1694,3.1694,3.1694,3.1694,3.1694,3.1694,3.1924,3.2466,3.2563,3.2815,3.3284,3.3296,3.3296,3.3296,3.3296,3.3296,3.3296,3.3296,3.3296,3.3296,3.3296,3.3296,3.3296,3.3296,3.3296,3.3296,3.3296,3.3296,3.3296,3.3296,3.3296,3.325,3.2771,3.2547,3.2417,0.0,0.0,0.0,0.0,0.0,0.0,0.0,0.0,0.0,0.0,3.4397,3.4397,0.0,0.0,0.0,0.0,0.0,0.0,0.0,0.0,0.0,3.7915,3.8011,3.8349,3.8995,3.8501,3.8236,3.8236,3.7569,3.7231,3.7231,3.7127,3.7067,3.7067,3.7067,3.7067,3.7067,3.7067,3.7067,3.7067,3.7067,3.7067,3.6937,3.5621,0.0,0.0,3.3393,3.2361,3.1546,3.0953,3.0313,2.9609,2.8568,2.7974,2.7866,2.893,2.8891,2.8903,3.0701,3.0778,3.0521,3.135,3.1228,3.118,3.2257,3.2432,3.2843,3.4521,3.4687,3.4436,3.4132,3.365,3.2947,3.1874,3.1694,3.1694,3.1694,3.1694,3.1694,3.1694,3.1694,3.1694,3.1694,3.1694,3.1694,3.1694,3.1694,3.1924,3.2466,3.2911,3.32,3.3296,3.3296,3.3296,3.3296,3.3296,3.3296,3.3296,3.3296,3.3296,3.3296,3.3296,3.3296,3.3296,3.3296,3.3296,3.3296,3.3296,3.3296,3.3296,3.3296,3.3296,3.3274,3.3125,3.2799,3.2398,0.0,0.0,0.0,0.0,0.0,0.0,0.0,0.0,3.4397,3.4397,3.4397,3.4397,3.4397,3.4397,0.0,0.0,0.0,0.0,0.0,0.0,0.0,0.0,0.0,0.0,3.9397,3.9077,3.8922,3.8922,0.0,3.7913,3.7913,3.756,3.7396,3.7396,3.7396,3.7396,3.7396,3.7396,3.7396,3.7396,3.7396,3.7396,3.7306,0.0,0.0,0.0,0.0,3.3316,3.2846,3.2143,3.1745,3.1183,2.9081,2.86,2.8858,2.9071,2.9511,3.0062,3.0743,3.0948,3.1026,3.1228,3.1306,3.1598,3.2672,3.3,3.3634,3.5589,3.5766,3.5446,3.4995,3.4631,3.3923,3.2459,3.2221,3.2101,3.1749,3.1694,3.1694,3.1694,3.1694,3.1694,3.1694,3.1694,3.1694,3.1694,3.196,3.2345,3.2899,3.3669,3.4078,3.4078,3.4078,3.4078,3.4078,3.4078,3.4078,3.4078,3.4078,3.4078,3.4078,3.4078,3.4078,3.4078,3.4078,3.4078,3.4078,3.4078,3.4078,3.4078,3.4078,3.3911,3.366,3.363,3.3285,3.2865,0.0,0.0,0.0,0.0,0.0,0.0,0.0,3.4397,3.4397,3.4397,3.4397,3.447,3.4654,3.4512,3.4758,0.0,0.0,0.0,0.0,0.0,0.0,0.0,0.0,0.0,0.0,0.0,0.0,3.9406,3.8862,0.0,0.0,0.0,0.0,0.0,3.783,3.783,3.783,3.783,3.783,0.0,0.0,3.783,3.7779,0.0,0.0,0.0,0.0,3.4397,3.4259,3.3314,3.309,3.2779,3.0342,2.9863,3.0125,2.9713,3.0364,3.1094,3.051,3.0847,3.1294,3.0982,3.1139,3.1759,3.3202,3.3663,3.4382,3.6574,3.6812,3.642,3.5751,3.5469,3.4768,3.2995,3.2669,3.2419,3.1782,3.1694,3.1694,3.1694,3.1694,3.1694,3.1694,3.1694,3.1694,3.1694,3.2189,3.2779,3.3416,3.4318,3.4799,3.4799,3.4799,3.4799,3.4799,3.4799,3.4799,3.4799,3.4799,3.4799,3.4799,3.4799,3.4799,3.4799,3.4799,3.4799,3.4799,3.4799,3.4799,3.4799,3.4799,3.4653,3.4384,3.4114,3.3942,3.3869,0.0,0.0,0.0,0.0,0.0,0.0,0.0,3.4397,3.4397,3.4397,3.4397,3.4696,3.5487,3.4868,3.4758,0.0,0.0,0.0,0.0,0.0,0.0,0.0,0.0,0.0,0.0,0.0,0.0,3.9406,3.9331,0.0,0.0,0.0,0.0,0.0,0.0,3.9212,3.9212,3.9212,0.0,0.0,0.0,0.0,0.0,0.0,0.0,0.0,0.0,3.4397,3.4259,3.3314,3.3364,3.3616,3.2514,3.1267,3.0454,3.1761,3.0994,2.9875,3.0623,3.0589,3.0431,3.0814,3.0611,3.1026,3.3693,3.4313,3.5032,3.7552,3.7856,3.7399,3.6569,3.5701,3.4591,3.295,3.255,3.2257,3.176,3.1694,3.1694,3.1694,3.1694,3.1694,3.1694,3.1694,3.1694,3.1694,3.2189,3.2924,3.3886,3.4487,3.4799,3.4799,3.4799,3.4799,3.4799,3.4799,3.4799,3.4799,3.4799,3.4799,3.4799,3.4799,3.4799,3.4799,3.4799,3.4799,3.4799,3.4799,3.4799,3.4799,3.4799,3.5223,3.5667,3.4446,3.486,3.582,0.0,0.0,0.0,0.0,0.0,0.0,0.0,3.4397,3.4397,3.4397,3.4397,3.4737,3.5598,3.5386,3.5729,0.0,0.0,0.0,0.0,0.0,0.0,0.0,0.0,0.0,0.0,0.0,3.9406,3.9406,3.9406,0.0,0.0,0.0,0.0,0.0,0.0,3.9406,3.9406,3.9406,0.0,0.0,0.0,0.0,0.0,0.0,0.0,0.0,0.0,0.0,3.4332,3.3963,3.4234,3.4733,3.4677,3.3859,3.274,3.1861,3.1866,3.1977,3.113,3.1492,3.2,3.146,3.1964,3.2923,3.4127,3.5208,3.6481,3.8252,3.8383,3.7911,3.7074,3.6415,3.5494,3.3981,3.3768,3.3588,3.2988,3.2831,3.2776,3.2776,3.2701,3.2658,3.2658,3.2658,3.2537,3.2212,3.2682,3.3192,3.3677,3.4086,3.4318,3.4318,3.4631,3.4799,3.4799,3.4799,3.5042,3.5512,3.5512,3.5751,3.6166,3.5715,3.5512,3.5512,3.5512,3.5512,3.556,3.6,3.6178,3.6178,3.6178,3.6177,3.6094,3.5403,3.533,3.5557,0.0,0.0,0.0,0.0,0.0,3.4397,3.4397,3.4397,3.4397,3.4397,3.4613,3.5101,3.5953,3.6284,3.7014,3.8436,0.0,0.0,0.0,0.0,0.0,0.0,0.0,0.0,0.0,0.0,3.9406,3.9406,3.9406,3.9406,0.0,0.0,3.9406,3.9406,0.0,0.0,0.0,0.0,0.0,0.0,0.0,0.0,0.0,0.0,0.0,0.0,0.0,0.0,0.0,0.0,0.0,3.5391,3.5926,3.5771,3.5004,3.312,3.3145,3.3462,3.1983,3.235,3.2954,3.213,3.2918,3.4094,3.486,3.6048,3.7323,3.8439,3.8475,3.8028,3.7098,3.6653,3.5999,3.4697,3.4551,3.4471,3.4039,3.3882,3.389,3.4076,3.4013,3.394,3.394,3.394,3.378,3.3423,3.3573,3.3727,3.3831,3.4035,3.4301,3.4631,3.5023,3.5292,3.5475,3.5475,3.5763,3.6332,3.6332,3.6603,3.7081,3.6568,3.6332,3.6332,3.6332,3.6332,3.6368,3.6895,3.7058,3.6977,3.6977,3.6847,3.6613,3.6202,3.607,3.6175,0.0,0.0,0.0,0.0,0.0,0.0,0.0,3.4397,3.4397,3.4397,3.5155,3.5983,3.6793,3.7658,3.8501,3.9325,0.0,0.0,0.0,0.0,0.0,0.0,0.0,0.0,0.0,0.0,3.9406,3.9406,3.9406,3.9406,3.9406,3.9406,3.9406,3.9406,0.0,0.0,0.0,0.0,0.0,0.0,0.0,0.0,0.0,0.0,0.0,0.0,0.0,0.0,0.0,0.0,0.0,0.0,0.0,3.6504,3.6873,3.6386,3.4938,3.3459,3.3238,3.2896,3.2625,3.2683,3.2953,3.3774,3.5985,3.6748,3.7205,3.7965,3.8107,3.7744,3.6533,3.614,3.572,3.4829,3.4533,3.4447,3.4564,3.4589,3.4805,3.5414,3.5478,3.5478,3.5478,3.5478,3.5467,3.5478,3.4921,3.4591,3.4589,3.4526,3.5007,3.6142,3.618,3.6472,3.7069,3.708,3.708,3.708,3.708,3.7094,3.7097,3.7094,3.708,3.708,3.708,3.708,3.708,3.7092,3.6942,3.6697,3.6697,3.7027,3.7401,3.6652,3.7317,3.8419,0.0,0.0,0.0,0.0,0.0,0.0,0.0,3.4909,3.5284,3.5284,3.6012,3.685,3.7696,3.8037,3.8519,3.9334,0.0,0.0,0.0,0.0,0.0,0.0,0.0,0.0,0.0,0.0,3.9406,3.9406,3.9406,3.9406,3.9406,3.9406,3.9406,3.9406,3.9406,3.9406,0.0,0.0,0.0,0.0,0.0,0.0,3.6832,0.0,0.0,0.0,0.0,0.0,0.0,0.0,0.0,0.0,0.0,0.0,0.0,3.6207,3.6034,3.5657,3.4533,3.4726,3.516,3.4725,3.5445,3.6274,3.6236,3.6885,3.7477,3.7475,3.7051,3.6487,3.5928,3.5574,3.5285,3.5017,3.5385,3.5753,3.5937,3.5815,3.5953,3.6638,3.6641,3.6589,3.6589,3.6589,3.6433,3.6071,3.5867,3.5618,3.5305,3.5255,3.5189,3.5038,3.5793,3.6291,3.6482,3.6888,3.736,3.7844,3.7844,3.812,3.8587,3.8086,3.7753,3.7579,3.7579,3.75,3.741,3.7916,3.8076,3.801,3.801,3.8101,3.8205,3.7779,3.7939,3.8258,0.0,0.0,0.0,0.0,0.0,0.0,0.0,3.4858,3.5216,3.5216,3.6201,3.7107,3.7649,3.8272,3.8848,3.9361,0.0,0.0,0.0,0.0,0.0,0.0,0.0,0.0,0.0,3.9406,3.9406,3.9406,3.9406,3.9406,3.9406,3.9406,3.9406,3.9406,3.9406,3.9406,0.0,0.0,0.0,0.0,0.0,0.0,3.6802,0.0,0.0,0.0,0.0,0.0,0.0,0.0,0.0,0.0,0.0,0.0,0.0,0.0,3.6371,3.6458,3.5501,3.5855,3.6345,3.5698,3.6317,3.6911,3.6219,3.6677,3.7114,3.6692,3.6204,3.5745,3.5373,3.5188,3.5204,3.5499,3.5972,3.6531,3.7198,3.7064,3.7207,3.7958,3.7987,3.7934,3.7934,3.7934,3.779,3.7457,3.7222,3.6966,3.6674,3.6228,3.5764,3.5308,3.6203,3.6792,3.7026,3.7623,3.8164,3.8621,3.8621,3.8857,3.9269,3.8823,3.8517,3.8357,3.8253,3.8141,0.0,3.843,3.8532,3.8453,3.8453,3.8398,3.8321,3.816,3.8089,3.8067,0.0,0.0,0.0,0.0,0.0,0.0,0.0,0.0,0.0,3.4571,3.6039,3.7074,3.7074,3.8472,3.9406,3.9406,0.0,0.0,0.0,0.0,0.0,0.0,0.0,0.0,0.0,3.9406,3.9406,3.9406,3.9406,3.9406,3.9406,3.9406,3.9406,3.9406,3.9406,3.9406,0.0,0.0,0.0,0.0,0.0,0.0,0.0,0.0,0.0,0.0,0.0,0.0,0.0,0.0,0.0,0.0,0.0,0.0,0.0,0.0,0.0,0.0,0.0,3.6247,3.6342,3.5782,3.5882,3.6107,3.6,3.6204,0.0,3.5672,3.5532,3.5373,3.4893,3.4971,3.5377,3.6151,3.6325,3.6835,3.8163,3.8233,3.8431,3.9137,3.9272,3.9305,3.9305,3.9346,3.9359,3.9359,3.8887,3.8564,3.8534,3.7422,3.6768,3.6727,3.7276,3.7808,3.8334,3.8982,3.9305,3.9305,3.9305,3.9305,3.9305,3.9305,3.9294,3.9258,3.9011,3.8897,3.8863,3.8679,3.8442,3.8188,3.8188,3.8078,3.79,3.79,3.79,3.7913,0.0,0.0,0.0,0.0,0.0,0.0,0.0,0.0,0.0,0.0,3.7762,3.881,3.881,3.9159,3.9406,0.0,0.0,0.0,0.0,0.0,0.0,0.0,0.0,0.0,0.0,3.9406,3.9406,3.9406,3.9406,3.9406,3.9406,3.9406,3.9406,3.9406,3.9406,0.0,0.0,0.0,0.0,0.0,0.0,0.0,0.0,0.0,0.0,0.0,3.4397,3.4397,0.0,0.0,0.0,0.0,0.0,0.0,0.0,0.0,3.5129,3.5482,3.5482,0.0,3.616,3.6016,3.6203,3.6283,0.0,3.5748,3.5648,3.5104,3.4826,3.4714,3.4793,3.5042,3.5416,3.5914,3.6638,3.732,3.7806,3.8349,3.8649,3.8481,3.8957,3.9305,3.9305,3.9723,3.9995,3.9995,4.0284,4.0257,3.9805,3.9074,3.8439,3.7992,3.8117,3.8035,3.7713,3.8765,3.9305,3.9305,3.9305,3.9305,3.9305,3.9305,3.9192,3.8986,3.893,3.881,3.8668,3.8625,3.8442,3.8188,3.8188,3.8078,3.79,3.79,3.79,3.7965,0.0,0.0,0.0,0.0,0.0,0.0,0.0,0.0,0.0,0.0,0.0,0.0,0.0,0.0,0.0,0.0,0.0,0.0,0.0,0.0,0.0,0.0,0.0,0.0,3.9406,3.9406,3.9406,3.9406,3.9406,3.9406,3.9406,3.9406,3.9406,3.9406,3.9406,0.0,0.0,0.0,0.0,0.0,3.7577,0.0,0.0,0.0,0.0,0.0,3.4397,3.4397,0.0,3.4397,3.4397,3.4397,0.0,0.0,0.0,0.0,3.4633,3.4881,3.4881,3.5482,3.6044,3.5785,3.5841,3.5793,3.5192,3.5058,3.4963,3.4684,3.4714,3.4858,3.5008,3.5481,3.6086,3.6829,3.7173,3.7528,3.804,3.8666,3.8944,3.8573,3.9121,3.9474,3.9361,4.0002,4.0422,4.0422,4.085,4.0962,4.0635,4.0038,3.9563,3.9237,3.9237,3.8806,3.7927,3.8833,3.9305,3.9305,3.9305,3.9305,3.9305,3.9305,3.9145,3.8908,3.8908,3.872,3.8419,3.8419,3.8283,3.8095,3.832,3.8357,3.8293,3.8581,3.8684,3.8712,0.0,0.0,0.0,0.0,0.0,0.0,0.0,0.0,0.0,0.0,0.0,0.0,0.0,0.0,0.0,0.0,0.0,0.0,0.0,0.0,0.0,0.0,0.0,3.9406,3.9406,3.9406,3.9406,3.9406,3.9406,3.9406,3.9406,3.9406,3.9406,3.9406,3.9406,0.0,0.0,0.0,0.0,0.0,3.7534,0.0,0.0,0.0,0.0,0.0,0.0,0.0,0.0,3.4397,3.4397,3.4397,3.4397,0.0,0.0,0.0,0.0,0.0,3.4397,3.5103,3.573,3.5273,3.5155,3.5025,3.4515,3.4397,3.4424,3.4515,3.4933,3.5336,3.5457,3.6082,3.69,3.7898,3.7695,3.7659,3.8432,3.8881,3.9069,3.8875,3.9378,3.9673,3.9474,4.0299,4.0842,4.0903,4.1198,4.1369,4.1369,4.0798,4.047,4.047,4.0354,3.9791,3.8753,3.9215,3.9386,3.9305,3.9258,3.9236,3.9236,3.9236,3.9102,3.8866,3.898,3.8797,3.8391,3.8483,3.8398,3.8247,3.8705,3.8864,3.8894,3.9404,3.96,3.9613,0.0,0.0,0.0,0.0,0.0,0.0,0.0,0.0,0.0,0.0,0.0,0.0,0.0,0.0,0.0,0.0,0.0,0.0,0.0,0.0,0.0,0.0,3.9406,3.9406,3.9406,3.9406,3.9406,3.9406,3.9406,3.9406,3.9406,3.9406,3.9406,3.9406,3.9406,3.9406,3.9406,0.0,0.0,0.0,3.7304,0.0,0.0,0.0,0.0,0.0,0.0,0.0,0.0,3.4397,3.4397,3.4397,3.4397,0.0,0.0,0.0,0.0,0.0,3.4397,3.4528,3.4633,3.4554,3.4552,3.4515,3.441,3.4397,3.4541,3.5051,3.5234,3.5507,3.6198,3.6641,3.7045,3.7381,3.7652,3.7908,3.8211,3.8313,3.844,3.8611,3.9141,3.9533,3.9719,4.078,4.157,4.1773,4.2307,4.2628,4.2628,4.2046,4.172,4.172,4.1008,4.0528,4.0353,4.0164,3.9818,3.9305,3.9067,3.8964,3.8964,3.8964,3.8843,3.8672,3.9371,3.9492,3.9266,3.9773,3.9832,3.9595,3.9674,3.9609,3.9469,3.9561,3.96,3.9665,0.0,0.0,0.0,0.0,0.0,0.0,0.0,0.0,0.0,0.0,0.0,0.0,0.0,0.0,0.0,0.0,0.0,0.0,0.0,0.0,0.0,3.9406,3.9406,3.9406,3.9406,3.9406,3.9406,3.9406,3.9406,3.9406,3.9406,3.9406,3.9406,3.9406,3.9406,3.9406,3.9406,0.0,0.0,0.0,0.0,0.0,0.0,0.0,0.0,0.0,0.0,0.0,0.0,0.0,3.4397,3.4397,3.4397,0.0,0.0,0.0,0.0,0.0,3.4397,3.4397,3.4397,3.4397,3.4397,3.4397,3.4397,3.4646,3.4959,3.5247,3.5796,3.6325,3.6697,3.7157,3.7529,3.7606,3.8137,3.8471,3.823,3.8315,3.8419,3.8397,3.9271,3.9886,3.9899,4.1227,4.2129,4.2251,4.2665,4.2899,4.2899,4.2497,4.2349,4.248,4.1958,4.1516,4.1192,4.1029,4.0586,3.9846,3.9867,3.9796,3.9671,3.9807,3.9658,3.9326,3.9849,3.9852,3.955,3.9919,3.9955,3.9768,4.0056,4.0115,4.007,4.0397,4.0528,4.0554,0.0,0.0,0.0,0.0,0.0,0.0,0.0,0.0,0.0,0.0,0.0,0.0,0.0,0.0,0.0,0.0,0.0,0.0,0.0,0.0,3.9406,3.9406,3.9406,3.9406,3.9406,3.9406,3.9406,3.9406,3.9406,3.9406,3.9406,3.9406,3.9406,3.9406,3.9406,3.9406,3.9397,3.9201,0.0,0.0,0.0,0.0,0.0,0.0,0.0,0.0,0.0,0.0,0.0,0.0,0.0,0.0,0.0,0.0,0.0,3.4397,3.4397,3.4397,3.4397,3.4397,3.4397,3.4397,3.4397,3.4437,3.458,3.4959,3.5388,3.5639,3.6397,3.709,3.7351,3.7782,3.8096,3.8096,3.8495,3.8662,3.8201,3.8308,3.8417,3.8329,3.9451,4.0246,4.0285,4.1565,4.2424,4.2499,4.2632,4.2704,4.2704,4.2583,4.2597,4.2802,4.2608,4.2283,4.1824,4.1751,4.1267,4.0393,4.0534,4.0534,4.0393,4.0534,4.0369,3.993,4.0267,4.0179,3.9808,4.0106,4.0135,4.0044,4.0449,4.0606,4.0671,4.1129,4.1298,4.1298,0.0,0.0,0.0,0.0,0.0,0.0,0.0,0.0,0.0,0.0,0.0,0.0,0.0,0.0,0.0,0.0,0.0,0.0,0.0,0.0,3.9406,3.9406,3.9406,3.9406,3.9406,3.9406,3.9406,3.9406,3.9406,3.9406,3.9406,3.9406,3.9406,3.9406,3.9406,3.9406,3.9346,3.8594,3.7791,0.0,0.0,0.0,0.0,0.0,0.0,0.0,0.0,0.0,0.0,0.0,0.0,0.0,0.0,0.0,3.4397,3.4397,3.4397,3.4397,3.4397,3.4397,3.4397,3.4397,3.4397,3.4552,3.5103,3.5273,3.56,3.6658,3.6935,3.7314,3.8385,3.8607,3.8646,3.8646,3.8277,3.7975,3.7936,3.7934,3.8129,3.8616,3.9467,4.031,4.1033,4.1731,4.2239,4.2473,4.2289,4.2165,4.2165,4.2388,4.2511,4.2536,4.2511,4.2472,4.2444,4.2197,4.1598,4.0675,4.044,4.0452,4.0663,4.0428,4.0217,4.0018,4.0535,4.0602,4.0384,4.0958,4.1193,4.1181,4.122,4.1246,4.1246,4.1285,4.1298,4.1298,0.0,0.0,0.0,0.0,0.0,0.0,0.0,0.0,0.0,0.0,0.0,0.0,0.0,0.0,0.0,0.0,0.0,0.0,0.0,0.0,3.9406,3.9406,3.9406,3.9406,3.9406,3.9406,3.9406,3.9406,3.9406,3.9406,3.9406,3.9406,3.9406,3.9406,3.9406,3.9406,3.9352,3.8538,3.7696,3.6822,0.0,0.0,0.0,0.0,0.0,0.0,0.0,0.0,0.0,0.0,3.4397,3.4397,3.4397,3.4397,3.4397,3.4397,3.4397,3.4397,3.4397,3.4397,3.4489,3.4868,3.4959,3.5012,3.5247,3.5848,3.6488,3.692,3.7299,3.7795,3.8555,3.8436,3.8306,3.8646,3.8253,3.79,3.79,3.79,3.8109,3.8633,3.947,4.024,4.0894,4.1647,4.214,4.2239,4.2313,4.2351,4.2351,4.2437,4.2499,4.2499,4.2499,4.2424,4.2252,4.2152,4.1913,4.157,4.1474,4.139,4.1317,4.122,4.1038,4.0818,4.1016,4.1059,4.0985,4.1207,4.1298,4.1298,4.1298,4.1298,4.1298,4.1298,4.1298,4.1298,0.0,0.0,0.0,0.0,0.0,0.0,0.0,0.0,0.0,0.0,0.0,0.0,0.0,0.0,0.0,0.0,0.0,0.0,0.0,3.9406,3.9406,3.9406,3.9406,3.9406,3.9406,3.9406,3.9406,3.9406,3.9406,3.9406,3.9406,3.9406,3.9406,3.9406,3.9406,3.9406,3.9328,3.8239,3.7453,3.6802,3.5726,3.493,0.0,0.0,0.0,0.0,0.0,0.0,0.0,0.0,3.4397,3.4397,3.4397,3.4397,3.4397,3.4397,3.4397,3.4397,3.4397,3.4552,3.4776,3.5195,3.5574,3.5835,3.5835,3.6436,3.7039,3.7246,3.79,3.8489,3.8659,3.8555,3.8489,3.8672,3.8253,3.79,3.79,3.8057,3.8359,3.8921,3.9734,4.0469,4.1025,4.1619,4.2005,4.2091,4.219,4.229,4.2375,4.2449,4.2499,4.2499,4.2584,4.2498,4.2239,4.2227,4.2177,4.2103,4.2005,4.1918,4.182,4.1746,4.1597,4.1423,4.1336,4.1298,4.1298,4.1298,4.1298,4.1298,4.1298,4.1298,4.1298,4.1298,4.1298,4.1298,0.0,0.0,0.0,0.0,0.0,0.0,0.0,0.0,0.0,0.0,0.0,0.0,0.0,0.0,0.0,0.0,0.0,0.0,3.9406,3.9406,3.9406,3.9406,3.9406,3.9406,3.9406,3.9406,3.9406,3.9406,3.9406,3.9406,3.9406,3.9406,3.9406,3.9406,3.9406,3.9406,3.9292,3.762,3.69,3.6754,3.507,3.4397,0.0,0.0,0.0,0.0,0.0,0.0,0.0,0.0,3.4397,3.4397,3.4397,3.4397,3.4397,3.4397,3.4397,3.441,3.441,3.4842,3.5312,3.5312,3.6162,3.6998,3.7011,3.7011,3.7194,3.7782,3.8803,3.9404,3.8803,3.9182,3.9391,3.8803,3.8253,3.79,3.79,3.8359,3.8921,3.9522,4.0315,4.1026,4.1644,4.1696,4.182,4.2066,4.1858,4.182,4.2091,4.2363,4.2499,4.2499,4.2753,4.2766,4.2486,4.2499,4.2363,4.2091,4.182,4.1845,4.2091,4.182,4.1696,4.1684,4.1423,4.1298,4.1298,4.1298,4.1298,4.1298,4.1298,4.1298,4.1298,4.1298,4.1298,4.1298,0.0,0.0,0.0,0.0,0.0,0.0,0.0,0.0,0.0,0.0,0.0,0.0,0.0,0.0,0.0,0.0,0.0,0.0,3.9406,3.9406,3.9406,3.9406,3.9406,3.9406,3.9406,3.9406,3.9406,3.9406,3.9406,3.9406,3.9406,3.9406,3.9406,3.9406,3.9406,3.9406,3.9292,3.762,3.69,3.6754,3.507,3.4397,0.0,0.0,0.0,0.0,0.0,0.0,0.0,0.0,0.0,0.0,3.4397,3.4397,3.4397,3.4397,3.4698,3.5025,3.5025,3.5443,3.5955,3.6397,3.675,3.7116,3.7547,3.7915,3.8253,3.8436,3.8424,3.845,3.8659,3.8542,3.8463,3.8659,3.8253,3.79,3.79,3.8359,3.8921,3.9522,4.0144,4.0756,4.1371,4.1423,4.1448,4.1536,4.182,4.2017,4.2103,4.2533,4.2608,4.2239,4.2486,4.24,4.1932,4.1932,4.1895,4.182,4.1547,4.156,4.182,4.1535,4.1423,4.1411,4.1323,4.1298,4.1298,4.1298,4.1298,4.1298,4.1298,4.1298,4.1298,4.1298,4.1298,4.1298,0.0,0.0,0.0,0.0,0.0,0.0,0.0,0.0,0.0,0.0,0.0,0.0,0.0,0.0,0.0,0.0,0.0,0.0,0.0,0.0,3.9406,3.9406,3.9406,3.9406,3.9406,3.9406,3.9406,3.9406,3.9406,3.9406,3.9406,3.9406,3.9406,3.9406,3.9406,3.9219,3.8824,3.7477,3.6729,3.6296,3.495,3.4397,3.4397,0.0,0.0,0.0,0.0,0.0,0.0,0.0,0.0,0.0,3.4397,3.4397,3.446,3.4685,3.5022,3.5338,3.5561,3.6031,3.6541,3.692,3.7181,3.7521,3.8096,3.8293,3.8372,3.8372,3.828,3.8254,3.8359,3.828,3.8254,3.8359,3.8111,3.79,3.79,3.8568,3.9195,3.9561,4.0292,4.0906,4.1259,4.1298,4.1386,4.1597,4.1918,4.214,4.2252,4.2571,4.2547,4.2116,4.2264,4.2129,4.1696,4.1696,4.1647,4.1535,4.1373,4.1373,4.1535,4.1373,4.1298,4.1298,4.1298,4.1298,4.1298,4.1298,4.1298,4.1298,4.1298,4.1442,4.1651,4.1651,4.1782,4.1978,0.0,0.0,0.0,0.0,0.0,0.0,0.0,0.0,0.0,0.0,0.0,0.0,0.0,0.0,0.0,0.0,0.0,0.0,0.0,0.0,3.9406,3.9406,3.9406,3.9406,3.9406,3.9406,3.9406,3.9406,3.9406,3.9406,3.9406,3.9406,3.9406,3.9406,3.9319,3.8876,3.8146,3.7199,3.6379,3.5619,3.4758,3.4397,3.4397,3.4397,0.0,0.0,0.0,0.0,0.0,0.0,0.0,0.0,3.4397,3.4437,3.458,3.5142,3.5365,3.5561,3.6057,3.6619,3.709,3.709,3.7483,3.8031,3.8527,3.8253,3.7901,3.7965,3.8331,3.8476,3.7991,3.8293,3.8463,3.7978,3.79,3.79,3.79,3.8881,3.96,3.96,4.0606,4.1298,4.1298,4.1298,4.1511,4.2029,4.2066,4.2178,4.2449,4.2449,4.2351,4.2066,4.2066,4.1931,4.1672,4.1659,4.1574,4.1377,4.1377,4.1403,4.1455,4.1351,4.1298,4.1298,4.1298,4.1338,4.1377,4.1377,4.1416,4.1455,4.1455,4.1794,4.2264,4.2264,4.2552,4.2931,0.0,0.0,0.0,0.0,0.0,0.0,0.0,0.0,0.0,0.0,0.0,0.0,0.0,0.0,0.0,0.0,0.0,0.0,0.0,0.0,3.9406,3.9406,3.9406,3.9406,3.9406,3.9406,3.9406,3.9406,3.9406,3.9406,3.9406,3.9406,3.9406,3.9364,3.8738,3.8361,3.8108,3.66,3.5856,3.5619,3.4758,3.4397,3.4397,3.4397,3.4397,0.0,0.0,0.0,0.0,0.0,0.0,0.0,3.4397,3.4735,3.5129,3.526,3.5926,3.6658,3.6776,3.7246,3.7704,3.7704,3.7808,3.7926,3.8057,3.7978,3.8018,3.8437,3.828,3.8044,3.7926,3.7993,3.8019,3.7926,3.79,3.79,3.79,3.8881,3.96,3.96,4.0606,4.1298,4.1298,4.1298,4.1436,4.1758,4.1796,4.1894,4.2165,4.219,4.2054,4.1796,4.1796,4.1659,4.1386,4.1386,4.1583,4.2016,4.2016,4.2238,4.2592,4.1716,4.1298,4.1298,4.1298,4.1572,4.2016,4.2016,4.2252,4.2631,4.2631,4.2709,4.284,4.284,4.2631,4.2369,0.0,0.0,0.0,0.0,0.0,0.0,0.0,0.0,0.0,0.0,0.0,0.0,0.0,0.0,0.0,0.0,0.0,0.0,0.0,0.0,0.0,3.9406,3.9406,3.9406,3.9406,3.9406,3.9406,3.9406,3.9406,3.9406,0.0,0.0,3.9192,3.8821,3.8793,3.8113,3.6975,3.6478,3.5816,3.5043,3.4571,3.4397,3.4397,3.4397,3.4397,3.4397,3.4397,0.0,0.0,0.0,0.0,0.0,0.0,0.0,3.5404,3.5953,3.6541,3.7063,3.7351,3.7665,3.79,3.79,3.79,3.79,3.79,3.79,3.8057,3.8594,3.8267,3.79,3.79,3.79,3.79,3.79,3.79,3.7991,3.8253,3.9038,3.9691,3.9953,4.0763,4.1298,4.1298,4.1298,4.1411,4.1684,4.1696,4.1758,4.1894,4.1906,4.1796,4.1523,4.1786,4.1736,4.1298,4.1847,4.2147,4.2199,4.2461,4.2735,4.2971,4.237,4.2109,4.2109,4.2109,4.2291,4.2579,4.2579,4.2592,4.2631,4.2631,4.2631,4.2631,4.2631,4.2592,4.2631,0.0,0.0,0.0,0.0,0.0,0.0,0.0,0.0,0.0,0.0,0.0,0.0,0.0,0.0,0.0,0.0,0.0,0.0,0.0,0.0,0.0,3.9406,3.9406,3.9406,3.9406,3.9406,3.9406,3.9406,3.9406,0.0,0.0,0.0,0.0,3.8417,3.8797,3.7824,3.5936,3.6306,3.5672,3.4397,3.4397,3.4397,3.4397,3.4397,0.0,3.4397,3.4397,3.4397,3.441,3.4515,0.0,0.0,0.0,0.0,3.5783,3.6724,3.7077,3.726,3.7758,3.79,3.79,3.79,3.79,3.7915,3.8018,3.8032,3.8189,3.8738,3.8423,3.807,3.8163,3.8189,3.8189,3.8189,3.8189,3.8357,3.879,3.9365,3.99,4.0345,4.0933,4.1298,4.1298,4.1298,4.1411,4.1684,4.1659,4.1647,4.1696,4.1659,4.1575,4.1468,4.1833,4.1899,4.1599,4.2435,4.2735,4.25,4.3049,4.3284,4.3284,4.3284,4.318,4.2984,4.2905,4.2918,4.2984,4.2905,4.2657,4.2343,4.2343,4.2343,4.2356,4.246,4.2709,4.3088,0.0,0.0,0.0,0.0,0.0,0.0,0.0,0.0,0.0,0.0,0.0,0.0,0.0,0.0,0.0,0.0,0.0,0.0,3.9406,0.0,0.0,3.9406,3.9406,3.9406,3.9406,3.9406,3.9406,3.9406,0.0,0.0,0.0,0.0,0.0,3.9183,0.0,3.7049,3.6646,3.5301,3.4602,3.4397,3.4397,3.4397,3.4397,0.0,0.0,3.4397,3.4397,3.4397,3.4476,3.4999,3.5182,0.0,0.0,0.0,3.6802,3.6959,3.7377,3.7808,3.7887,3.79,3.79,3.79,3.79,3.8019,3.8489,3.8594,3.8764,3.9352,3.9012,3.8751,3.9273,3.9365,3.9365,3.9365,3.9365,3.9403,3.9469,3.9953,4.0318,4.0397,4.0933,4.1298,4.1298,4.1298,4.1411,4.1684,4.1486,4.1448,4.1684,4.1486,4.1584,4.2055,4.1651,4.186,4.2762,4.2461,4.2761,4.3677,4.4212,4.4473,4.4473,4.4473,4.3924,4.2971,4.2513,4.2578,4.2971,4.25,4.2539,4.2892,4.2892,4.2892,4.2958,4.3467,4.3389,4.3088,0.0,0.0,0.0,0.0,0.0,0.0,0.0,0.0,0.0,0.0,0.0,0.0,0.0,0.0,0.0,3.9406,3.9406,3.9406,3.9406,3.9406,3.9406,3.9406,3.9406,3.9406,3.9406,3.9406,3.9406,3.9406,0.0,0.0,0.0,3.9192,3.8907,0.0,0.0,0.0,0.0,3.5233,3.4847,3.4397,3.4397,3.4397,3.4397,0.0,0.0,0.0,0.0,0.0,3.5391,3.5652,3.5744,3.5848,3.6412,0.0,0.0,0.0,3.7691,3.79,3.79,3.79,3.79,3.79,3.8135,3.841,3.8646,3.896,3.9365,3.9927,3.9835,3.9639,3.9613,3.96,3.96,3.96,3.96,3.9704,4.0005,4.0253,4.0528,4.0855,4.1142,4.1298,4.1298,4.1298,4.1348,4.1473,4.1687,4.1701,4.1486,4.1976,4.2239,4.2199,4.2565,4.284,4.2997,4.3402,4.3859,4.4356,4.4591,4.4695,4.4695,4.4695,4.442,4.3937,4.3689,4.3728,4.3924,4.3689,4.3363,4.3023,4.3376,4.3101,4.2631,4.318,4.3232,4.3088,0.0,0.0,0.0,0.0,0.0,0.0,0.0,0.0,0.0,0.0,0.0,0.0,0.0,0.0,0.0,0.0,3.9101,3.9183,3.9397,3.9406,3.9406,3.9406,3.9406,3.9406,3.9406,3.9406,3.9406,0.0,0.0,0.0,3.851,3.8671,3.8097,0.0,3.7577,3.6698,0.0,0.0,0.0,0.0,3.4397,3.4397,0.0,0.0,0.0,0.0,0.0,0.0,3.6112,3.6279,3.6332,3.6436,3.7037,3.7233,0.0,0.0,0.0,3.79,3.79,3.79,3.7928,3.807,3.8398,3.8789,3.9064,3.9482,3.9953,4.0502,4.0632,4.0514,4.0109,4.0031,4.0031,4.0031,4.0031,4.0175,4.058,4.0632,4.0802,4.1246,4.1298,4.1298,4.1298,4.1298,4.1364,4.152,4.1951,4.2055,4.1756,4.254,4.2892,4.2643,4.331,4.3585,4.3428,4.4277,4.4695,4.4695,4.4695,4.4695,4.4695,4.4695,4.4695,4.4695,4.4565,4.4499,4.4486,4.4329,4.3767,4.3049,4.3493,4.3141,4.2461,4.3023,4.3232,4.331,0.0,0.0,0.0,0.0,0.0,0.0,0.0,0.0,0.0,0.0,0.0,0.0,0.0,3.7285,3.8258,3.8258,3.8258,3.8599,3.9346,3.9406,3.9406,3.9406,3.9406,0.0,3.9406,3.9406,3.9406,0.0,0.0,0.0,3.9301,3.7753,3.6977,3.69,3.6952,3.6464,3.5578,0.0,0.0,0.0,0.0,0.0,0.0,0.0,0.0,0.0,0.0,3.6083,3.6188,3.6763,3.6948,3.7063,3.7653,3.7849,3.7861,0.0,0.0,0.0,3.79,3.79,3.8019,3.8529,3.8685,3.8986,4.007,4.0345,4.0528,4.1129,4.1259,4.1234,4.122,4.1207,4.1207,4.1207,4.1207,4.122,4.1246,4.1259,4.1259,4.1298,4.1298,4.1298,4.1298,4.1298,4.1546,4.2107,4.2186,4.2421,4.2892,4.2971,4.3245,4.3794,4.331,4.3545,4.4603,4.4669,4.4695,4.4695,4.4695,4.4695,4.4695,4.4695,4.4695,4.4669,4.416,4.3938,4.3899,4.331,4.3049,4.2997,4.3023,4.301,4.3036,4.3624,4.3847,4.3925,0.0,0.0,0.0,0.0,0.0,0.0,0.0,0.0,0.0,0.0,0.0,0.0,0.0,3.6694,3.7362,3.7362,3.7362,3.7734,3.8566,3.8102,3.8055,3.8618,3.8621,3.8621,3.8621,3.9137,0.0,0.0,0.0,3.806,3.7781,3.7184,3.6336,3.5322,3.5883,3.5655,3.4847,3.4533,0.0,0.0,0.0,0.0,0.0,0.0,0.0,3.6423,3.6606,3.6933,3.7299,3.7496,3.7586,3.7625,3.7835,3.79,3.79,3.79,3.79,3.79,3.79,3.79,3.8031,3.8568,3.8986,3.9469,4.0227,4.0697,4.1037,4.1259,4.1298,4.1298,4.1298,4.1298,4.1298,4.1298,4.1298,4.1429,4.182,4.1872,4.2016,4.2357,4.2383,4.2383,4.2383,4.2383,4.2487,4.2709,4.3062,4.3206,4.301,4.3689,4.4029,4.3899,4.4016,4.429,4.4695,4.4695,4.4695,4.4695,4.4695,4.4695,4.4695,4.4695,4.4695,4.4695,4.4499,4.4408,4.4395,4.4172,4.3885,4.3611,4.3964,4.3885,4.365,4.4212,4.4408,4.4434,0.0,0.0,0.0,0.0,0.0,0.0,0.0,0.0,0.0,0.0,0.0,0.0,0.0,0.0,3.6494,3.6494,3.6734,3.7146,3.7725,3.7213,3.7295,3.8165,3.7919,3.79,3.8193,3.844,0.0,0.0,0.0,0.0,0.0,3.6326,3.5622,3.4847,3.5145,3.494,0.0,0.0,0.0,3.441,0.0,0.0,3.5338,3.5717,3.6345,3.7037,3.7233,3.756,3.79,3.79,3.79,3.79,3.79,3.79,0.0,0.0,3.79,3.79,3.79,3.8019,3.8293,3.8855,3.9443,4.0018,4.058,4.1011,4.1298,4.1298,4.1298,4.1298,4.1298,4.1298,4.1364,4.1572,4.1598,4.1794,4.2382,4.2474,4.2592,4.2971,4.2997,4.2997,4.2997,4.2997,4.3088,4.3297,4.3663,4.3807,4.3585,4.429,4.4538,4.4186,4.4512,4.4695,4.4695,4.4695,4.4695,4.4695,4.4695,4.4695,4.4695,4.4695,4.4695,4.4695,4.4695,4.4695,4.4695,4.4695,4.4486,4.4199,4.4551,4.4486,4.4199,4.4578,4.4695,4.4695,0.0,0.0,0.0,0.0,0.0,0.0,0.0,0.0,0.0,0.0,0.0,0.0,0.0,0.0,0.0,3.5659,3.6375,3.6832,3.6861,3.6841,3.7218,3.8099,3.7314,3.7266,3.8118,3.7324,0.0,0.0,0.0,0.0,0.0,0.0,3.4847,3.5619,3.4789,3.4397,3.4397,0.0,3.441,3.4476,3.5064,3.5312,3.5469,3.658,3.7011,3.7103,3.7691,3.79,3.79,3.79,3.79,3.79,3.79,0.0,0.0,0.0,0.0,0.0,0.0,0.0,0.0,3.9469,4.0018,4.0567,4.1168,4.1298,4.1298,4.1298,4.1298,4.1298,4.1298,4.1298,4.1507,4.2094,4.2199,4.2395,4.2958,4.3023,4.3023,4.3062,4.3049,4.3049,4.3049,4.3049,4.3284,4.3886,4.3925,4.4147,4.4669,4.4695,4.4695,4.4695,4.4695,4.4695,4.4695,4.4695,4.4695,4.4695,4.4695,4.4695,4.4695,4.4695,4.4695,4.4695,4.4695,4.4695,4.4695,4.4695,4.4695,4.4695,4.4695,4.4695,4.4695,4.4695,4.4695,4.4695,0.0,0.0,0.0,0.0,0.0,0.0,0.0,0.0,0.0,0.0,0.0,0.0,0.0,0.0,3.4768,3.4768,3.4957,3.5362,3.5983,3.5443,3.5474,3.6344,3.6165,3.6146,3.6383,3.6729,3.69,0.0,0.0,3.5806,3.6002,3.4909,0.0,0.0,3.4512,3.4397,3.4397,3.4397,3.4646,3.5064,3.5234,3.5796,3.6567,3.6881,3.7273,3.7666,3.7848,3.79,3.79,3.79,3.79,3.79,3.79,0.0,0.0,0.0,0.0,0.0,3.8476,0.0,0.0,0.0,0.0,0.0,4.1168,4.1298,4.1298,4.1298,4.1298,4.1298,4.1298,4.1298,4.1507,4.2094,4.2199,4.2539,4.3507,4.365,4.3794,4.4185,4.4225,4.4225,4.4225,4.4225,4.4303,4.4473,4.4473,4.4538,4.4695,4.4695,4.4695,4.4695,4.4695,4.4695,4.4695,4.4695,4.4695,4.4695,4.4695,4.4695,4.4695,4.4695,4.4695,4.4695,4.4695,4.4695,4.4695,4.4695,4.4695,4.4695,4.4695,4.4695,4.4695,4.4695,4.4695,4.4817,0.0,0.0,0.0,0.0,0.0,0.0,0.0,0.0,0.0,0.0,0.0,0.0,0.0,0.0,0.0,3.4397,3.4397,3.4613,3.5124,3.4675,3.4799,3.5659,3.5345,3.5325,3.5689,3.5793,3.5859,3.5859,3.5383,3.5165,3.5155,3.4634,0.0,0.0,0.0,0.0,0.0,0.0,3.4972,3.5312,3.5534,3.6188,3.7037,3.7286,3.7588,3.79,3.79,3.79,3.79,3.79,3.79,3.79,3.79,3.8057,0.0,0.0,0.0,0.0,0.0,0.0,0.0,4.0318,0.0,0.0,4.132,4.1621,4.182,4.1386,4.1298,4.1298,4.1298,4.1298,4.1507,4.2094,4.2199,4.2604,4.3742,4.4095,4.4356,4.4656,4.4695,4.4695,4.4695,4.4695,4.4695,4.4695,4.4695,4.4695,4.4695,4.4695,4.4695,4.4695,4.4695,4.4695,4.4695,4.4695,4.4695,4.4695,4.4695,4.4695,4.4695,4.4695,4.4695,4.4695,4.4695,4.4695,4.4695,4.4695,4.4695,4.4695,4.4695,4.4695,4.4695,4.4695,4.4992,4.5502,0.0,0.0,0.0,0.0,0.0,0.0,0.0,0.0,0.0,0.0,0.0,0.0,0.0,0.0,0.0,0.0,3.4397,3.4397,3.4397,3.4397,3.4758,3.5518,3.4819,3.4768,3.5538,3.4809,3.4397,3.4397,3.4397,3.4397,3.4397,3.4397,0.0,0.0,0.0,0.0,0.0,3.5038,3.5325,3.543,3.5979,3.6567,3.7168,3.7704,3.79,3.79,3.79,3.79,3.79,3.79,3.7939,3.7991,3.7991,3.8359,3.8803,3.8803,3.9221,0.0,0.0,0.0,0.0,4.0819,4.1906,0.0,4.1844,4.2321,4.2707,4.182,4.1634,4.1634,4.1634,4.1634,4.1805,4.2357,4.2489,4.2861,4.3782,4.4411,4.4765,4.4708,4.4803,4.4844,4.4708,4.4695,4.4695,4.4695,4.4695,4.4695,4.4695,4.4695,4.4695,4.4695,4.4695,4.4695,4.4695,4.4695,4.4695,4.4695,4.4695,4.4695,4.4695,4.4695,4.4695,4.4695,4.4695,4.4695,4.4695,4.4695,4.4695,4.4695,4.4695,4.4695,4.4695,4.4695,4.5422,4.6413,0.0,0.0,0.0,0.0,0.0,0.0,0.0,0.0,0.0,0.0,0.0,0.0,0.0,0.0,0.0,0.0,3.4397,3.4397,3.4397,3.4397,3.4481,3.4644,3.4491,3.4481,3.4644,3.4491,3.4397,3.4397,3.4397,3.4397,3.4397,3.4397,0.0,0.0,0.0,0.0,0.0,3.5038,3.5547,3.6005,3.6593,3.7194,3.7743,3.7861,3.79,3.79,3.79,3.79,3.79,3.79,3.8187,3.8542,3.8542,3.8947,3.9417,3.9417,3.9809,4.0423,0.0,0.0,4.2531,4.3344,4.3781,0.0,4.376,4.3878,4.3947,4.376,4.3713,4.3713,4.3713,4.3713,4.3755,4.3865,4.4295,4.4455,4.3967,4.473,4.518,4.4751,4.5515,4.5702,4.479,4.4695,4.4695,4.4695,4.4695,4.4695,4.4695,4.4695,4.4695,4.4695,4.4695,4.4695,4.4695,4.4695,4.4695,4.4695,4.4695,4.4695,4.4695,4.4695,4.4695,4.4695,4.4695,4.4695,4.4695,4.4695,4.4695,4.4695,4.4695,4.4695,4.4695,4.4695,4.5422,4.6531,0.0,0.0,0.0,0.0,0.0,0.0,0.0,0.0,0.0,0.0,0.0,0.0,0.0,0.0,0.0,0.0,0.0,0.0,0.0,3.4397,3.4397,3.4397,3.4397,3.4397,3.4397,3.4397,3.4397,3.4397,3.4397,3.4397,3.4397,3.4397,3.4397,0.0,0.0,0.0,3.4881,3.5456,3.6031,3.658,3.6881,3.7364,3.79,3.79,3.79,3.79,3.79,3.79,3.7941,3.8202,3.8476,3.8751,3.9051,3.9535,4.0005,4.0005,4.0749,4.1707,4.22,4.2944,4.3664,4.4172,4.4684,0.0,0.0,4.4696,4.49,4.4406,4.4301,4.4301,4.4301,4.4301,4.4301,4.4301,4.4554,4.4691,4.4574,4.5528,4.6149,4.5872,4.665,4.6971,4.6399,4.6347,4.6124,4.5595,4.5555,4.5288,4.4722,4.4695,4.4695,4.4695,4.4695,4.4695,4.4695,4.4695,4.4695,4.4695,4.4695,4.4695,4.4695,4.4695,4.4695,4.4695,4.4695,4.4695,4.4695,4.4695,4.5033,4.5489,4.4925,4.4695,4.4695,4.4695,4.5422,4.6478,3.412,0.0,0.0,0.0,0.0,0.0,0.0,0.0,0.0,0.0,0.0,0.0,0.0,0.0,0.0,0.0,0.0,0.0,3.4397,3.4397,3.4397,3.4397,3.4397,3.4397,3.4397,3.4397,3.4397,3.4397,3.4397,3.4397,3.4397,3.4397,3.4397,3.4397,3.4397,3.4748,3.5338,3.5874,3.6449,3.7011,3.7129,3.7469,3.79,3.79,3.79,3.79,3.79,3.7965,3.8111,3.8555,3.8842,3.9103,3.96,4.0136,4.058,4.058,4.1629,4.284,4.3045,4.3817,4.4638,4.4834,4.5485,4.5883,0.0,0.0,0.0,4.5052,4.488,4.488,4.488,4.488,4.484,4.4712,4.4798,4.5011,4.5358,4.6469,4.7192,4.7012,4.765,4.8078,4.8016,4.788,4.7499,4.6751,4.6396,4.5859,4.5073,4.4817,4.4695,4.4695,4.4695,4.4695,4.4695,4.4695,4.4695,4.4695,4.4695,4.4695,4.4708,4.4938,4.5033,4.5033,4.5248,4.5342,4.5342,4.5342,4.5874,4.6609,4.5475,4.5141,4.5342,4.5342,4.6045,4.7023,3.347,3.4071,0.0,0.0,3.4397,0.0,0.0,0.0,0.0,0.0,0.0,0.0,0.0,0.0,0.0,0.0,3.4397,3.4397,3.4397,3.4397,3.4397,3.4397,3.4397,3.4397,3.4397,3.4397,3.4397,3.4397,3.4397,3.4397,3.4397,3.4397,3.4397,3.4397,3.4397,3.4748,3.5338,3.5874,3.6449,3.705,3.7575,3.7848,3.79,3.79,3.79,3.79,3.79,3.8214,3.862,3.8685,3.9365,4.0227,4.0292,4.0724,4.1207,4.1207,4.1962,4.2997,4.3888,4.4854,4.5849,4.6741,4.7055,4.711,4.6986,0.0,4.711,4.6975,0.0,4.6964,4.6964,0.0,0.0,4.617,4.6582,4.6775,4.6248,4.7325,4.7867,4.7086,4.7907,4.8398,4.8037,4.7448,4.7314,4.7785,4.6387,4.5714,4.6176,4.5261,4.4695,4.4695,4.4695,4.4695,4.4695,4.4695,4.4695,4.4695,4.4695,4.4695,4.4722,4.5741,4.6203,4.6256,4.7202,4.7637,4.7637,4.7637,4.77,4.7713,4.6621,4.679,4.7637,4.7637,4.8307,4.9243,3.3365,3.378,0.0,0.0,3.4397,3.4397,0.0,0.0,3.4397,3.4397,0.0,3.4397,3.4397,3.4397,3.4397,0.0,3.4397,3.4397,3.4397,3.4397,0.0,3.4397,3.4397,3.4397,3.4397,3.4397,3.4397,3.4397,3.4397,3.4397,3.4397,3.4397,3.4397,3.441,3.4763,3.5234,3.5796,3.6384,3.6972,3.7547,3.7808,3.79,3.79,3.79,3.79,3.7941,3.8254,3.8502,3.8803,3.9456,4.0005,4.0462,4.0815,4.1102,4.1411,4.2003,4.2876,4.3888,4.4889,4.5894,4.6774,4.7186,4.7309,4.7309,4.7309,4.7309,4.7309,4.7309,0.0,0.0,0.0,0.0,0.0,0.0,4.7119,4.7194,4.6924,4.7369,4.7733,4.775,4.8805,4.9604,4.9844,4.9606,4.9308,4.8954,4.8242,4.7689,4.7356,4.6282,4.5688,4.5688,4.5033,4.4695,4.4695,4.4695,4.4695,4.4708,4.5368,4.5688,4.5715,4.6829,4.7317,4.7343,4.7802,4.8005,4.8005,4.8005,4.8369,4.8869,4.8421,4.8157,4.8005,4.8005,4.8282,4.8671,3.2921,0.0,0.0,0.0,3.4397,3.4397,3.4397,3.4397,3.4397,3.4397,3.4397,3.4397,3.4397,3.4397,3.4397,3.4397,3.4397,3.4397,3.4397,3.4397,3.4397,3.4397,3.4397,3.4397,3.4397,3.4397,3.4397,3.4397,3.4397,3.4397,3.4397,3.4397,3.4489,3.4672,3.5103,3.5691,3.6384,3.6815,3.7351,3.79,3.79,3.79,3.79,3.79,3.79,3.7978,3.8514,3.8803,3.909,4.007,4.0514,4.0724,4.1168,4.1298,4.1435,4.2161,4.3105,4.4111,4.5118,4.6121,4.6964,4.7229,4.7309,4.7309,4.7309,4.7309,4.7309,4.7309,4.7309,0.0,0.0,0.0,4.7249,4.7059,0.0,4.7249,4.7044,4.7179,4.7549,4.8218,4.9411,5.0387,5.0877,5.0922,5.0676,5.0085,4.9596,4.9066,4.8469,4.7421,4.6699,4.6413,4.5609,4.5019,4.4695,4.4695,4.4857,4.5181,4.6006,4.6557,4.6881,4.7941,4.8432,4.8444,4.8743,4.8882,4.8882,4.8882,4.934,5.0037,5.0037,4.9547,4.8882,4.8882,4.8882,4.8882,3.1745,3.2806,0.0,0.0,3.4397,3.4397,3.4397,3.4397,3.4397,3.4397,3.4397,3.4397,3.4397,3.4397,3.4397,3.4397,3.4397,3.4397,3.4397,3.4397,3.4397,3.4397,3.4397,3.4397,3.4397,3.4397,3.4397,3.4397,3.4397,3.4397,3.4397,3.4397,3.4711,3.5273,3.5286,3.5926,3.6972,3.6998,3.7351,3.79,3.79,3.79,3.79,3.79,3.79,3.7978,3.8514,3.9077,3.9652,4.0214,4.0789,4.1272,4.1298,4.1298,4.1311,4.1336,4.2064,4.3081,4.4064,4.5087,4.6073,4.7051,4.7309,4.7309,4.7309,4.7309,4.7309,4.7309,4.7309,4.7309,4.7309,4.7309,4.7089,0.0,4.6879,0.0,0.0,4.6894,4.7549,4.8218,4.9411,5.0207,5.0237,5.0226,5.0495,5.1099,4.9595,4.8892,4.9521,4.8519,4.7471,4.6426,4.6361,4.5821,4.4708,4.4695,4.5261,4.6348,4.6374,4.6932,4.7992,4.9057,4.9537,4.9613,5.0653,5.1097,5.1097,5.1097,5.112,5.1155,5.1155,5.1132,5.1097,5.1097,5.1097,5.1097,0.0,0.0,0.0,3.3665,3.4162,3.4397,3.4397,3.4397,3.4397,3.4397,3.4397,3.4397,3.4397,3.4397,3.4397,3.4397,3.4397,3.4397,3.4397,3.4397,3.4397,3.4397,3.4397,3.4397,3.4397,3.4397,3.4397,3.4397,3.4397,3.4397,3.441,3.4803,3.5103,3.5325,3.6083,3.6645,3.7037,3.7429,3.7717,3.79,3.79,3.79,3.79,3.79,3.8111,3.8514,3.909,3.9652,4.0214,4.0802,4.1129,4.1298,4.1298,4.1298,4.1436,4.2101,4.2539,4.3163,4.4843,4.5542,4.604,4.7051,4.7309,4.7309,4.7309,4.7309,4.7309,4.7309,4.7309,4.7309,4.7309,4.7309,4.7234,0.0,0.0,4.7223,0.0,4.7164,4.7373,4.7608,4.8416,4.9273,5.0117,5.0207,5.0476,5.1146,5.0647,5.0428,5.0639,4.8968,4.7827,4.7471,4.6045,4.5449,4.5821,4.5834,4.6373,4.7472,4.8183,4.871,4.9106,5.017,5.0653,5.0677,5.105,5.1191,5.1191,5.1191,5.1191,5.1191,5.1191,5.1472,5.1801,5.1367,5.1487,5.1932,2.9014,3.0023,3.1368,3.2885,3.3846,3.4397,3.4397,3.4397,3.4397,3.4397,3.4397,3.4397,3.4397,3.4397,3.4397,3.4397,3.4397,3.4397,3.4397,3.4397,3.4397,3.4397,3.4397,3.4397,3.4397,3.4397,3.4397,3.4397,3.4397,3.4397,3.441,3.5012,3.5391,3.5626,3.658,3.7116,3.7351,3.7732,3.79,3.79,3.79,3.79,3.79,3.79,3.824,3.8777,3.9378,3.994,4.0488,4.1102,4.1298,4.1298,4.1298,4.1298,4.1436,4.2077,4.2514,4.3163,4.482,4.5531,4.604,4.7051,4.7309,4.7309,4.7309,4.7309,4.7309,4.7309,4.7309,4.7309,4.7309,4.7309,4.7309,0.0,0.0,4.7309,0.0,4.7309,4.7309,4.7309,4.7889,4.8727,4.9781,5.0069,5.0476,5.1146,5.1191,5.1191,5.1191,4.9523,4.8382,4.8017,4.6242,4.5648,4.6387,4.64,4.7139,4.8583,4.9266,4.9795,5.0196,5.0881,5.1337,5.1561,5.1561,5.1681,5.1905,5.1905,5.1905,5.1905,5.1905,5.2172,5.2471,5.1801,5.1977,5.2648,2.8313,2.9203,3.047,3.2056,3.3437,3.4356,3.4387,3.4397,3.4397,3.4397,3.4397,3.4397,3.4397,3.4397,3.4397,3.4397,3.4397,3.4397,3.4397,3.4397,3.4397,3.4397,3.4397,3.4397,3.4397,3.4397,3.4397,3.4397,3.4397,3.4397,3.441,3.5038,3.5613,3.6136,3.6752,3.7364,3.79,3.79,3.79,3.79,3.79,3.79,3.79,3.7926,3.8267,3.8816,3.9391,3.9966,4.0541,4.1115,4.1298,4.1298,4.1298,4.1298,4.1298,4.1298,4.2003,4.3021,4.4031,4.5027,4.604,4.7051,4.7309,4.7309,4.7309,4.7309,4.7309,4.7309,4.7309,4.7309,4.7309,4.7309,4.7309,0.0,0.0,4.7309,4.7309,4.7309,4.7309,4.7309,4.7863,4.8513,4.9198,4.9796,5.0431,5.1101,5.1176,5.1191,5.1191,5.0184,4.9131,4.8118,4.7035,4.6505,4.6557,4.6557,4.76,4.9686,4.9686,5.0235,5.1251,5.1251,5.1621,5.2247,5.2247,5.2618,5.3198,5.3198,5.3198,5.3198,5.3198,5.3216,5.3171,5.2531,5.2695,5.3351,2.7115,2.8444,3.0297,3.2457,3.3119,3.3592,3.4291,3.4397,3.4397,3.4397,3.4397,3.4397,3.4397,3.4397,3.4397,3.4397,3.4397,3.4397,3.4397,3.4397,3.4397,3.4397,3.4397,3.4397,3.4397,3.4397,3.4397,3.4397,3.4397,3.4397,3.441,3.543,3.5966,3.6149,3.7207,3.7756,3.79,3.79,3.79,3.79,3.79,3.79,3.7941,3.8333,3.8867,3.9391,3.9535,4.0227,4.1089,4.1246,4.1298,4.1298,4.1298,4.1298,4.1298,4.1298,4.2003,4.3021,4.4031,4.5027,4.604,4.7051,4.7309,4.7309,4.7309,4.7309,4.7309,4.7309,4.7309,4.7309,4.7309,4.7309,4.7309,4.7309,4.7309,4.7309,4.7309,4.7309,4.7309,4.7309,4.7459,4.7818,4.8498,4.9146,4.9793,5.0401,5.0922,5.1191,5.1191,5.0184,4.9464,4.9192,4.8157,4.7967,4.8772,4.8784,4.9464,5.0787,5.0787,5.1194,5.1947,5.1947,5.2306,5.2932,5.2932,5.3037,5.3198,5.3198,5.3198,5.3198,5.3198,5.3501,5.3922,5.3758,5.3803,5.4042,2.6648,2.7811,2.9462,3.1437,3.2126,3.2841,3.4186,3.4397,3.4397,3.4397,3.4397,3.4397,3.4397,3.4397,3.4397,3.4397,3.4397,3.4397,3.4397,3.4397,3.4397,3.4397,3.4397,3.4397,3.4397,3.4397,3.4397,3.4397,3.4397,3.4528,3.4816,3.5691,3.6229,3.6541,3.7482,3.79,3.79,3.79,3.79,3.79,3.79,3.79,0.0,3.8501,3.9077,3.9626,3.9861,4.0528,4.1298,4.1298,4.1298,4.1298,4.1298,4.1298,4.1386,4.1819,4.2672,4.3675,4.4681,4.5692,4.6594,4.7164,4.7519,4.7743,4.7743,4.7963,4.8173,4.8173,4.8173,4.8083,4.7788,4.7743,4.7638,4.7354,4.7309,4.7309,4.7309,4.7309,4.7309,4.7309,4.7309,4.7459,4.7829,4.8738,4.955,5.0147,5.0832,5.1191,5.1191,5.0184,4.9601,4.9601,4.8276,4.8212,4.9601,4.9311,4.9855,5.1191,5.1191,5.1546,5.2202,5.2202,5.2725,5.3635,5.3635,5.38,5.4069,5.4069,5.4069,5.4069,5.4069,5.4309,5.464,5.464,5.464,5.4685,2.6758,2.75,2.8551,2.9954,3.099,3.219,3.3953,3.4324,3.4397,3.4397,3.4397,3.4397,3.4397,3.4397,3.4397,3.4397,3.4397,3.4397,3.4397,3.4397,3.4397,3.4397,3.4397,3.4397,3.4397,3.4397,3.4397,3.4397,3.4476,3.4789,3.5312,3.5926,3.6502,3.7037,3.7639,3.79,3.79,3.79,3.79,3.79,3.79,3.79,3.7978,3.8581,3.9143,3.9678,4.0292,4.0842,4.1298,4.1298,4.1298,4.1298,4.1298,4.1398,4.1671,4.2551,4.3604,4.471,4.5666,4.6668,4.7459,4.7534,4.8008,4.8438,4.8438,4.8873,4.9303,4.9303,4.9303,4.9112,4.8543,4.8438,4.8233,4.7653,4.7489,4.7429,4.7429,4.7354,4.7309,4.7309,4.7309,0.0,4.7309,4.8513,4.952,5.0039,5.0772,5.1191,5.1191,5.0316,4.9807,4.9807,4.834,4.8275,4.9781,4.9225,4.9692,5.1191,5.1191,5.1606,5.2321,5.2321,5.3069,5.4341,5.4341,5.4655,5.5207,5.5207,5.5207,5.5207,5.5207,5.5207,5.5207,5.5207,5.5207,5.5207,2.7609,2.8232,2.8994,3.0022,3.099,3.1972,3.3079,3.39,3.4397,3.4397,3.4397,3.4397,3.4397,3.4397,3.4397,3.4397,3.4397,3.4397,3.4397,3.4397,3.4397,3.4397,3.4397,3.4397,3.4397,3.4397,3.4397,3.4397,3.4894,3.5205,3.5325,3.6358,3.6907,3.7037,3.7639,3.79,3.79,3.79,3.79,3.79,3.79,3.79,3.8006,3.905,3.9508,3.9731,4.0776,4.1207,4.1298,4.1298,4.1298,4.1298,4.1298,4.1868,4.2575,4.2744,4.4097,4.5691,4.6438,4.7361,4.8263,4.8813,4.9048,4.9112,4.9112,4.9213,4.9303,4.9303,4.9303,4.9258,4.9153,4.9112,4.9093,4.8962,4.8498,4.8128,4.8128,4.7653,4.7309,4.7309,4.7309,4.7309,4.7309,4.8513,4.9348,4.9456,5.0529,5.1191,5.1191,5.1026,5.0917,5.0917,5.0621,5.0606,5.0917,5.0798,5.0907,5.1191,5.1191,5.1843,5.3022,5.3022,5.3755,5.5014,5.5014,5.5102,5.5207,5.5207,5.5207,5.5207,5.5207,5.5207,5.5207,5.5207,5.5207,5.5207,2.832,2.8616,2.9105,3.0034,3.099,3.1917,3.2862,3.3805,3.4397,3.4397,3.4397,3.4397,3.4397,3.4397,3.4397,3.4397,3.4397,3.4397,3.4397,3.4397,3.4397,3.4397,3.4397,3.4397,3.4397,3.4397,3.4397,3.4397,3.4999,3.5443,3.573,3.6606,3.7168,3.7482,3.7771,3.79,3.79,3.79,3.79,3.79,3.79,3.807,3.841,3.926,3.977,4.0123,4.0998,4.1298,4.1298,4.1298,4.1298,4.1298,4.1298,4.199,4.2967,4.3848,4.514,4.6583,4.7768,4.845,4.8902,4.9228,4.9535,4.9778,4.9778,5.0032,5.0298,5.0298,5.0298,5.0182,4.9838,4.9505,4.9303,4.9303,4.9033,4.8813,4.8813,4.8543,4.8338,4.8338,4.8338,4.8338,4.8338,4.9194,4.964,4.9318,5.0481,5.1191,5.1191,5.1191,5.1191,5.1191,5.0862,5.0847,5.1191,5.0862,5.0862,5.1191,5.1191,5.1902,5.3198,5.3198,5.392,5.5207,5.5207,5.5207,5.5207,5.5207,5.5207,5.5207,5.5207,5.5207,5.5207,5.5207,5.5207,5.5207,2.8825,2.8803,2.9105,3.0034,3.099,3.1917,3.2862,3.3805,3.4397,3.4397,3.4397,3.4397,3.4397,3.4397,3.4397,3.4397,3.4397,3.4397,3.4397,3.4397,3.4397,3.4397,3.4397,3.4397,3.4397,3.4397,3.4463,3.458,3.5182,3.5757,3.6294,3.692,3.7442,3.79,3.79,3.79,3.79,3.79,3.79,3.79,3.79,3.8215,3.8776,3.9365,3.9927,4.0488,4.1089,4.1298,4.1349,4.1717,4.174,4.1635,4.1792,4.2668,4.3946,4.5394,4.6537,4.7649,4.9103,4.9501,4.9531,4.9666,5.0051,5.0416,5.0416,5.0832,5.1191,5.1191,5.1191,5.1041,5.0506,5.0017,4.9696,4.9696,4.958,4.9501,4.9501,4.9381,4.9303,4.9303,4.9303,4.9303,4.9303,4.9856,4.9994,4.952,5.0544,5.1097,5.087,5.1085,5.1097,5.087,5.0566,5.0667,5.1191,5.0682,5.0682,5.1191,5.1191,5.1902,5.3198,5.3198,5.392,5.5207,5.5207,5.5207,5.5207,5.5207,5.5207,5.5207,5.5207,5.5207,5.5207,5.5207,5.5207,5.5207,2.8879,2.8803,2.9105,3.0034,3.099,3.1917,3.2862,3.3805,3.4397,3.4397,3.4397,3.4397,3.4397,3.4397,3.4397,3.4397,3.4397,3.4397,3.4397,3.4397,3.4397,3.4397,3.4397,3.4397,3.4397,3.4397,3.4672,3.5221,3.5757,3.6321,3.6933,3.7534,3.7848,3.79,3.79,3.79,3.79,3.79,3.79,3.79,3.79,3.8215,3.8776,3.9365,3.9927,4.0488,4.1089,4.1298,4.1527,4.3051,4.3169,4.2767,4.3371,4.4869,4.659,4.7343,4.8278,4.9224,4.9927,5.0117,5.0263,5.0873,5.1068,5.1101,5.1101,5.1146,5.1191,5.1191,5.1191,5.1187,5.1128,5.1068,5.1023,5.1023,5.0503,5.0117,5.0117,4.964,4.9303,4.9303,4.9303,4.9303,4.9303,4.9856,5.0177,5.0117,5.0787,5.0787,4.9795,5.0665,5.0748,4.9783,5.063,5.1131,5.1191,5.1131,5.1131,5.1191,5.1191,5.1902,5.3198,5.3198,5.392,5.5207,5.5207,5.5207,5.5207,5.5207,5.5207,5.5207,5.5207,5.5207,5.5207,5.5207,5.5207,5.5207,2.8891,2.8803,2.9267,3.0778,3.1345,3.2103,3.3613,3.4155,3.4397,3.4397,3.4397,3.4397,3.4397,3.4397,3.4397,3.4397,3.4397,3.4397,3.4397,3.4397,3.4397,3.4397,3.4397,3.4397,3.4397,3.4397,3.4698,3.5299,3.5835,3.641,3.7011,3.7625,3.79,3.79,3.79,3.79,3.79,3.79,3.79,3.79,3.79,3.8449,3.926,3.9508,4.0162,4.1024,4.1624,4.1833,4.2089,4.3728,4.3886,4.3628,4.4903,4.6269,4.7535,4.821,4.9082,4.9976,5.0622,5.0802,5.0862,5.1131,5.1191,5.1191,5.1191,5.1191,5.1191,5.1191,5.1191,5.1191,5.1191,5.1191,5.1191,5.1191,5.0981,5.0802,5.0802,5.0589,5.0436,5.0436,5.0436,5.0436,5.0436,5.0664,5.0802,5.0802,5.1041,5.0999,5.0582,5.0979,5.0999,5.057,5.0991,5.1191,5.1191,5.1191,5.1191,5.1191,5.1191,5.1902,5.3198,5.3198,5.392,5.5207,5.5207,5.5207,5.5207,5.5207,5.5207,5.5207,5.5207,5.5207,5.5207,5.5207,5.5207,5.5207,2.8869,2.8803,2.9394,3.1267,3.1599,3.2234,3.4113,3.4397,3.4397,3.4397,3.4397,3.4397,3.4397,3.4397,3.4397,3.4397,3.4397,3.4397,3.4397,3.4397,3.4397,3.4397,3.4397,3.4397,3.4397,3.4397,3.4776,3.5545,3.5913,3.6502,3.7273,3.7704,3.79,3.79,3.79,3.79,3.79,3.79,3.79,3.79,3.79,3.8581,3.96,3.96,4.0422,4.1625,4.2055,4.2304,4.2731,4.4688,4.508,4.5029,4.6534,4.7699,4.8638,4.9307,4.9972,5.0596,5.1071,5.1191,5.1191,5.1191,5.1191,5.1191,5.1191,5.1191,5.1191,5.1191,5.1191,5.1191,5.1191,5.1191,5.1191,5.1191,5.1191,5.1191,5.1191,5.1191,5.1191,5.1191,5.1191,5.1191,5.1191,5.1191,5.1191,5.1191,5.0905,5.0739,5.0739,5.1038,5.1061,5.0751,5.105,5.1191,5.1191,5.1191,5.1191,5.1191,5.1191,5.1902,5.3213,5.3605,5.4294,5.5207,5.5207,5.5207,5.5207,5.5207,5.5207,5.5207,5.5207,5.5207,5.5207,5.5207,5.5207,5.5207,2.8803,2.8803,2.9394,3.1267,3.1599,3.2234,3.4113,3.4397,3.4397,3.4397,3.4397,3.4397,3.4397,3.4397,3.4397,3.4397,3.4397,3.4397,3.4397,3.4397,3.4397,3.4397,3.4397,3.4397,3.4397,3.4397,3.4959,3.6096,3.6109,3.6711,3.79,3.79,3.79,3.79,3.79,3.79,3.79,3.79,3.79,3.79,3.79,3.8581,3.96,3.96,4.0683,4.2199,4.2199,4.2539,4.3413,4.6145,4.7063,4.7248,4.8334,4.9351,5.03,5.097,5.1191,5.1191,5.1191,5.1191,5.1191,5.1191,5.1191,5.1191,5.1191,5.1191,5.1191,5.1191,5.1191,5.1191,5.1191,5.1191,5.1191,5.1191,5.1191,5.1191,5.1191,5.1191,5.1191,5.1191,5.1191,5.1191,5.1191,5.1191,5.1191,5.1191,5.022,4.9625,4.9625,5.0618,5.0701,4.9647,5.0641,5.1191,5.1191,5.1191,5.1191,5.1191,5.1191,5.1902,5.3231,5.4578,5.5179,5.5207,5.5207,5.5207,5.5207,5.5207,5.5207,5.5207,5.5207,5.5207,5.5207,5.5207,5.5207,5.5207,2.8803,2.8803,2.9394,3.1267,3.1599,3.2234,3.4113,3.4397,3.4397,3.4397,3.4397,3.4397,3.4397,3.4397,3.4397,3.4397,3.4397,3.4397,3.4397,3.4397,3.4397,3.4397,3.4397,3.4397,3.4397,3.4803,3.5365,3.6109,3.6504,3.7116,3.79,3.79,3.79,3.79,3.79,3.79,3.79,3.79,3.79,3.79,3.79,3.8803,4.0149,4.0149,4.1233,4.2801,4.3219,4.3939,4.5007,4.7021,4.8198,4.8988,5.0079,5.0628,5.0922,5.1131,5.1191,5.1191,5.1191,5.1191,5.1191,5.1191,5.1191,5.1191,5.1191,5.1191,5.1191,5.1191,5.1191,5.1191,5.1191,5.1191,5.1191,5.1191,5.1191,5.1191,5.1191,5.1191,5.1191,5.1191,5.1191,5.1191,5.1191,5.0546,5.04,5.1144,4.9535,4.8832,4.955,4.9917,4.9941,4.9613,5.0641,5.1191,5.1191,5.1191,5.1191,5.1217,5.1666,5.2591,5.3907,5.479,5.5207,5.5207,5.5207,5.5207,5.5207,5.5207,5.5207,5.5207,5.5207,5.5207,5.5207,5.5207,5.5207,5.5207,2.9256,2.9336,2.992,3.1797,3.2125,3.2647,3.4165,3.4397,3.4397,3.4397,3.4397,3.4397,3.4397,3.4397,3.4397,3.4397,3.4397,3.4397,3.4397,3.4397,3.4397,3.4397,3.4397,3.4502,3.4724,3.5103,3.5678,3.6449,3.7039,3.7534,3.79,3.79,3.79,3.79,3.79,3.79,3.79,3.79,3.79,3.7926,3.8111,3.9077,4.0411,4.0658,4.1821,4.3441,4.423,4.5071,4.6117,4.7979,4.9057,4.9795,5.0858,5.1191,5.1191,5.1191,5.1191,5.1191,5.1191,5.1191,5.1191,5.1191,5.1191,5.1191,5.1191,5.1191,5.1191,5.1191,5.1191,5.1191,5.1191,5.1191,5.1191,5.1191,5.1191,5.1191,5.1191,5.1191,5.1191,5.1191,5.1191,5.105,5.063,4.9989,4.9708,4.9974,4.8756,4.8294,4.897,4.9378,4.9783,5.0184,5.0858,5.1191,5.1191,5.1191,5.1191,5.1206,5.2127,5.3144,5.4224,5.4895,5.5207,5.5207,5.5207,5.5207,5.5207,5.5207,5.5207,5.5207,5.5207,5.5207,5.5207,5.5207,5.5207,5.5207,3.0034,3.0249,3.0866,3.2679,3.2991,3.3314,3.4259,3.4397,3.4397,3.4397,3.4397,3.4397,3.4397,3.4397,3.4397,3.4397,3.4397,3.4397,3.4397,3.4397,3.4397,3.4397,3.4437,3.4735,3.5286,3.5378,3.5966,3.7063,3.7625,3.79,3.79,3.79,3.79,3.79,3.79,3.79,3.79,3.79,3.79,3.7952,3.8476,3.9404,4.0528,4.1129,4.2435,4.4097,4.5172,4.5964,4.6829,4.8896,4.9649,4.988,5.0893,5.1191,5.1191,5.1191,5.1191,5.1191,5.1191,5.1191,5.1191,5.1191,5.1191,5.1191,5.1191,5.1191,5.1191,5.1191,5.1191,5.1191,5.1191,5.1191,5.1191,5.1191,5.1161,5.1131,5.1131,5.1131,5.1131,5.1131,5.1102,5.0689,4.9698,4.9464,4.8995,4.808,4.7927,4.7954,4.8105,4.9057,5.0064,5.1061,5.1155,5.1191,5.1191,5.1191,5.1251,5.1352,5.2603,5.3575,5.4284,5.4922,5.5207,5.5207,5.5207,5.5207,5.5207,5.5207,5.5207,5.5207,5.5207,5.5207,5.5207,5.5207,5.5207,5.5207,3.0159,3.0778,3.1632,3.2798,3.2991,3.3314,3.4259,3.4397,3.4397,3.4397,3.4397,3.4397,3.4397,3.4397,3.4397,3.4397,3.4397,3.4397,3.4397,3.4397,3.4397,3.4397,3.4842,3.5155,3.5299,3.6149,3.6959,3.7691,3.7835,3.79,3.79,3.79,3.79,3.79,3.79,3.79,3.79,3.79,3.79,3.7952,3.8476,3.9665,4.1155,4.1755,4.3049,4.4661,4.5778,4.6809,4.7815,4.9143,5.0148,5.087,5.112,5.1191,5.1191,5.1191,5.1191,5.1191,5.1191,5.1191,5.1191,5.1191,5.1191,5.1191,5.1191,5.1191,5.1191,5.1191,5.1191,5.1191,5.1191,5.1191,5.1191,5.1191,5.0772,5.0431,5.0431,5.0431,5.0431,5.0431,5.0165,4.988,4.9611,4.8121,4.7395,4.7967,4.7241,4.7485,4.9131,4.9464,4.9722,4.9965,5.076,5.1191,5.1191,5.1191,5.1711,5.2722,5.3052,5.3815,5.4982,5.5132,5.5207,5.5207,5.5207,5.5207,5.5207,5.5207,5.5207,5.5207,5.5207,5.5207,5.5207,5.5207,5.5207,5.5207,3.1311,3.1884,3.255,3.3486,3.3634,3.3816,3.4324,3.4397,3.4397,3.4397,3.4397,3.4397,3.4397,3.4397,3.4397,3.4397,3.4397,3.4397,3.4397,3.4397,3.4515,3.4789,3.5129,3.5534,3.607,3.6673,3.7299,3.79,3.79,3.79,3.79,3.79,3.79,3.79,3.79,3.79,3.79,3.79,3.8032,3.8331,3.8881,4.0161,4.1768,4.2356,4.3441,4.4912,4.6556,4.751,4.8244,4.9805,5.0713,5.1191,5.1191,5.1191,5.1191,5.1191,5.1191,5.1191,5.1191,5.1191,5.1191,5.1191,5.1191,5.1191,5.1191,5.1191,5.1191,5.1191,5.1191,5.1191,5.1191,5.0951,5.0742,5.0742,5.0215,4.9886,5.0162,4.9781,4.9578,4.989,4.9296,4.8685,4.8183,4.7088,4.6439,4.649,4.6893,4.7651,4.8807,4.9793,5.0328,5.0328,5.0893,5.1191,5.1191,5.1502,5.2172,5.3198,5.3516,5.4204,5.5207,5.5207,5.5207,5.5207,5.5207,5.5207,5.5207,5.5207,5.5207,5.5207,5.5207,5.5207,5.5207,5.5207,5.5207,5.5207,3.269,3.3111,3.3465,3.4259,3.4397,3.4397,3.4397,3.4397,3.4397,3.4397,3.4397,3.4397,3.4397,3.4397,3.4397,3.4397,3.4397,3.4397,3.4397,3.4397,3.4672,3.5273,3.5378,3.5913,3.6985,3.709,3.739,3.79,3.79,3.79,3.79,3.79,3.79,3.79,3.79,3.79,3.79,3.79,3.8202,3.8764,3.9443,4.0722,4.2277,4.2905,4.3887,4.5221,4.7266,4.8105,4.8532,5.0531,5.1191,5.1191,5.1191,5.1131,5.1041,5.1041,5.0978,5.0963,5.1158,5.1191,5.1191,5.1191,5.1191,5.1191,5.1191,5.1191,5.1191,5.1191,5.1191,5.1161,5.1071,5.0581,5.0177,5.0084,4.964,4.9415,4.9758,4.9116,4.8755,4.915,4.8352,4.7408,4.6491,4.623,4.5741,4.4762,4.6595,4.7827,4.7992,4.9878,5.1038,5.1191,5.1191,5.1191,5.1191,5.1861,5.2543,5.3213,5.3877,5.4551,5.5207,5.5207,5.5207,5.5207,5.5207,5.5207,5.5207,5.5207,5.5207,5.5207,5.5207,5.5207,5.5207,5.5207,5.5207,5.5207,3.2938,3.3634,3.4228,3.4377,3.4397,3.4397,3.4397,3.4397,3.4397,3.4397,3.4397,3.4397,3.4397,3.4397,3.4397,3.4397,3.4397,3.4397,3.4397,3.4397,3.4672,3.5273,3.573,3.6305,3.6985,3.7495,3.7808,3.79,3.79,3.79,3.79,3.79,3.79,3.79,3.79,3.79,3.79,3.79,3.8202,3.879,3.9848,4.105,4.2304,4.3363,4.4745,4.6295,4.7548,4.8583,4.9537,5.0772,5.1191,5.1191,5.1191,5.0817,5.0357,5.0357,4.9991,4.9831,5.0903,5.1191,5.1191,5.1191,5.1191,5.1191,5.1191,5.1191,5.1191,5.1191,5.1191,5.1026,5.0461,5.0267,5.0024,4.952,4.9363,4.8997,4.8129,4.8349,4.8305,4.7502,4.6949,4.6583,4.6413,4.5529,4.4898,4.4708,4.5914,4.7035,4.7954,4.918,5.0268,5.1167,5.1191,5.1191,5.1191,5.1861,5.2543,5.3213,5.3877,5.4551,5.5207,5.5207,5.5207,5.5207,5.5207,5.5207,5.5207,5.5207,5.5207,5.5207,5.5207,5.5207,5.5207,5.5207,5.5207,5.5207,3.3645,3.4102,3.4397,3.4397,3.4397,3.4397,3.4397,3.4397,3.4397,3.4397,3.4397,3.4397,3.4397,3.4397,3.4397,3.4397,3.4397,3.4397,3.4397,3.4397,3.4789,3.5691,3.5966,3.6541,3.7457,3.7756,3.79,3.79,3.79,3.79,3.79,3.79,3.79,3.79,3.79,3.79,3.7926,3.8202,3.8659,3.9286,4.0436,4.1598,4.2787,4.4227,4.5442,4.6622,4.8271,4.918,4.9759,5.0846,5.0966,5.0656,5.0656,5.023,4.9718,4.9718,4.9748,4.9916,5.0503,5.0922,5.1191,5.1191,5.1191,5.1191,5.1191,5.1191,5.1101,5.0742,5.0656,5.0473,4.9838,4.9407,4.909,4.8813,4.8289,4.7828,4.7637,4.7172,4.6829,4.6696,4.5962,4.5475,4.5475,4.5006,4.4695,4.4695,4.5755,4.6881,4.7941,4.902,5.01,5.1167,5.1191,5.1382,5.1741,5.2396,5.3082,5.3743,5.4416,5.4895,5.5207,5.5207,5.5207,5.5207,5.5207,5.5207,5.5207,5.5207,5.5207,5.5207,5.5207,5.5207,5.5207,5.5207,5.5207,5.5207,3.4259,3.4397,3.4397,3.4397,3.4397,3.4397,3.4397,3.4397,3.4397,3.4397,3.4397,3.4397,3.4397,3.4397,3.4397,3.4397,3.4397,3.4397,3.4397,3.4397,3.4907,3.6057,3.6371,3.6948,3.7887,3.79,3.79,3.79,3.79,3.79,3.79,3.79,3.79,3.79,3.79,3.79,3.7939,3.8463,3.9051,3.9704,4.0985,4.2261,4.353,4.5115,4.6317,4.7371,4.9007,4.9759,5.01,5.0917,5.0757,5.0207,5.0207,4.9677,4.9078,4.9078,4.94,4.9785,4.9949,5.0365,5.0784,5.0922,5.0858,5.0799,5.0936,5.0858,5.0604,5.0099,4.9994,4.9796,4.9172,4.8648,4.8182,4.7781,4.7266,4.6896,4.6886,4.6154,4.5729,4.5979,4.5234,4.4695,4.4695,4.4695,4.4695,4.4695,4.5515,4.6595,4.7929,4.8782,4.9832,5.1155,5.1191,5.1517,5.2187,5.2857,5.3545,5.4209,5.488,5.5207,5.5207,5.5207,5.5207,5.5207,5.5207,5.5207,5.5207,5.5207,5.5207,5.5207,5.5207,5.5207,5.5207,5.5207,5.5207,5.5207,3.4387,3.4397,3.4397,3.4397,3.4397,3.4397,3.4397,3.4397,3.4397,3.4397,3.4397,3.4397,3.4397,3.4397,3.4397,3.4397,3.4397,3.4397,3.4397,3.4397,3.4907,3.6057,3.7168,3.7808,3.79,3.79,3.79,3.79,3.79,3.79,3.79,3.79,3.79,3.79,3.79,3.79,3.7939,3.8463,3.9051,3.9744,4.1441,4.3086,4.4616,4.5872,4.7597,4.9378,4.9537,5.0244,5.1097,5.1167,5.0757,5.0207,5.0207,4.9363,4.8368,4.8368,4.8412,4.8577,4.9202,4.9396,4.9565,5.0129,4.9853,4.9591,5.0144,4.9838,4.9438,4.9378,4.9366,4.9157,4.8498,4.8323,4.7792,4.6237,4.685,4.6888,4.4993,4.565,4.5952,4.4939,4.4749,4.4695,4.4695,4.4695,4.4695,4.4695,4.4776,4.5754,4.7891,4.808,4.9053,5.1132,5.1191,5.1517,5.2187,5.2857,5.3545,5.4209,5.488,5.5207,5.5207,5.5207,5.5207,5.5207,5.5207,5.5207,5.5207,5.5207,5.5207,5.5207,5.5207,5.5207,5.5207,5.5207,5.5207,5.5207,3.4397,3.4397,3.4397,3.4397,3.4397,3.4397,3.4397,3.4397,3.4397,3.4397,3.4397,3.4397,3.4397,3.4397,3.4397,3.4397,3.4397,3.4397,3.4397,3.4397,3.4907,3.6057,3.726,3.79,3.79,3.79,3.79,3.79,3.79,3.79,3.79,3.79,3.79,3.79,3.79,3.79,3.7965,3.8868,3.9391,3.9783,4.186,4.3457,4.4791,4.6682,4.8308,4.9686,5.0352,5.0579,5.0592,5.0592,4.989,4.9019,4.9019,4.8401,4.7683,4.7683,4.7683,4.7743,4.7993,4.8663,4.9363,4.958,4.9471,4.9363,4.9595,4.9456,4.9172,4.8768,4.8678,4.8472,4.7803,4.7163,4.6533,4.5901,4.5725,4.5402,4.4606,4.4992,4.5194,4.4749,4.4695,4.4695,4.4695,4.4695,4.4979,4.5702,4.5741,4.6699,4.8884,4.962,5.0364,5.1167,5.1606,5.2142,5.2812,5.3501,5.4162,5.482,5.5087,5.5207,5.5207,5.5207,5.5207,5.5207,5.5207,5.5207,5.5207,5.5207,5.5207,5.5207,5.5207,5.5207,5.5207,5.5207,5.5207,5.5147,3.4397,3.4397,3.4397,3.4397,3.4397,3.4397,3.4397,3.4397,3.4397,3.4397,3.4397,3.4397,3.4397,3.4397,3.4397,3.4397,3.4397,3.4397,3.4397,3.458,3.5103,3.6057,3.7077,3.7704,3.79,3.79,3.79,3.79,3.79,3.79,3.79,3.79,3.79,3.79,3.79,3.79,3.7978,3.9117,3.96,3.9832,4.2476,4.4179,4.5379,4.7639,4.9038,4.9876,5.0631,5.0473,4.9931,4.9931,4.9209,4.8293,4.8293,4.7844,4.7309,4.7309,4.7309,4.7309,4.7309,4.7978,4.8723,4.8932,4.8828,4.8723,4.8932,4.8813,4.8543,4.8083,4.7993,4.7756,4.6973,4.6266,4.5656,4.5217,4.4775,4.4459,4.4331,4.4534,4.4695,4.4695,4.4695,4.4695,4.4695,4.4695,4.5167,4.6308,4.64,4.7345,4.9491,5.0618,5.1307,5.1517,5.2157,5.2842,5.3516,5.3967,5.4536,5.5207,5.5207,5.5207,5.5207,5.5207,5.5207,5.5207,5.5207,5.5207,5.5207,5.5207,5.5207,5.5207,5.5207,5.5207,5.5207,5.5207,5.5072,5.482,3.4397,3.4397,3.4397,3.4397,3.4397,3.4397,3.4397,3.4397,3.4397,3.4397,3.4397,3.4397,3.4397,3.4397,3.4397,3.4397,3.4397,3.4397,3.4397,3.4959,3.5534,3.607,3.6684,3.7286,3.79,3.79,3.79,3.79,3.79,3.79,3.79,3.79,3.79,3.79,3.79,3.79,3.7978,3.9117,3.96,3.9916,4.3326,4.5345,4.6532,4.8751,4.9833,5.0192,5.0192,4.9796,4.9288,4.9288,4.8843,4.8293,4.8293,4.7844,4.7309,4.7309,4.7309,4.7309,4.7309,4.7309,4.7459,4.8128,4.7788,4.7474,4.8143,4.7784,4.7309,4.7309,4.7309,4.6997,4.5995,4.579,4.5333,4.3925,4.4139,4.4354,4.3953,4.4369,4.4695,4.4695,4.4695,4.4695,4.4695,4.4695,4.5181,4.6321,4.6426,4.7371,4.9501,5.0632,5.1517,5.2172,5.2857,5.353,5.4194,5.4221,5.4536,5.5207,5.5207,5.5207,5.5207,5.5207,5.5207,5.5207,5.5207,5.5207,5.5207,5.5207,5.5207,5.5207,5.5207,5.5207,5.5192,5.5192,5.476,5.4194,3.4397,3.4397,3.4397,3.4397,3.4397,3.4397,3.4397,3.4397,3.4397,3.4397,3.4397,3.4397,3.4397,3.4397,3.4397,3.4397,3.4397,3.4397,3.4397,3.4567,3.4933,3.5508,3.6488,3.7286,3.79,3.79,3.79,3.79,3.79,3.79,3.79,3.79,3.79,3.79,3.79,3.79,3.7978,3.9117,4.0015,4.0896,4.3558,4.5436,4.6826,4.8316,4.9181,4.9565,4.9565,4.9146,4.8603,4.8603,4.8143,4.7593,4.7593,4.7459,4.7309,4.7309,4.7309,4.7309,4.7309,4.7309,4.7354,4.7549,4.7459,4.7354,4.7549,4.7444,4.7309,4.7309,4.7309,4.6997,4.5995,4.5224,4.4521,4.3816,4.3564,4.3545,4.386,4.4369,4.4695,4.4695,4.4695,4.4695,4.4695,4.4695,4.5475,4.7382,4.8919,5.0049,5.0689,5.147,5.1992,5.2187,5.3309,5.3997,5.4194,5.467,5.4999,5.5207,5.5207,5.5207,5.5207,5.5207,5.5207,5.5207,5.5207,5.5207,5.5207,5.5207,5.5207,5.5207,5.5207,5.491,5.4506,5.4506,5.4072,5.3426,3.4397,3.4397,3.4397,3.4397,3.4397,3.4397,3.4397,3.4397,3.4397,3.4397,3.4397,3.4397,3.4397,3.4397,3.4397,3.4397,3.4397,3.4397,3.4397,3.4397,3.4672,3.5273,3.6162,3.6933,3.7534,3.7782,3.79,3.79,3.79,3.79,3.79,3.79,3.79,3.79,3.79,3.79,3.8001,3.9537,4.0529,4.1356,4.4293,4.5993,4.6939,4.8342,4.8891,4.8902,4.8902,4.8472,4.7904,4.7904,4.7638,4.7309,4.7309,4.7309,4.7309,4.7309,4.7309,4.7309,4.7309,4.7309,4.7309,4.7309,4.7309,4.7309,4.7309,4.7309,4.7309,4.7309,4.7309,4.6876,4.5463,4.4705,4.4109,4.3521,4.3188,4.3284,4.4095,4.4499,4.4695,4.4695,4.4695,4.4695,4.4695,4.5114,4.6282,4.8471,5.0465,5.1606,5.1606,5.2232,5.271,5.298,5.3775,5.4341,5.4596,5.4999,5.5207,5.5207,5.5207,5.5207,5.5207,5.5207,5.5207,5.5207,5.5207,5.5207,5.5177,5.491,5.4805,5.4775,5.4518,5.4159,5.3803,5.3803,5.3369,5.2752,3.4397,3.4397,3.4397,3.4397,3.4397,3.4397,3.4397,3.4397,3.4397,3.4397,3.4397,3.4397,3.4397,3.4397,3.4397,3.4397,3.4397,3.4397,3.4397,3.4397,3.4656,3.5205,3.5796,3.6358,3.692,3.7562,3.79,3.79,3.79,3.79,3.79,3.79,3.7946,3.8013,3.8013,3.8059,3.8273,4.0356,4.1269,4.1672,4.5333,4.682,4.7032,4.8607,4.8798,4.8203,4.8203,4.7829,4.7309,4.7309,4.7309,4.7309,4.7309,4.7309,4.7309,4.7309,4.7309,4.7309,4.7309,4.7309,4.7309,4.7309,4.7309,4.7309,4.7309,4.7309,4.7309,4.7309,4.7309,4.6686,4.4673,4.4301,4.4019,4.3137,4.2997,4.3402,4.4538,4.4695,4.4695,4.4695,4.4695,4.4695,4.4695,4.5821,4.7423,4.9526,5.1254,5.2232,5.2291,5.2932,5.3545,5.4089,5.4164,5.4461,5.5012,5.5027,5.5087,5.5207,5.5207,5.5207,5.5207,5.5207,5.5177,5.5104,5.5104,5.5087,5.4982,5.4356,5.4104,5.4057,5.3441,5.3156,5.3111,5.3111,5.2692,5.2112,3.4397,3.4397,3.4397,3.4397,3.4397,3.4397,3.4397,3.4397,3.4397,3.4397,3.4397,3.4397,3.4397,3.4397,3.4397,3.4397,3.4397,3.4397,3.4397,3.4397,3.446,3.458,3.5561,3.6162,3.6292,3.7351,3.79,3.79,3.79,3.79,3.79,3.79,3.826,3.8926,3.8926,3.9323,4.0105,4.1572,4.2625,4.3507,4.5846,4.697,4.7294,4.8185,4.8098,4.7519,4.7519,4.7429,4.7309,4.7309,4.7309,4.7309,4.7309,4.7309,4.7309,4.7309,4.7309,4.7309,4.7309,4.7309,4.7309,4.7309,4.7309,4.7309,4.7309,4.7309,4.7309,4.7309,4.7309,4.6686,4.4673,4.4301,4.4019,4.3137,4.2997,4.3402,4.4538,4.4695,4.4695,4.4695,4.4695,4.4695,4.4695,4.649,4.8418,5.0248,5.1505,5.2438,5.2959,5.362,5.3803,5.3426,5.3922,5.4027,5.3648,5.362,5.4159,5.5207,5.5207,5.5207,5.5207,5.5207,5.491,5.4416,5.4416,5.4117,5.362,5.3471,5.3426,5.3396,5.3258,5.2872,5.2423,5.2423,5.1992,5.1427,3.4397,3.4397,3.4397,3.4397,3.4397,3.4397,3.4397,3.4397,3.4397,3.4397,3.4397,3.4397,3.4397,3.4397,3.4397,3.4397,3.4397,3.4397,3.4397,3.4397,3.4397,3.4397,3.5495,3.6109,3.6109,3.7286,3.79,3.79,3.79,3.79,3.7911,3.834,3.8758,3.9219,3.967,4.0138,4.0706,4.2439,4.3459,4.4076,4.6201,4.714,4.7339,4.7683,4.7608,4.7309,4.7309,4.7309,4.7309,4.7309,4.7309,4.7309,4.7309,4.7309,4.7309,4.7309,4.7309,4.7309,4.7309,4.7309,4.7309,4.7309,4.7309,4.7309,4.7309,4.7309,4.7309,4.7309,4.7309,4.6686,4.4673,4.4301,4.4173,4.3813,4.3334,4.3599,4.5276,4.5033,4.4898,4.5449,4.5515,4.5913,4.6932,4.836,4.9832,5.1258,5.2182,5.2827,5.3171,5.353,5.3548,5.3213,5.3545,5.356,5.3198,5.3198,5.3545,5.4249,5.4249,5.4249,5.4249,5.4249,5.4054,5.3713,5.3713,5.3516,5.3183,5.2842,5.2722,5.2692,5.2366,5.2037,5.1726,5.1726,5.1502,5.1191,3.4397,3.4397,3.4397,3.4397,3.4397,3.4397,3.4397,3.4397,3.4397,3.4397,3.4397,3.4397,3.4397,3.4397,3.4397,3.4397,3.4397,3.4397,3.4397,3.4397,3.4397,3.4397,3.5495,3.6109,3.6109,3.743,3.8125,3.8125,3.7969,3.8059,3.8362,3.8937,3.9362,3.9714,4.0482,4.0923,4.1195,4.3142,4.4025,4.4304,4.6317,4.7194,4.7309,4.7309,4.7309,4.7309,4.7309,4.7309,4.7309,4.7309,4.7309,4.7309,4.7309,4.7309,4.7309,4.7309,4.7309,4.7309,4.7309,4.7309,4.7309,4.7309,4.7309,4.7309,4.7309,4.7309,4.7309,4.7309,4.7309,4.6686,4.4673,4.4301,4.4363,4.4566,4.3694,4.3795,4.608,4.5422,4.5127,4.6256,4.657,4.7434,4.9403,5.009,5.0923,5.2115,5.2707,5.3079,5.3186,5.3198,5.3154,5.3022,5.3034,5.2962,5.2857,5.2857,5.2857,5.2857,5.2857,5.2977,5.3198,5.3198,5.3139,5.3034,5.3034,5.2962,5.2812,5.2261,5.2037,5.1977,5.1427,5.1191,5.1191,5.1191,5.1191,5.1191,3.4397,3.4397,3.4397,3.4397,3.4397,3.4397,3.4397,3.4397,3.4397,3.4397,3.4397,3.4397,3.4397,3.4397,3.4397,3.4397,3.4397,3.4397,3.4397,3.4397,3.4397,3.4397,3.5495,3.6109,3.6109,3.802,3.9024,3.9024,3.8272,3.8711,4.0216,3.9516,4.0073,4.1634,4.1748,4.2227,4.299,4.3874,4.4591,4.5193,4.6079,4.6779,4.7309,4.7309,4.7309,4.7309,4.7309,4.7309,4.7309,4.7309,4.7309,4.7309,4.7309,4.7309,4.7309,4.7309,4.7309,4.7309,4.7309,4.7309,4.7309,4.7309,4.7309,4.7309,4.7309,4.7309,4.7309,4.7309,4.7309,4.6686,4.4673,4.4301,4.4363,4.4566,4.3694,4.3795,4.608,4.5422,4.5127,4.6256,4.7216,4.8256,4.9476,4.9673,5.0415,5.2085,5.2276,5.2588,5.3171,5.3198,5.2932,5.2351,5.2336,5.2067,5.1487,5.1472,5.1472,5.1472,5.1472,5.2082,5.3198,5.3198,5.2887,5.2336,5.2336,5.2007,5.1457,5.1382,5.1337,5.1337,5.1247,5.1191,5.1191,5.1191,5.1191,5.1191,3.4397,3.4397,3.4397,3.4397,3.4397,3.4397,3.4397,3.4397,3.4397,3.4397,3.4397,3.4397,3.4397,3.4397,3.4397,3.4397,3.4397,3.4397,3.4397,3.4397,3.4778,3.565,3.5956,3.6729,3.8082,3.8828,3.9714,4.0763,3.985,3.9818,4.0603,4.071,4.1212,4.2021,4.2507,4.2935,4.3334,4.4012,4.4681,4.536,4.6031,4.6689,4.7309,4.7309,4.7309,4.7309,4.7309,4.7309,4.7309,4.7309,4.7309,4.7309,4.7309,4.7309,4.7309,4.7309,4.7309,4.7309,4.7309,4.7309,4.7309,4.7309,4.7309,4.7309,4.7309,4.7309,4.7309,4.7309,4.7309,4.6686,4.4673,4.4301,4.4564,4.5405,4.4115,4.4016,4.6896,4.6334,4.6282,4.7981,4.9129,4.9974,5.0451,5.0835,5.1368,5.2136,5.2202,5.2321,5.2633,5.2291,5.1947,5.1651,5.1636,5.1502,5.1191,5.1191,5.1191,5.1191,5.1191,5.1517,5.2082,5.2082,5.192,5.1636,5.1636,5.1472,5.1191,5.1191,5.1191,5.1191,5.1191,5.1191,5.1191,5.1191,5.1191,5.1191]},{"header":{"parameterUnit":"m.s-1","parameterCategory":1,"la1":30.6,"la2":28.766,"lo1":-90.7593,"lo2":-88.6598,"dy":0.0162,"dx":0.0183,"nx":116,"ny":114,"refTime":"2023-05-22T00:00:00:Z","depth":0,"parameterNumber":3,"parameterNumberName":"V-component_of_WINDS"},"data":[0.0,0.0,0.0,0.0,0.0,0.0,0.0,0.0,0.0,0.0,0.0,0.0,0.0,0.0,0.0,0.0,0.0,0.0,0.0,0.0,0.0,0.0,0.0,0.0,0.0,0.0,0.0,0.0,0.0,0.0,0.0,0.0,0.0,0.0,0.0,0.0,0.0,0.0,0.0,0.0,0.0,0.0,0.0,0.0,0.0,0.0,0.0,0.0,0.0,0.0,0.0,0.0,0.0,0.0,0.0,0.0,0.0,0.0,0.0,0.0,0.0,0.0,0.0,0.0,0.0,0.0,0.0,0.0,0.0,0.0,0.0,0.0,0.0,0.0,0.0,0.0,0.0,0.0,0.0,0.0,0.0,0.0,0.0,0.0,0.0,0.0,0.0,0.0,0.0,0.0,0.0,0.0,0.0,0.0,0.0,0.0,0.0,0.0,0.0,0.0,0.0,0.0,0.0,0.0,0.0,0.0,0.0,0.0,0.0,0.0,0.0,0.0,0.0,0.0,0.0,0.0,0.0,0.0,0.0,0.0,0.0,0.0,0.0,0.0,0.0,0.0,0.0,0.0,0.0,0.0,0.0,0.0,0.0,0.0,0.0,0.0,0.0,0.0,0.0,0.0,0.0,0.0,0.0,0.0,0.0,0.0,0.0,0.0,0.0,0.0,0.0,0.0,0.0,0.0,0.0,0.0,0.0,0.0,0.0,0.0,0.0,0.0,0.0,0.0,0.0,0.0,0.0,0.0,0.0,0.0,0.0,0.0,0.0,0.0,0.0,0.0,0.0,0.0,0.0,0.0,0.0,0.0,0.0,0.0,0.0,0.0,0.0,0.0,0.0,0.0,0.0,0.0,0.0,0.0,0.0,0.0,0.0,0.0,0.0,0.0,0.0,0.0,0.0,0.0,0.0,0.0,0.0,0.0,0.0,0.0,0.0,0.0,0.0,0.0,0.0,0.0,0.0,0.0,0.0,0.0,0.0,0.0,0.0,0.0,0.0,0.0,0.0,0.0,0.0,0.0,0.0,0.0,0.0,0.0,0.0,0.0,0.0,0.0,0.0,0.0,0.0,0.0,0.0,0.0,0.0,0.0,0.0,0.0,0.0,0.0,0.0,0.0,0.0,0.0,0.0,0.0,0.0,0.0,0.0,0.0,0.0,0.0,0.0,0.0,0.0,0.0,0.0,0.0,0.0,0.0,0.0,0.0,0.0,0.0,0.0,0.0,0.0,0.0,0.0,0.0,0.0,0.0,0.0,0.0,0.0,0.0,0.0,0.0,0.0,0.0,0.0,0.0,0.0,0.0,0.0,0.0,0.0,0.0,0.0,0.0,0.0,0.0,0.0,0.0,0.0,0.0,0.0,0.0,0.0,0.0,0.0,0.0,0.0,0.0,0.0,0.0,0.0,0.0,0.0,0.0,0.0,0.0,0.0,0.0,0.0,0.0,0.0,0.0,0.0,0.0,0.0,0.0,0.0,0.0,0.0,0.0,0.0,0.0,0.0,0.0,0.0,0.0,0.0,0.0,0.0,0.0,0.0,0.0,0.0,0.0,0.0,0.0,0.0,0.0,0.0,0.0,0.0,0.0,0.0,0.0,0.0,0.0,0.0,0.0,0.0,0.0,0.0,0.0,0.0,0.0,0.0,0.0,0.0,0.0,0.0,0.0,0.0,0.0,0.0,0.0,0.0,0.0,0.0,0.0,0.0,0.0,0.0,0.0,0.0,0.0,0.0,0.0,0.0,0.0,0.0,0.0,0.0,0.0,0.0,0.0,0.0,0.0,0.0,0.0,0.0,0.0,0.0,0.0,0.0,0.0,0.0,0.0,0.0,0.0,0.0,0.0,0.0,0.0,0.0,0.0,0.0,0.0,0.0,0.0,0.0,0.0,0.0,0.0,0.0,0.0,0.0,0.0,0.0,0.0,0.0,0.0,0.0,0.0,0.0,0.0,0.0,0.0,0.0,0.0,0.0,0.0,0.0,0.0,0.0,0.0,0.0,0.0,0.0,0.0,0.0,0.0,0.0,0.0,0.0,0.0,0.0,0.0,0.0,0.0,0.0,0.0,0.0,0.0,0.0,0.0,0.0,0.0,0.0,0.0,0.0,0.0,0.0,0.0,0.0,0.0,0.0,0.0,0.0,0.0,0.0,0.0,0.0,0.0,0.0,0.0,0.0,0.0,0.0,0.0,0.0,0.0,0.0,0.0,0.0,0.0,0.0,0.0,0.0,0.0,0.0,0.0,0.0,0.0,0.0,0.0,0.0,0.0,0.0,0.0,0.0,0.0,0.0,0.0,0.0,0.0,0.0,0.0,0.0,0.0,0.0,0.0,0.0,0.0,0.0,0.0,0.0,0.0,0.0,0.0,0.0,0.0,0.0,0.0,0.0,0.0,0.0,0.0,0.0,0.0,0.0,0.0,0.0,0.0,0.0,0.0,0.0,0.0,0.0,0.0,0.0,0.0,0.0,0.0,0.0,0.0,0.0,0.0,0.0,0.0,0.0,0.0,0.0,0.0,0.0,0.0,0.0,0.0,0.0,0.0,0.0,0.0,0.0,0.0,0.0,0.0,0.0,0.0,0.0,0.0,0.0,0.0,0.0,0.0,0.0,0.0,0.0,0.0,0.0,0.0,0.0,0.0,0.0,0.0,0.0,0.0,0.0,0.0,0.0,0.0,0.0,0.0,0.0,0.0,0.0,0.0,0.0,0.0,0.0,0.0,0.0,0.0,0.0,0.0,0.0,0.0,0.0,0.0,0.0,0.0,0.0,0.0,0.0,0.0,0.0,0.0,0.0,0.0,0.0,0.0,0.0,0.0,0.0,0.0,0.0,0.0,0.0,0.0,0.0,0.0,0.0,0.0,0.0,0.0,0.0,0.0,0.0,0.0,0.0,0.0,0.0,0.0,0.0,0.0,0.0,0.0,0.0,0.0,0.0,0.0,0.0,0.0,0.0,0.0,0.0,0.0,0.0,0.0,0.0,0.0,0.0,0.0,0.0,0.0,0.0,0.0,0.0,0.0,0.0,0.0,0.0,0.0,0.0,0.0,0.0,0.0,0.0,0.0,0.0,0.0,0.0,0.0,0.0,0.0,0.0,0.0,0.0,0.0,0.0,0.0,0.0,0.0,0.0,0.0,0.0,0.0,0.0,0.0,0.0,0.0,0.0,0.0,0.0,0.0,0.0,0.0,0.0,0.0,0.0,0.0,0.0,0.0,0.0,0.0,0.0,0.0,0.0,0.0,0.0,0.0,0.0,0.0,0.0,0.0,0.0,0.0,0.0,0.0,0.0,0.0,0.0,0.0,0.0,0.0,0.0,0.0,0.0,0.0,0.0,0.0,0.0,0.0,0.0,0.0,0.0,0.0,0.0,0.0,0.0,0.0,0.0,0.0,0.0,0.0,0.0,0.0,0.0,0.0,0.0,0.0,0.0,0.0,0.0,0.0,0.0,0.0,0.0,0.0,0.0,0.0,0.0,0.0,0.0,0.0,0.0,0.0,0.0,0.0,0.0,0.0,0.0,0.0,0.0,0.0,0.0,0.0,0.0,0.0,0.0,0.0,0.0,0.0,0.0,0.0,0.0,0.0,0.0,0.0,0.0,0.0,0.0,0.0,0.0,0.0,0.0,0.0,0.0,0.0,0.0,0.0,0.0,0.0,0.0,0.0,0.0,0.0,0.0,0.0,0.0,0.0,0.0,0.0,0.0,0.0,0.0,0.0,0.0,0.0,0.0,0.0,0.0,0.0,0.0,0.0,0.0,0.0,0.0,0.0,0.0,0.0,0.0,0.0,0.0,0.0,0.0,0.0,0.0,0.0,0.0,0.0,0.0,0.0,0.0,0.0,0.0,0.0,0.0,0.0,0.0,0.0,0.0,0.0,0.0,0.0,0.0,0.0,0.0,0.0,0.0,0.0,0.0,0.0,0.0,0.0,0.0,0.0,0.0,0.0,0.0,0.0,0.0,0.0,0.0,0.0,0.0,0.0,0.0,0.0,0.0,0.0,0.0,0.0,0.0,0.0,0.0,0.0,0.0,0.0,0.0,0.0,0.0,0.0,0.0,0.0,0.0,0.0,0.0,0.0,0.0,0.0,0.0,0.0,0.0,0.0,0.0,0.0,0.0,0.0,0.0,0.0,0.0,0.0,0.0,0.0,0.0,0.0,0.0,0.0,0.0,0.0,0.0,0.0,0.0,0.0,0.0,0.0,0.0,0.0,0.0,0.0,0.0,0.0,0.0,0.0,0.0,0.0,0.0,0.0,0.0,0.0,0.0,0.0,0.0,0.0,0.0,0.0,0.0,0.0,0.0,0.0,0.0,0.0,0.0,0.0,0.0,0.0,0.0,0.0,0.0,0.0,0.0,0.0,0.0,0.0,0.0,0.0,0.0,0.0,0.0,0.0,0.0,0.0,0.0,0.0,0.0,0.0,0.0,0.0,0.0,0.0,0.0,0.0,0.0,0.0,0.0,0.0,0.0,0.0,0.0,0.0,0.0,0.0,0.0,0.0,0.0,0.0,0.0,0.0,0.0,0.0,0.0,0.0,0.0,0.0,0.0,0.0,0.0,0.0,0.0,0.0,0.0,0.0,0.0,0.0,0.0,0.0,0.0,0.0,0.0,0.0,0.0,0.0,0.0,0.0,0.0,0.0,0.0,0.0,0.0,0.0,0.0,0.0,0.0,0.0,0.0,0.0,0.0,0.0,0.0,0.0,0.0,0.0,0.0,0.0,0.0,0.0,0.0,0.0,0.0,0.0,0.0,0.0,0.0,0.0,0.0,0.0,0.0,0.0,0.0,0.0,0.0,0.0,0.0,0.0,0.0,0.0,0.0,0.0,0.0,0.0,0.0,0.0,0.0,0.0,0.0,0.0,0.0,0.0,0.0,0.0,0.0,0.0,0.0,0.0,0.0,0.0,0.0,0.0,0.0,0.0,0.0,0.0,0.0,0.0,0.0,0.0,0.0,0.0,0.0,0.0,0.0,0.0,0.0,0.0,0.0,0.0,0.0,0.0,0.0,0.0,0.0,0.0,0.0,0.0,0.0,0.0,0.0,0.0,0.0,0.0,0.0,0.0,0.0,0.0,0.0,0.0,0.0,0.0,0.0,0.0,0.0,0.0,0.0,0.0,0.0,0.0,0.0,0.0,0.0,0.0,0.0,0.0,0.0,0.0,0.0,0.0,0.0,0.0,0.0,0.0,0.0,0.0,0.0,0.0,0.0,0.0,0.0,0.0,0.0,0.0,0.0,0.0,0.0,0.0,0.0,0.0,0.0,0.0,0.0,0.0,0.0,0.0,0.0,0.0,0.0,0.0,0.0,0.0,0.0,0.0,0.0,0.0,0.0,0.0,0.0,0.0,0.0,0.0,0.0,0.0,0.0,0.0,0.0,0.0,0.0,0.0,0.0,0.0,0.0,0.0,0.0,0.0,0.0,0.0,0.0,0.0,0.0,0.0,0.0,0.0,0.0,0.0,0.0,0.0,0.0,0.0,0.0,0.0,0.0,0.0,0.0,0.0,0.0,0.0,0.0,0.0,0.0,0.0,0.0,0.0,0.0,0.0,0.0,0.0,0.0,0.0,0.0,0.0,0.0,0.0,0.0,0.0,0.0,0.0,0.0,0.0,0.0,0.0,0.0,0.0,0.0,0.0,0.0,0.0,0.0,0.0,0.0,0.0,0.0,0.0,0.0,0.0,0.0,0.0,0.0,0.0,0.0,0.0,0.0,0.0,0.0,0.0,0.0,0.0,0.0,0.0,0.0,0.0,0.0,0.0,0.0,0.0,0.0,0.0,0.0,0.0,0.0,0.0,0.0,0.0,0.0,0.0,0.0,0.0,0.0,0.0,0.0,0.0,0.0,0.0,0.0,0.0,0.0,0.0,0.0,0.0,0.0,0.0,0.0,0.0,0.0,0.0,0.0,0.0,0.0,0.0,0.0,0.0,0.0,0.0,0.0,0.0,0.0,0.0,0.0,0.0,0.0,0.0,0.0,0.0,0.0,0.0,0.0,0.0,0.0,0.0,0.0,0.0,0.0,0.0,0.0,0.0,0.0,0.0,0.0,0.0,0.0,0.0,0.0,0.0,0.0,0.0,0.0,0.0,0.0,0.0,3.5696,3.5403,0.0,0.0,0.0,0.0,0.0,0.0,0.0,0.0,0.0,0.0,0.0,0.0,0.0,0.0,0.0,0.0,0.0,0.0,0.0,0.0,0.0,0.0,0.0,0.0,0.0,0.0,0.0,0.0,0.0,0.0,0.0,0.0,0.0,0.0,0.0,0.0,0.0,0.0,3.0906,3.1099,3.1461,3.0686,3.0397,3.052,0.0,0.0,0.0,0.0,0.0,0.0,0.0,0.0,0.0,0.0,0.0,0.0,0.0,0.0,0.0,0.0,0.0,0.0,0.0,0.0,0.0,0.0,0.0,0.0,0.0,0.0,0.0,0.0,0.0,0.0,0.0,0.0,0.0,0.0,0.0,0.0,0.0,0.0,0.0,0.0,0.0,0.0,0.0,0.0,0.0,0.0,0.0,0.0,0.0,0.0,0.0,0.0,0.0,0.0,0.0,0.0,0.0,0.0,0.0,0.0,0.0,0.0,0.0,0.0,0.0,0.0,0.0,0.0,0.0,0.0,3.6775,3.6322,0.0,0.0,0.0,0.0,0.0,0.0,0.0,0.0,0.0,0.0,0.0,0.0,0.0,0.0,0.0,0.0,0.0,0.0,0.0,0.0,0.0,0.0,0.0,0.0,3.229,3.229,3.2164,3.2092,0.0,0.0,0.0,0.0,0.0,0.0,0.0,3.2092,3.2092,3.2092,3.2227,3.229,3.2272,3.1604,3.1226,3.1072,3.0136,0.0,0.0,0.0,0.0,0.0,0.0,0.0,0.0,0.0,0.0,0.0,0.0,0.0,0.0,0.0,0.0,0.0,0.0,0.0,0.0,0.0,0.0,0.0,0.0,0.0,0.0,0.0,0.0,0.0,0.0,0.0,0.0,0.0,0.0,0.0,0.0,0.0,0.0,0.0,0.0,0.0,0.0,0.0,0.0,0.0,0.0,0.0,0.0,0.0,0.0,0.0,0.0,0.0,0.0,0.0,0.0,0.0,0.0,0.0,0.0,0.0,0.0,0.0,3.8434,3.8434,3.8434,3.8434,3.8434,3.8388,3.7386,3.7028,3.7153,3.7153,0.0,0.0,0.0,0.0,0.0,0.0,0.0,0.0,0.0,0.0,0.0,0.0,0.0,0.0,0.0,0.0,0.0,0.0,0.0,0.0,0.0,3.3468,3.3047,3.3047,3.247,3.2092,0.0,0.0,0.0,0.0,0.0,0.0,0.0,3.2092,3.2092,3.2092,3.2737,3.3047,3.3047,3.295,3.2559,3.1874,3.0203,2.9428,2.9389,0.0,0.0,0.0,0.0,0.0,0.0,0.0,0.0,0.0,0.0,0.0,0.0,0.0,0.0,0.0,0.0,0.0,0.0,0.0,0.0,0.0,0.0,0.0,0.0,0.0,0.0,0.0,0.0,0.0,0.0,0.0,0.0,0.0,0.0,0.0,0.0,0.0,0.0,0.0,0.0,0.0,3.7467,3.7596,0.0,0.0,0.0,0.0,0.0,0.0,0.0,0.0,0.0,0.0,0.0,0.0,0.0,3.6881,3.6978,3.6978,3.6978,3.6978,3.6978,3.6978,3.6978,3.6978,3.6978,3.6969,3.681,0.0,3.7782,3.7782,0.0,0.0,0.0,0.0,0.0,0.0,0.0,0.0,0.0,0.0,0.0,0.0,0.0,0.0,0.0,0.0,0.0,0.0,0.0,0.0,0.0,3.4088,3.3877,3.3877,3.3578,3.3381,3.3381,3.3381,0.0,0.0,0.0,3.3381,3.3381,3.3381,3.3381,3.3381,3.3716,3.3877,3.3854,3.3402,3.3029,3.2648,3.0975,2.9925,2.9389,2.9314,0.0,0.0,0.0,0.0,0.0,0.0,0.0,0.0,0.0,0.0,0.0,0.0,0.0,0.0,0.0,0.0,0.0,0.0,0.0,0.0,0.0,0.0,0.0,0.0,0.0,0.0,0.0,0.0,0.0,0.0,0.0,0.0,0.0,0.0,0.0,0.0,0.0,0.0,0.0,3.7515,3.7766,3.7378,3.7632,3.7587,0.0,0.0,0.0,0.0,0.0,0.0,0.0,0.0,0.0,3.7131,3.7154,3.7335,3.7706,3.7713,3.7713,3.7713,3.7713,3.7713,3.7713,3.7713,3.7713,3.7713,3.7713,3.7721,3.7712,3.7366,3.6916,3.6443,0.0,0.0,0.0,0.0,3.6825,3.6963,0.0,0.0,0.0,0.0,0.0,0.0,0.0,0.0,0.0,0.0,0.0,0.0,3.4397,3.4397,3.4397,3.4397,3.4397,3.4397,3.4397,3.4397,0.0,0.0,0.0,3.4397,3.4397,3.4397,3.4397,3.4397,3.4397,3.4397,3.4389,3.3785,3.3393,3.3134,3.1806,3.0679,2.9774,2.9574,2.9385,2.9157,0.0,0.0,0.0,0.0,0.0,0.0,0.0,0.0,0.0,0.0,0.0,0.0,0.0,0.0,0.0,0.0,0.0,0.0,0.0,0.0,0.0,0.0,0.0,0.0,0.0,0.0,0.0,0.0,0.0,0.0,0.0,0.0,0.0,0.0,0.0,0.0,0.0,3.7491,3.7681,3.7137,3.7478,3.7469,0.0,0.0,0.0,0.0,0.0,0.0,3.5902,3.5895,3.6313,3.7222,3.7246,3.7477,3.7976,3.7992,3.7992,3.7992,3.7992,3.7992,3.7992,3.7992,3.7992,3.7992,3.7992,3.7725,3.7296,3.7045,3.6747,3.6469,3.6469,3.6375,3.6283,3.6592,3.6703,3.6824,0.0,0.0,0.0,0.0,0.0,0.0,0.0,0.0,0.0,0.0,0.0,3.4397,3.4397,3.4397,3.4397,3.4397,3.4397,3.4397,3.4397,3.4397,3.4397,3.4397,3.4397,3.4397,3.4397,3.4397,3.4397,3.4397,3.4397,3.4397,3.4397,3.4363,3.3928,3.3161,3.2389,3.159,3.0773,3.0072,2.9631,2.938,2.937,0.0,0.0,0.0,0.0,0.0,0.0,0.0,0.0,0.0,0.0,0.0,0.0,0.0,0.0,0.0,0.0,0.0,0.0,0.0,0.0,0.0,0.0,0.0,0.0,0.0,0.0,0.0,0.0,0.0,0.0,0.0,0.0,0.0,0.0,0.0,0.0,0.0,0.0,3.7586,3.7597,0.0,0.0,0.0,0.0,3.5746,3.6185,3.646,3.646,3.646,3.6491,3.6546,3.6546,3.6561,3.6607,3.6607,3.6607,3.6607,3.6607,3.6607,3.6607,3.6607,3.6607,3.6607,3.6607,3.6576,3.6613,3.7291,3.6882,3.585,3.585,3.5507,3.5127,3.628,3.6703,3.6867,0.0,0.0,0.0,0.0,0.0,0.0,0.0,0.0,3.4397,3.4397,3.4397,3.4397,3.4397,3.4397,3.4397,3.4397,3.4397,3.4397,3.4397,3.4397,3.4397,3.4397,3.4397,3.4397,3.4397,3.4397,3.4397,3.4397,3.4397,3.4397,3.4397,3.4397,3.4247,3.3937,3.3157,3.2389,3.159,3.033,2.974,2.9641,2.947,2.936,0.0,0.0,0.0,0.0,0.0,0.0,0.0,0.0,0.0,0.0,0.0,0.0,0.0,0.0,0.0,0.0,0.0,0.0,0.0,0.0,0.0,0.0,0.0,0.0,0.0,0.0,0.0,0.0,0.0,0.0,0.0,0.0,0.0,0.0,0.0,0.0,0.0,3.7006,3.7294,0.0,3.6631,3.6554,3.6621,3.6777,3.6975,3.7253,3.7634,3.7656,3.7656,3.7656,3.7656,3.7656,3.7656,3.7656,3.7656,3.7656,3.7656,3.7656,3.7658,3.7268,3.7089,3.7066,3.6662,3.6499,3.6515,3.677,3.6648,3.6259,3.6259,3.6115,3.5988,3.6415,3.657,3.6685,0.0,0.0,0.0,0.0,0.0,0.0,0.0,0.0,3.5072,3.5072,3.4872,3.4737,3.4737,3.4534,3.4484,3.4721,3.4737,3.4737,3.4737,3.4737,3.4643,3.4414,3.4397,3.4397,3.4397,3.4397,3.4397,3.4397,3.4397,3.4397,3.4397,3.4397,3.4397,3.4357,3.3555,3.2791,3.2024,3.0718,2.9976,2.965,2.948,2.936,2.9285,0.0,0.0,0.0,0.0,0.0,0.0,0.0,0.0,0.0,0.0,0.0,0.0,0.0,0.0,0.0,0.0,0.0,0.0,0.0,0.0,0.0,0.0,0.0,0.0,0.0,0.0,0.0,0.0,0.0,0.0,0.0,0.0,0.0,0.0,3.7005,3.7082,3.6622,3.6915,3.6992,3.6546,3.6685,3.7069,3.7718,3.7964,3.8353,3.9012,3.9034,3.9034,3.9034,3.9034,3.9034,3.9034,3.9034,3.9034,3.9034,3.9034,3.9034,3.9035,3.8638,3.8455,3.8417,3.8021,3.7846,3.7846,3.7846,3.7846,3.7769,3.684,3.6499,3.6499,3.6499,3.6499,3.6592,0.0,0.0,0.0,0.0,0.0,0.0,0.0,3.5961,3.6399,3.6399,3.5834,3.5432,3.5432,3.4847,3.4721,3.5375,3.5432,3.5432,3.5432,3.5432,3.5137,3.4484,3.4433,3.4431,3.4431,3.4414,3.4397,3.4397,3.4397,3.4397,3.4397,3.4397,3.4397,3.4372,3.3581,3.2808,3.206,3.1277,3.0352,2.9409,2.9409,2.9294,2.9091,0.0,0.0,0.0,0.0,0.0,0.0,0.0,0.0,0.0,0.0,0.0,0.0,0.0,0.0,0.0,0.0,0.0,0.0,0.0,0.0,0.0,0.0,0.0,0.0,0.0,0.0,0.0,0.0,0.0,0.0,0.0,0.0,0.0,3.6514,3.6604,3.6574,3.6514,3.6515,3.653,3.653,3.7098,3.7771,3.8495,3.9125,3.9774,4.0522,4.0555,4.0555,4.0555,4.0555,4.0555,4.0555,4.0555,4.0555,4.0555,4.0555,4.0555,4.0555,4.0533,4.0525,4.0525,4.051,4.0503,4.0503,4.0503,4.0503,4.0248,3.7637,3.6623,3.6623,3.6623,3.6615,3.667,0.0,0.0,0.0,0.0,0.0,0.0,0.0,3.5961,3.6399,3.6399,3.6236,3.6127,3.6127,3.5953,3.5914,3.6103,3.6127,3.6127,3.6127,3.6127,3.604,3.5866,3.5383,3.5129,3.5129,3.466,3.4397,3.4397,3.4397,3.4397,3.4397,3.4397,3.4397,3.4389,3.4165,3.3337,3.2083,3.1856,3.0968,2.9689,2.9689,2.9531,2.9314,0.0,0.0,0.0,0.0,0.0,0.0,0.0,0.0,0.0,0.0,0.0,0.0,0.0,0.0,0.0,0.0,0.0,0.0,0.0,0.0,0.0,0.0,0.0,0.0,0.0,0.0,0.0,0.0,0.0,0.0,0.0,3.6029,3.6334,3.6502,3.6533,3.6527,3.6499,3.693,3.723,3.723,3.8247,3.9188,3.9834,4.0475,4.1122,4.1769,4.1813,4.1813,4.1813,4.1813,4.1813,4.1813,4.1813,4.1813,4.1813,4.1813,4.1813,4.1793,4.1352,4.116,4.1139,4.068,4.0503,4.0503,4.0503,4.0503,4.0434,3.9697,3.9394,3.9394,3.9394,3.906,3.8549,0.0,0.0,0.0,0.0,0.0,0.0,0.0,3.6638,3.7244,3.7244,3.6988,3.6814,3.6814,3.6561,3.6515,3.6791,3.6814,3.6814,3.6814,3.6554,3.6399,3.6399,3.604,3.569,3.5408,3.5029,3.4679,3.4397,3.4397,3.4397,3.4397,3.4397,3.4397,3.4397,3.4397,3.3534,3.2092,3.2092,3.1201,2.9801,2.9801,2.9641,2.9389,2.9314,2.9197,2.9131,2.935,2.9742,3.018,3.0291,0.0,0.0,0.0,0.0,0.0,0.0,0.0,0.0,0.0,0.0,0.0,0.0,0.0,0.0,0.0,0.0,0.0,0.0,0.0,0.0,0.0,0.0,0.0,0.0,3.6534,3.6923,3.6923,3.6923,3.6923,3.6923,3.7261,3.7507,3.7507,3.8177,3.9002,3.9918,4.0858,4.1795,4.2709,4.3071,4.3264,4.3264,4.3264,4.3264,4.3264,4.3264,4.3264,4.3264,4.3264,4.3264,4.3257,4.2893,4.2739,4.2718,4.2373,4.2212,4.2212,4.2212,4.2212,4.2095,0.0,0.0,0.0,0.0,4.0229,3.983,0.0,0.0,0.0,0.0,0.0,0.0,0.0,3.7615,3.8384,3.8299,3.7836,3.7484,3.741,3.6943,3.6867,3.7461,3.7513,3.7513,3.7513,3.6951,3.6623,3.6623,3.6554,3.6228,3.5649,3.548,3.5105,3.4509,3.4448,3.4397,3.4397,3.4397,3.4397,3.4397,3.4397,3.3534,3.2092,3.2092,3.1201,2.9801,2.9801,2.9641,2.938,2.9197,2.9121,2.9219,3.0015,3.0238,3.0291,3.1096,0.0,0.0,0.0,0.0,0.0,0.0,0.0,0.0,0.0,0.0,0.0,0.0,0.0,0.0,0.0,0.0,0.0,0.0,0.0,0.0,0.0,0.0,0.0,0.0,3.7046,3.7415,3.7492,3.7507,3.7507,3.7507,3.7507,3.7507,3.7507,3.7575,3.8167,3.9422,4.0757,4.2079,4.3338,4.4154,0.0,0.0,0.0,4.4608,4.4608,4.4608,4.4608,4.4608,4.4608,4.4608,4.4608,4.4608,4.4608,4.4608,4.4608,4.4608,4.4608,4.4608,4.4608,4.4364,4.1909,4.0961,4.0953,4.0856,4.0839,4.0889,0.0,0.0,0.0,0.0,0.0,0.0,0.0,3.8059,3.8335,3.7683,3.7945,3.8004,3.7461,3.7778,3.8076,3.82,3.8214,3.8214,3.8214,3.8091,3.801,3.801,3.7506,3.7155,3.7027,3.5945,3.5335,3.5211,3.4654,3.4397,3.4397,3.4397,3.4397,3.4397,3.4397,3.3534,3.2092,3.2092,3.1201,2.9801,2.9801,2.9641,2.9399,2.936,2.9236,2.9219,3.0015,3.0683,3.1327,3.2146,3.2819,3.3297,3.3125,3.3183,0.0,0.0,0.0,0.0,0.0,0.0,0.0,0.0,0.0,0.0,0.0,0.0,0.0,0.0,0.0,0.0,0.0,0.0,0.0,3.7199,3.6953,3.6876,3.7415,3.7507,3.7507,3.7507,3.7507,3.7507,3.7507,3.8474,3.94,4.0153,4.1497,4.261,4.3355,4.4154,4.4608,4.4608,4.4608,4.4608,4.4608,4.4608,4.4608,4.4608,4.4608,0.0,4.4608,4.4608,4.4608,4.4608,4.4608,4.4608,4.4608,4.4608,4.4608,4.4553,4.4014,4.3818,4.3727,4.3078,4.2836,4.2766,0.0,0.0,0.0,0.0,0.0,0.0,0.0,3.8341,3.8363,3.7945,3.7894,3.7894,3.7894,3.7894,3.8024,3.8363,3.8391,3.8391,3.8391,3.8391,3.8391,3.8391,3.7764,3.7245,3.6921,3.5913,3.5244,3.4897,3.4559,3.4397,3.4397,3.4397,3.4397,3.4397,3.4397,3.3534,3.2092,3.2092,3.1201,2.9801,2.9801,2.9721,2.9599,2.9599,2.977,3.0088,3.0796,3.1493,3.2214,3.2913,3.3355,3.3579,3.3483,3.3448,3.3431,0.0,0.0,0.0,0.0,0.0,0.0,0.0,0.0,0.0,0.0,0.0,0.0,0.0,0.0,3.6199,3.6543,0.0,3.673,3.7384,3.7215,3.7115,3.7446,3.7507,3.7507,3.7507,3.7507,3.7507,3.7507,3.8412,3.9255,3.9853,4.1511,4.276,4.3372,4.4154,4.4608,4.4608,4.4608,4.4608,4.4608,4.4608,4.4608,4.4608,4.4608,4.4608,4.4608,4.4608,4.4608,4.4608,4.4608,4.4608,4.4608,4.4608,4.4608,4.4608,4.4608,4.4608,4.4557,4.4154,4.3995,4.3944,0.0,0.0,0.0,0.0,0.0,0.0,0.0,3.8823,3.8531,3.8265,3.7852,3.7641,3.78,3.7572,3.7609,3.8155,3.8091,3.8076,3.8207,3.8091,3.801,3.801,3.7482,3.6959,3.6415,3.5746,3.5137,3.4593,3.445,3.4397,3.4397,3.4397,3.4329,3.4165,3.4165,3.3311,3.1874,3.1874,3.1074,2.9801,2.9801,2.9801,2.9821,2.9963,3.039,3.1007,3.1792,3.2376,3.2899,3.3547,3.3617,3.3452,3.3417,3.3396,3.3352,3.3317,3.3373,0.0,0.0,0.0,0.0,0.0,0.0,0.0,0.0,3.5863,3.6004,3.6575,3.6592,3.6699,3.7384,3.6961,3.6761,3.7569,3.7576,3.7584,3.7853,3.7784,3.7684,3.7684,3.7584,3.7554,3.7684,3.8302,3.8936,3.9552,4.1403,4.276,4.3372,4.4154,4.4608,4.4608,4.4608,4.4608,4.4608,4.4454,4.4398,4.4374,4.4253,4.4186,4.4186,4.4186,4.4186,4.421,4.4324,4.4398,4.4405,4.4542,4.4608,4.4608,4.4608,4.4608,4.4608,4.4608,4.4608,4.4608,0.0,0.0,0.0,0.0,0.0,0.0,0.0,0.0,3.9028,3.7771,3.7957,3.7568,3.591,3.6738,3.7432,3.7506,3.6974,3.6875,3.7476,3.6951,3.6623,3.6623,3.6554,3.6477,3.6399,3.5746,3.5359,3.5301,3.4687,3.4397,3.4397,3.4397,3.4028,3.3332,3.3332,3.2474,3.1035,3.1035,3.0558,2.9801,2.9801,2.9801,2.9866,3.0529,3.0829,3.1087,3.2528,3.3096,3.3253,3.4045,3.4185,3.3982,3.3874,3.3701,3.3527,3.3352,3.3632,3.4025,3.4079,3.4808,3.5543,3.5599,3.5974,3.6336,0.0,3.6414,3.6598,3.7245,3.6907,3.6699,3.7384,3.6961,3.6907,3.8176,3.7892,3.7923,3.9107,3.8753,3.8392,3.8392,3.7853,3.773,3.833,3.8991,3.9638,4.0235,4.1661,4.276,4.3372,4.4154,4.4608,4.4608,4.4608,4.4608,4.4608,4.3951,4.3616,4.3625,4.3015,4.273,4.273,4.273,4.273,4.2769,4.3363,4.3616,4.3676,4.4331,4.4608,4.4608,4.4608,4.4608,4.4608,4.4608,4.4608,4.4608,0.0,0.0,0.0,0.0,0.0,0.0,0.0,0.0,0.0,3.8061,3.7814,3.7568,3.7137,3.7262,3.7235,3.6845,3.6554,3.6515,3.6799,3.6554,3.6399,3.6399,3.604,3.5826,3.5826,3.5162,3.4829,3.4829,3.4534,3.4397,3.4389,3.3919,3.3529,3.3178,3.2746,3.1933,3.0904,3.0904,3.0472,2.9801,2.9801,2.9801,2.9924,3.1145,3.1599,3.1728,3.2738,3.336,0.0,3.3894,3.3876,3.3782,3.3605,3.3712,3.3874,3.3782,3.4144,3.4627,3.4957,3.5591,3.6171,3.6171,3.6635,3.7076,3.7076,3.7384,3.7738,3.8023,3.7853,3.7869,3.8546,3.8123,3.7984,3.893,3.853,3.8284,3.8838,3.8684,3.8645,3.903,3.883,3.8771,3.9044,3.9692,4.0347,4.1001,4.1952,4.2617,4.2856,4.32,4.3372,4.3372,4.3372,4.3372,4.3372,4.3068,4.2923,4.2915,4.2637,4.2505,4.2505,4.2505,4.2505,4.2544,4.3204,4.3505,4.3556,4.4303,4.4345,4.3958,4.3958,4.3958,4.4009,4.444,4.4608,4.4608,0.0,0.0,0.0,0.0,0.0,0.0,0.0,0.0,0.0,0.0,3.7894,3.7683,3.7991,3.7468,3.6982,3.6675,3.6333,3.6211,3.6385,3.6044,3.585,3.585,3.5383,3.5121,3.5121,3.466,3.4397,3.4397,3.4173,3.4071,3.4054,3.3253,3.2782,3.2537,3.201,3.1332,3.0601,3.0601,3.0289,2.9801,2.9801,2.9801,2.9972,3.1516,3.2092,3.2214,3.308,3.3727,3.4145,3.3902,3.3761,3.3683,3.3692,3.3874,3.4136,3.4274,3.4702,3.5244,3.5768,3.6195,3.6569,3.6832,3.7209,3.7562,3.7843,3.8219,3.8546,3.8746,3.8638,3.87,3.9384,3.8953,3.8722,3.9384,3.9091,3.8838,3.903,3.9045,3.923,3.9722,3.9784,3.9854,4.0024,4.0498,4.1048,4.1736,4.2229,4.2583,4.2777,4.2606,4.2505,4.2505,4.2505,4.2505,4.2505,4.2316,4.2229,4.2221,4.2037,4.1957,4.1957,4.1957,4.1957,4.1997,4.2668,4.2953,4.2999,4.3715,4.37,4.3219,4.3219,4.3219,4.3296,4.382,4.4143,4.4281,0.0,0.0,0.0,0.0,0.0,0.0,0.0,0.0,0.0,0.0,0.0,0.0,0.0,3.6734,3.6588,3.7223,3.6134,3.5716,3.6369,3.5173,3.445,3.445,3.4448,3.4431,3.4431,3.4414,3.4397,3.4397,3.363,3.3245,3.3213,3.2479,3.1719,3.0966,3.0951,3.0529,2.984,2.984,2.9821,2.9801,2.9801,2.9801,2.9972,3.1516,3.2092,3.2304,3.3808,3.4372,3.4389,3.438,3.4165,3.3983,3.4496,3.4393,3.4198,3.4718,3.526,3.5784,3.6328,3.6492,3.6731,3.7717,3.7731,3.7765,3.8728,3.8714,3.8676,3.9337,3.8953,3.87,3.9384,3.8953,3.8722,3.9384,3.9483,3.9707,4.0344,4.0437,4.0452,4.0467,4.0467,4.0728,4.1371,4.1453,4.1747,4.2425,4.2489,4.2776,4.3421,4.2854,4.2505,4.2505,4.2505,4.2505,4.2505,4.186,4.1533,4.1525,4.087,4.0558,4.0558,4.0558,4.0558,4.061,4.1268,4.1566,4.1608,4.2292,4.2552,4.2536,4.2536,4.2536,4.2536,4.256,4.2976,4.3445,0.0,0.0,0.0,0.0,0.0,0.0,0.0,0.0,0.0,0.0,0.0,0.0,0.0,0.0,0.0,0.0,3.6239,3.6087,3.6324,3.5534,3.5055,3.5055,3.4646,3.4397,3.4397,3.4397,3.4139,3.3598,3.3332,3.295,3.2452,3.1669,3.1165,3.0886,3.039,3.0027,2.9801,2.9801,2.9801,2.9801,2.9801,2.9801,2.9972,3.1516,3.2092,3.2304,0.0,3.4397,3.438,3.4247,3.408,3.4011,3.4637,3.489,3.5165,3.6244,3.6562,3.6755,3.7599,3.7342,3.7017,3.7795,3.8419,3.8794,3.8691,3.9483,4.0213,4.0173,4.0368,4.0485,4.0206,4.0377,4.0469,4.0206,4.016,4.0237,4.0467,4.0498,4.0498,4.0498,4.0498,4.0593,4.081,4.0836,4.11,4.1787,4.1418,4.1276,4.1501,4.1301,4.1168,4.1168,4.1168,4.1168,4.1168,4.0955,4.0836,4.0827,4.0619,4.0498,4.0498,4.0498,4.0498,4.0541,4.1209,4.1501,4.1558,4.2229,4.2245,4.1836,4.1836,4.1836,4.1779,4.1351,4.1592,4.2205,0.0,0.0,0.0,0.0,0.0,0.0,0.0,0.0,0.0,0.0,0.0,0.0,0.0,0.0,0.0,0.0,0.0,3.6655,3.6655,3.6063,3.5723,3.5723,3.4831,3.433,3.433,3.3836,3.332,3.2808,3.2519,3.2132,3.1654,3.0861,3.051,3.0491,3.0008,2.9801,2.9801,2.9801,2.9801,2.9801,2.9801,2.9801,2.9972,3.1516,3.2092,0.0,3.3842,3.4355,3.4264,3.4136,3.4005,3.4028,3.4773,3.5366,3.5983,3.6975,3.7224,3.7367,3.8258,3.8128,3.7919,3.8725,3.9314,3.9658,3.9468,4.018,4.0816,4.055,4.11,4.1377,4.0636,4.1091,4.137,4.0621,4.0498,4.0498,4.0498,4.0498,4.0498,4.0498,4.0498,4.0498,4.0498,4.0498,4.0776,4.1443,4.0878,4.0595,4.0844,4.0629,4.0498,4.0498,4.0498,4.0498,4.0498,4.0498,4.0498,4.0498,4.0498,4.0498,4.0498,4.0498,4.0498,4.0524,4.0963,4.1134,4.1183,4.1616,4.1533,4.1134,4.1134,4.1134,4.1116,4.0817,4.0996,4.1392,0.0,0.0,0.0,0.0,0.0,0.0,0.0,0.0,0.0,0.0,0.0,0.0,0.0,0.0,0.0,0.0,0.0,0.0,3.7351,3.6713,3.6332,3.6296,3.496,3.423,3.4171,3.2841,3.2128,3.2082,3.129,3.0886,3.0829,3.0129,2.9801,2.9801,2.9801,2.9801,2.9801,2.9801,2.9801,2.9801,2.9801,2.9801,2.9972,3.1516,3.2092,3.2304,3.3842,3.4264,3.4102,3.4111,3.4082,3.4168,3.5004,3.5887,3.6654,3.7,3.7313,3.773,3.8417,3.8811,3.9272,4.0323,4.0358,4.0277,4.0876,4.0768,4.0539,4.0544,4.1137,4.1423,4.0683,4.1162,4.1392,4.0621,4.0498,4.0498,4.0498,4.0498,4.0498,4.0498,4.0498,4.0498,4.0498,4.0498,4.0759,4.1393,4.0861,4.0776,4.141,4.0844,4.0498,4.0498,4.0498,4.0498,4.0498,4.0498,4.0498,4.0498,4.0498,4.0498,4.0498,4.0498,4.0498,4.0498,4.0498,4.0498,4.0498,4.0498,4.0498,4.0498,4.0498,4.0498,4.0541,4.0966,4.1134,4.1092,0.0,0.0,0.0,0.0,0.0,0.0,0.0,0.0,0.0,0.0,0.0,0.0,0.0,0.0,0.0,0.0,0.0,0.0,3.7961,3.7395,3.6753,3.6094,3.5249,3.4497,3.3842,3.3074,3.2391,3.1798,3.1208,3.062,3.0085,2.9885,2.9801,2.9801,2.9801,2.9801,2.9801,2.9801,2.9801,2.9801,2.9801,2.9801,2.9972,3.1516,3.2092,3.2304,3.3842,3.4264,3.4119,3.4264,3.4957,3.5819,3.6135,3.7003,3.797,3.8311,3.85,3.8828,3.9748,3.9684,3.9511,4.0073,4.031,4.0301,3.9976,4.0459,4.1022,4.1269,4.1878,4.2131,4.1447,4.1869,4.1946,4.0698,4.0498,4.0498,4.0498,4.0498,4.0498,4.0498,4.0498,4.0498,4.0498,4.0498,4.0576,4.0749,4.0602,4.0576,4.0758,4.0586,4.0498,4.0498,4.0498,4.0498,4.0498,4.0498,4.0498,4.0498,4.0498,4.0498,4.0498,4.0498,4.0498,4.0498,4.0498,4.0498,4.0498,4.0498,4.0498,4.0498,4.0498,4.0498,4.0577,4.1229,4.1626,4.1897,0.0,0.0,0.0,0.0,0.0,0.0,0.0,0.0,0.0,0.0,0.0,0.0,0.0,0.0,0.0,0.0,0.0,0.0,0.0,3.7301,3.6741,3.5857,3.4867,3.4118,3.3624,3.2711,3.2023,3.1571,3.1029,3.0553,3.0143,2.9905,2.9801,2.9801,2.9801,2.9801,2.9801,2.9801,2.9801,0.0,0.0,2.9801,2.9949,3.1384,3.215,3.2691,3.4145,3.4838,3.5155,3.5673,3.6345,3.7056,3.7514,3.8119,3.876,3.9233,3.9301,3.9456,4.0483,4.0498,4.0263,4.0482,4.0651,4.0697,4.0475,4.1002,4.1631,4.1974,4.2716,4.2942,4.1806,4.2155,4.2146,4.0729,4.0498,4.0498,4.0498,4.0498,4.0498,4.0498,4.0498,4.0498,4.0498,4.0498,4.0498,4.0498,4.0498,4.0636,4.0968,4.0984,4.1122,4.1414,4.1414,4.1414,4.1414,4.1414,4.1414,4.1414,4.1414,4.1414,4.1414,4.1414,4.1414,4.1414,4.1414,4.1414,4.1414,4.1414,4.1414,4.1414,4.1414,4.1414,4.1494,4.2041,4.2383,4.2625,0.0,0.0,0.0,0.0,0.0,0.0,0.0,0.0,0.0,0.0,0.0,0.0,0.0,0.0,0.0,0.0,0.0,0.0,0.0,0.0,0.0,3.5487,3.427,3.3562,3.344,3.2163,3.1509,3.1509,3.0962,3.0711,3.0698,3.0231,3.0015,3.0015,3.0015,3.0015,3.0015,3.0015,3.0015,3.0015,3.0015,3.0015,3.0163,0.0,3.2456,3.3309,3.4687,3.5727,3.6585,3.7599,3.7871,3.7957,3.8849,3.9164,3.9306,3.9902,3.9936,3.9957,4.0784,4.1089,4.1131,4.1029,4.1062,4.119,4.152,4.1811,4.2126,4.2526,4.3364,4.3518,4.1895,4.2148,4.2146,4.0729,4.0498,4.0498,4.0498,4.0498,4.0498,4.0498,4.0498,4.0498,4.0498,4.0498,4.0498,4.0498,4.0498,4.0814,4.1555,4.1678,4.2001,4.2577,4.2593,4.2593,4.2593,4.2593,4.2593,4.2593,4.2593,4.2593,4.2593,4.2593,4.2593,4.2593,4.2593,4.2593,4.2593,4.2593,4.2593,4.2593,4.2593,4.2593,4.2653,4.3096,4.3265,4.3387,0.0,0.0,0.0,0.0,0.0,0.0,0.0,0.0,0.0,0.0,3.8202,3.8202,0.0,0.0,0.0,0.0,0.0,0.0,0.0,0.0,0.0,3.4685,3.4376,3.391,3.3195,3.2449,3.2066,3.2066,3.1524,3.1258,3.1258,3.117,3.112,3.112,3.112,3.112,3.112,3.112,3.112,3.112,3.112,3.112,3.1304,3.2909,0.0,0.0,3.5517,3.6538,3.7346,3.8718,3.8777,3.8457,3.9502,4.002,4.0262,4.0372,4.0808,4.1134,4.0719,4.1052,4.1365,4.0765,4.0858,4.119,4.152,4.1557,4.1731,4.244,4.2883,4.281,4.1799,4.2139,4.2146,4.0729,4.0498,4.0498,4.0498,4.0498,4.0498,4.0498,4.0498,4.0498,4.0498,4.0498,4.0498,4.0498,4.0498,4.0814,4.1555,4.2125,4.247,4.2593,4.2593,4.2593,4.2593,4.2593,4.2593,4.2593,4.2593,4.2593,4.2593,4.2593,4.2593,4.2593,4.2593,4.2593,4.2593,4.2593,4.2593,4.2593,4.2593,4.2593,4.2709,4.3661,4.4174,4.4566,0.0,0.0,0.0,0.0,0.0,0.0,0.0,0.0,3.8202,3.8202,3.8202,3.8202,3.8202,3.8202,0.0,0.0,0.0,0.0,0.0,0.0,0.0,0.0,0.0,0.0,3.3113,3.2826,3.2677,3.2677,0.0,3.1813,3.1813,3.1534,3.1396,3.1396,3.1396,3.1396,3.1396,3.1396,3.1396,3.1396,3.1396,3.1396,3.1564,0.0,0.0,0.0,0.0,3.7492,3.7931,3.9036,3.9159,3.9159,4.0841,4.1227,4.1142,4.1494,4.1326,4.1023,4.1054,4.1046,4.0987,4.0858,4.0799,4.1017,4.1865,4.1931,4.2001,4.2673,4.2933,4.2666,4.1361,4.1387,4.1289,4.024,4.008,4.0176,4.0455,4.0498,4.0498,4.0498,4.0498,4.0498,4.0498,4.0498,4.0498,4.0498,4.0861,4.1377,4.2085,4.3094,4.3642,4.3642,4.3642,4.3642,4.3642,4.3642,4.3642,4.3642,4.3642,4.3642,4.3642,4.3642,4.3642,4.3642,4.3642,4.3642,4.3642,4.3642,4.3642,4.3642,4.3642,4.3772,4.4015,4.4528,4.4957,4.5313,0.0,0.0,0.0,0.0,0.0,0.0,0.0,3.8202,3.8202,3.8202,3.8202,3.8136,3.7943,3.8099,3.7848,0.0,0.0,0.0,0.0,0.0,0.0,0.0,0.0,0.0,0.0,0.0,0.0,3.3102,3.2627,0.0,0.0,0.0,0.0,0.0,3.176,3.176,3.176,3.176,3.176,0.0,0.0,3.176,3.1912,0.0,0.0,0.0,0.0,3.8202,3.83,3.9048,3.9391,3.9853,4.1738,4.1987,4.1678,4.2189,4.1625,4.0936,4.1373,4.1122,4.0783,4.1045,4.0926,4.1017,4.207,4.2178,4.2175,4.2634,4.2841,4.2431,4.0788,4.0645,4.0529,3.9827,3.9741,3.9945,4.0429,4.0498,4.0498,4.0498,4.0498,4.0498,4.0498,4.0498,4.0498,4.0498,4.1177,4.1955,4.2771,4.395,4.4591,4.4591,4.4591,4.4591,4.4591,4.4591,4.4591,4.4591,4.4591,4.4591,4.4591,4.4591,4.4591,4.4591,4.4591,4.4591,4.4591,4.4591,4.4591,4.4591,4.4591,4.4704,4.4887,4.5117,4.5222,4.5228,0.0,0.0,0.0,0.0,0.0,0.0,0.0,3.8202,3.8202,3.8202,3.8202,3.7905,3.7111,3.772,3.7848,0.0,0.0,0.0,0.0,0.0,0.0,0.0,0.0,0.0,0.0,0.0,0.0,3.3102,3.304,0.0,0.0,0.0,0.0,0.0,0.0,3.2939,3.2939,3.2939,0.0,0.0,0.0,0.0,0.0,0.0,0.0,0.0,0.0,3.8202,3.83,3.9048,3.9696,4.0352,4.1244,4.1516,4.1511,4.1508,4.1719,4.1834,4.129,4.1315,4.1431,4.1171,4.1298,4.1525,4.1653,4.1625,4.1611,4.1774,4.1974,4.165,4.0083,4.0442,4.068,3.9838,3.9839,4.0101,4.0446,4.0498,4.0498,4.0498,4.0498,4.0498,4.0498,4.0498,4.0498,4.0498,4.1177,4.2164,4.3445,4.419,4.4591,4.4591,4.4591,4.4591,4.4591,4.4591,4.4591,4.4591,4.4591,4.4591,4.4591,4.4591,4.4591,4.4591,4.4591,4.4591,4.4591,4.4591,4.4591,4.4591,4.4591,4.4257,4.3874,4.484,4.4444,4.3598,0.0,0.0,0.0,0.0,0.0,0.0,0.0,3.8202,3.8202,3.8202,3.8202,3.7867,3.7004,3.7208,3.6878,0.0,0.0,0.0,0.0,0.0,0.0,0.0,0.0,0.0,0.0,0.0,3.3102,3.3102,3.3102,0.0,0.0,0.0,0.0,0.0,0.0,3.3102,3.3102,3.3102,0.0,0.0,0.0,0.0,0.0,0.0,0.0,0.0,0.0,0.0,3.8235,3.8537,3.9079,3.9758,4.0401,4.0937,4.1415,4.1923,4.1575,4.1021,4.1031,4.0581,4.0207,4.0631,4.0683,4.0793,4.1399,4.136,4.1212,4.1268,4.0959,4.0411,3.9562,3.9243,3.9054,3.8833,3.876,3.8916,3.94,4.0138,4.0611,4.0611,4.1296,4.1753,4.1753,4.1753,4.1599,4.1184,4.1808,4.2103,4.1867,4.3214,4.4,4.4,4.44,4.4591,4.4591,4.4591,4.44,4.4,4.4,4.3781,4.3413,4.381,4.4,4.4,4.4,4.4,4.3961,4.3551,4.3403,4.3403,4.3403,4.3378,4.3422,4.4013,4.4021,4.3762,0.0,0.0,0.0,0.0,0.0,3.8202,3.8202,3.8202,3.8202,3.8202,3.7981,3.7477,3.6606,3.6304,3.5588,3.4136,0.0,0.0,0.0,0.0,0.0,0.0,0.0,0.0,0.0,0.0,3.3102,3.3102,3.3102,3.3102,0.0,0.0,3.3102,3.3102,0.0,0.0,0.0,0.0,0.0,0.0,0.0,0.0,0.0,0.0,0.0,0.0,0.0,0.0,0.0,0.0,0.0,3.9305,3.99,4.0588,4.1303,4.206,4.1367,4.048,4.0867,4.0127,3.9403,4.0078,4.0244,4.0384,4.0861,4.0969,4.0954,4.0772,4.028,3.9681,3.9029,3.8456,3.808,3.8115,3.8037,3.8241,3.8964,3.9847,4.0479,4.0655,4.1468,4.2006,4.2006,4.2006,4.1808,4.1343,4.1574,4.1349,4.0452,4.1727,4.2643,4.3029,4.3491,4.3826,4.4004,4.4004,4.3771,4.3299,4.3299,4.3071,4.2634,4.3101,4.3299,4.3299,4.3299,4.3299,4.327,4.2795,4.2654,4.2725,4.2725,4.2811,4.3011,4.3383,4.3417,4.3279,0.0,0.0,0.0,0.0,0.0,0.0,0.0,3.8202,3.8202,3.8202,3.7453,3.6576,3.5705,3.4906,3.4063,3.3199,0.0,0.0,0.0,0.0,0.0,0.0,0.0,0.0,0.0,0.0,3.3102,3.3102,3.3102,3.3102,3.3102,3.3102,3.3102,3.3102,0.0,0.0,0.0,0.0,0.0,0.0,0.0,0.0,0.0,0.0,0.0,0.0,0.0,0.0,0.0,0.0,0.0,0.0,0.0,4.0564,4.1177,4.1582,4.1179,4.0634,4.084,4.0262,3.96,3.9603,4.0266,4.0677,3.99,4.0368,4.0825,4.0226,4.0091,3.9709,3.8435,3.8376,3.8368,3.7968,3.808,3.8552,3.9543,3.9702,3.9929,4.0538,4.0611,4.0611,4.0611,4.0611,4.0621,4.0611,4.0061,3.9727,3.9702,3.9783,4.0426,4.1691,4.1735,4.2025,4.2619,4.2609,4.2609,4.2609,4.2609,4.2649,4.2698,4.2649,4.2609,4.2609,4.2609,4.2609,4.2609,4.2599,4.2755,4.2991,4.2991,4.2759,4.2484,4.308,4.2505,4.1539,0.0,0.0,0.0,0.0,0.0,0.0,0.0,3.7682,3.7304,3.7304,3.6547,3.5702,3.4865,3.4551,3.4042,3.3188,0.0,0.0,0.0,0.0,0.0,0.0,0.0,0.0,0.0,0.0,3.3102,3.3102,3.3102,3.3102,3.3102,3.3102,3.3102,3.3102,3.3102,3.3102,0.0,0.0,0.0,0.0,0.0,0.0,3.5665,0.0,0.0,0.0,0.0,0.0,0.0,0.0,0.0,0.0,0.0,0.0,0.0,4.0567,4.0773,4.0974,4.1087,4.0436,3.9851,4.0256,4.0484,4.0507,4.0068,4.0297,4.0388,3.9641,3.9236,3.8935,3.8655,3.8211,3.7839,3.7715,3.7987,3.8257,3.8433,3.9974,4.0974,4.0758,4.1461,4.1975,4.1975,4.1975,4.1774,4.1312,4.1102,4.0436,3.9146,3.9112,3.9512,4.0373,4.1243,4.1794,4.1991,4.2388,4.239,4.1984,4.1984,4.1761,4.1357,4.1792,4.2067,4.2196,4.2196,4.2293,4.2424,4.1972,4.1827,4.1914,4.1914,4.1831,4.1762,4.2096,4.1951,4.166,0.0,0.0,0.0,0.0,0.0,0.0,0.0,3.773,3.7395,3.7395,3.636,3.5406,3.4916,3.4291,3.3696,3.3156,0.0,0.0,0.0,0.0,0.0,0.0,0.0,0.0,0.0,3.3102,3.3102,3.3102,3.3102,3.3102,3.3102,3.3102,3.3102,3.3102,3.3102,3.3102,0.0,0.0,0.0,0.0,0.0,0.0,3.5695,0.0,0.0,0.0,0.0,0.0,0.0,0.0,0.0,0.0,0.0,0.0,0.0,0.0,4.0394,4.0736,4.0772,4.0305,3.9838,3.9974,4.0179,4.0193,3.9635,3.9851,3.9952,3.9197,3.8825,3.8585,3.8476,3.7983,3.7648,3.7799,3.8052,3.8328,3.8582,4.0052,4.1007,4.0794,4.1433,4.1877,4.1877,4.1877,4.1718,4.1282,4.1046,4.0408,3.9242,3.8722,3.8647,3.9064,4.0098,4.075,4.0987,4.1579,4.1694,4.1325,4.1325,4.1103,4.0709,4.1135,4.1395,4.1517,4.1586,4.1715,0.0,4.1528,4.1434,4.1507,4.1507,4.1585,4.1683,4.1804,4.1841,4.1862,0.0,0.0,0.0,0.0,0.0,0.0,0.0,0.0,0.0,3.8018,3.6494,3.5413,3.5413,3.4037,3.3102,3.3102,0.0,0.0,0.0,0.0,0.0,0.0,0.0,0.0,0.0,3.3102,3.3102,3.3102,3.3102,3.3102,3.3102,3.3102,3.3102,3.3102,3.3102,3.3102,0.0,0.0,0.0,0.0,0.0,0.0,0.0,0.0,0.0,0.0,0.0,0.0,0.0,0.0,0.0,0.0,0.0,0.0,0.0,0.0,0.0,0.0,0.0,3.9927,3.9682,3.9135,3.9546,3.9816,3.8775,3.9144,0.0,3.8865,3.8755,3.8582,3.8016,3.7811,3.7834,3.8178,3.8363,3.8795,3.9714,4.0026,4.0322,4.0728,4.0734,4.0702,4.0702,4.0744,4.0758,4.0758,4.0291,3.9978,3.9925,3.8773,3.8074,3.8032,3.8643,3.9215,3.9739,4.0389,4.0702,4.0702,4.0702,4.0702,4.0702,4.0702,4.0712,4.072,4.093,4.1011,4.1043,4.1297,4.1518,4.1698,4.1698,4.1852,4.2092,4.2092,4.2092,4.2107,0.0,0.0,0.0,0.0,0.0,0.0,0.0,0.0,0.0,0.0,3.4736,3.3681,3.3681,3.3334,3.3102,0.0,0.0,0.0,0.0,0.0,0.0,0.0,0.0,0.0,0.0,3.3102,3.3102,3.3102,3.3102,3.3102,3.3102,3.3102,3.3102,3.3102,3.3102,0.0,0.0,0.0,0.0,0.0,0.0,0.0,0.0,0.0,0.0,0.0,3.8202,3.8202,0.0,0.0,0.0,0.0,0.0,0.0,0.0,0.0,3.9015,3.9407,3.9407,0.0,4.0006,3.9846,3.9835,3.9683,0.0,3.8927,3.886,3.8246,3.8236,3.8259,3.7949,3.8409,3.8755,3.8534,3.9462,4.0241,4.0321,4.0588,4.095,4.1402,4.1008,4.0702,4.0702,4.1112,4.1393,4.1393,4.1738,4.171,4.1197,4.0463,3.9827,3.9363,3.9514,3.943,3.9117,4.0164,4.0702,4.0702,4.0702,4.0702,4.0702,4.0702,4.0784,4.0926,4.0979,4.1121,4.1308,4.1375,4.1518,4.1698,4.1698,4.1852,4.2092,4.2092,4.2092,4.2165,0.0,0.0,0.0,0.0,0.0,0.0,0.0,0.0,0.0,0.0,0.0,0.0,0.0,0.0,0.0,0.0,0.0,0.0,0.0,0.0,0.0,0.0,0.0,0.0,3.3102,3.3102,3.3102,3.3102,3.3102,3.3102,3.3102,3.3102,3.3102,3.3102,3.3102,0.0,0.0,0.0,0.0,0.0,3.4965,0.0,0.0,0.0,0.0,0.0,3.8202,3.8202,0.0,3.8202,3.8202,3.8202,0.0,0.0,0.0,0.0,3.8463,3.8739,3.8739,3.9407,4.0031,3.9765,3.9609,3.9362,3.8722,3.8553,3.8428,3.8101,3.8364,3.8629,3.8519,3.904,3.9598,3.995,4.0456,4.082,4.0905,4.088,4.0993,4.1342,4.1337,4.1325,4.1432,4.1901,4.2202,4.2202,4.244,4.2441,4.2078,4.146,4.0969,4.0631,4.0631,4.0206,3.9317,4.0235,4.0702,4.0702,4.0702,4.0702,4.0702,4.0702,4.0802,4.1001,4.1001,4.1205,4.1539,4.1539,4.1664,4.1916,4.2187,4.239,4.2552,4.2872,4.2963,4.3017,0.0,0.0,0.0,0.0,0.0,0.0,0.0,0.0,0.0,0.0,0.0,0.0,0.0,0.0,0.0,0.0,0.0,0.0,0.0,0.0,0.0,0.0,0.0,3.3102,3.3102,3.3102,3.3102,3.3102,3.3102,3.3102,3.3102,3.3102,3.3102,3.3102,3.3102,0.0,0.0,0.0,0.0,0.0,3.4982,0.0,0.0,0.0,0.0,0.0,0.0,0.0,0.0,3.8202,3.8202,3.8202,3.8202,0.0,0.0,0.0,0.0,0.0,3.8202,3.8986,3.9683,3.9175,3.9044,3.8899,3.8333,3.8202,3.8231,3.8333,3.8797,3.9223,3.9272,3.968,4.0336,4.1381,4.125,4.1097,4.1394,4.1107,4.0901,4.1032,4.1632,4.2105,4.2238,4.2723,4.3015,4.2985,4.2919,4.2862,4.2862,4.2247,4.1885,4.1885,4.1834,4.1318,4.0284,4.0653,4.0786,4.0702,4.072,4.0741,4.0741,4.0741,4.0869,4.1068,4.1121,4.1401,4.1804,4.1905,4.2088,4.2384,4.2892,4.3116,4.322,4.3787,4.4004,4.4019,0.0,0.0,0.0,0.0,0.0,0.0,0.0,0.0,0.0,0.0,0.0,0.0,0.0,0.0,0.0,0.0,0.0,0.0,0.0,0.0,0.0,0.0,3.3102,3.3102,3.3102,3.3102,3.3102,3.3102,3.3102,3.3102,3.3102,3.3102,3.3102,3.3102,3.3102,3.3102,3.3102,0.0,0.0,0.0,3.5227,0.0,0.0,0.0,0.0,0.0,0.0,0.0,0.0,3.8202,3.8202,3.8202,3.8202,0.0,0.0,0.0,0.0,0.0,3.8202,3.8347,3.8463,3.8376,3.8352,3.8333,3.8217,3.8202,3.8362,3.8928,3.9131,3.9305,3.9655,4.036,4.0917,4.0928,4.1474,4.1848,4.1677,4.1583,4.1493,4.136,4.1882,4.2209,4.2062,4.302,4.359,4.3423,4.3858,4.4118,4.4118,4.354,4.3202,4.3202,4.2884,4.2614,4.243,4.1773,4.1211,4.0702,4.0876,4.0947,4.0947,4.0947,4.1089,4.1357,4.1692,4.1981,4.2246,4.2814,4.3185,4.3376,4.3463,4.3654,4.3859,4.3961,4.4004,4.4077,0.0,0.0,0.0,0.0,0.0,0.0,0.0,0.0,0.0,0.0,0.0,0.0,0.0,0.0,0.0,0.0,0.0,0.0,0.0,0.0,0.0,3.3102,3.3102,3.3102,3.3102,3.3102,3.3102,3.3102,3.3102,3.3102,3.3102,3.3102,3.3102,3.3102,3.3102,3.3102,3.3102,0.0,0.0,0.0,0.0,0.0,0.0,0.0,0.0,0.0,0.0,0.0,0.0,0.0,3.8202,3.8202,3.8202,0.0,0.0,0.0,0.0,0.0,3.8202,3.8202,3.8202,3.8202,3.8202,3.8202,3.8202,3.8478,3.8826,3.9146,3.9755,4.0277,4.0467,4.1131,4.1611,4.1515,4.2009,4.226,4.1766,4.1608,4.1539,4.156,4.2321,4.2842,4.2857,4.3754,4.4298,4.4209,4.4326,4.4399,4.4399,4.4271,4.4142,4.3989,4.3949,4.3749,4.3384,4.3,4.2559,4.2103,4.2057,4.2097,4.2241,4.2086,4.2227,4.2589,4.2663,4.29,4.3232,4.3397,4.3603,4.3853,4.4171,4.4381,4.4527,4.489,4.5035,4.5064,0.0,0.0,0.0,0.0,0.0,0.0,0.0,0.0,0.0,0.0,0.0,0.0,0.0,0.0,0.0,0.0,0.0,0.0,0.0,0.0,3.3102,3.3102,3.3102,3.3102,3.3102,3.3102,3.3102,3.3102,3.3102,3.3102,3.3102,3.3102,3.3102,3.3102,3.3102,3.3102,3.3113,3.3315,0.0,0.0,0.0,0.0,0.0,0.0,0.0,0.0,0.0,0.0,0.0,0.0,0.0,0.0,0.0,0.0,0.0,3.8202,3.8202,3.8202,3.8202,3.8202,3.8202,3.8202,3.8202,3.8246,3.8405,3.8826,3.9281,3.9581,4.0423,4.1192,4.1482,4.1961,4.231,4.231,4.2449,4.2377,4.1872,4.1668,4.1673,4.1967,4.2819,4.3467,4.3724,4.4427,4.4853,4.4809,4.4656,4.456,4.456,4.4702,4.4716,4.4492,4.4679,4.4557,4.4049,4.4092,4.3796,4.3198,4.3065,4.3065,4.3198,4.3065,4.322,4.3599,4.3608,4.3848,4.4211,4.4153,4.4258,4.4498,4.4948,4.5122,4.5195,4.5703,4.5892,4.5892,0.0,0.0,0.0,0.0,0.0,0.0,0.0,0.0,0.0,0.0,0.0,0.0,0.0,0.0,0.0,0.0,0.0,0.0,0.0,0.0,3.3102,3.3102,3.3102,3.3102,3.3102,3.3102,3.3102,3.3102,3.3102,3.3102,3.3102,3.3102,3.3102,3.3102,3.3102,3.3102,3.3144,3.3958,3.4762,0.0,0.0,0.0,0.0,0.0,0.0,0.0,0.0,0.0,0.0,0.0,0.0,0.0,0.0,0.0,3.8202,3.8202,3.8202,3.8202,3.8202,3.8202,3.8202,3.8202,3.8202,3.8352,3.8986,3.9175,3.9538,4.0713,4.1043,4.1464,4.2654,4.2901,4.2944,4.2944,4.2488,4.2129,4.2086,4.2061,4.2254,4.284,4.3308,4.3727,4.4123,4.4727,4.5,4.4806,4.4954,4.5043,4.5043,4.4887,4.4797,4.4774,4.4797,4.4781,4.4727,4.4906,4.4317,4.2932,4.3153,4.3142,4.2943,4.3165,4.3388,4.3624,4.4237,4.4626,4.4875,4.5488,4.575,4.5761,4.5805,4.5834,4.5834,4.5877,4.5892,4.5892,0.0,0.0,0.0,0.0,0.0,0.0,0.0,0.0,0.0,0.0,0.0,0.0,0.0,0.0,0.0,0.0,0.0,0.0,0.0,0.0,3.3102,3.3102,3.3102,3.3102,3.3102,3.3102,3.3102,3.3102,3.3102,3.3102,3.3102,3.3102,3.3102,3.3102,3.3102,3.3102,3.3167,3.4021,3.4865,3.5675,0.0,0.0,0.0,0.0,0.0,0.0,0.0,0.0,0.0,0.0,3.8202,3.8202,3.8202,3.8202,3.8202,3.8202,3.8202,3.8202,3.8202,3.8202,3.8304,3.8725,3.8826,3.8884,3.9146,3.9813,4.0525,4.1004,4.1424,4.1976,4.2843,4.2687,4.2567,4.2944,4.2484,4.2092,4.2092,4.2092,4.2324,4.293,4.3358,4.3818,4.4384,4.4832,4.5066,4.5,4.4931,4.4922,4.4922,4.4841,4.4809,4.4809,4.4809,4.4853,4.4989,4.5055,4.4824,4.4263,4.4379,4.4458,4.4525,4.4615,4.4809,4.5036,4.5304,4.545,4.5543,4.579,4.5892,4.5892,4.5892,4.5892,4.5892,4.5892,4.5892,4.5892,0.0,0.0,0.0,0.0,0.0,0.0,0.0,0.0,0.0,0.0,0.0,0.0,0.0,0.0,0.0,0.0,0.0,0.0,0.0,3.3102,3.3102,3.3102,3.3102,3.3102,3.3102,3.3102,3.3102,3.3102,3.3102,3.3102,3.3102,3.3102,3.3102,3.3102,3.3102,3.3102,3.3165,3.4298,3.5098,3.5695,3.6854,3.7663,0.0,0.0,0.0,0.0,0.0,0.0,0.0,0.0,3.8202,3.8202,3.8202,3.8202,3.8202,3.8202,3.8202,3.8202,3.8202,3.8352,3.8623,3.9088,3.9509,3.9799,3.9799,4.0466,4.1159,4.1366,4.2092,4.277,4.2959,4.2843,4.277,4.2974,4.2484,4.2092,4.2092,4.2266,4.2625,4.3249,4.3672,4.4165,4.4821,4.5097,4.5193,4.5112,4.5046,4.498,4.4899,4.483,4.4809,4.4809,4.4728,4.4783,4.5,4.5012,4.5032,4.5101,4.5193,4.5273,4.539,4.5458,4.5595,4.5779,4.5858,4.5892,4.5892,4.5892,4.5892,4.5892,4.5892,4.5892,4.5892,4.5892,4.5892,4.5892,0.0,0.0,0.0,0.0,0.0,0.0,0.0,0.0,0.0,0.0,0.0,0.0,0.0,0.0,0.0,0.0,0.0,0.0,3.3102,3.3102,3.3102,3.3102,3.3102,3.3102,3.3102,3.3102,3.3102,3.3102,3.3102,3.3102,3.3102,3.3102,3.3102,3.3102,3.3102,3.3102,3.3208,3.489,3.5595,3.5745,3.7505,3.8202,0.0,0.0,0.0,0.0,0.0,0.0,0.0,0.0,3.8202,3.8202,3.8202,3.8202,3.8202,3.8202,3.8202,3.8217,3.8217,3.8696,3.9218,3.9218,4.0162,4.1091,4.1105,4.1105,4.1308,4.1961,4.3119,4.3787,4.3119,4.354,4.3772,4.3119,4.2484,4.2092,4.2092,4.2625,4.3249,4.3917,4.4359,4.4846,4.5446,4.5504,4.539,4.5135,4.5356,4.539,4.5112,4.4911,4.4809,4.4809,4.4539,4.4527,4.4795,4.4809,4.4911,4.5112,4.539,4.5367,4.5112,4.539,4.5504,4.5515,4.5779,4.5892,4.5892,4.5892,4.5892,4.5892,4.5892,4.5892,4.5892,4.5892,4.5892,4.5892,0.0,0.0,0.0,0.0,0.0,0.0,0.0,0.0,0.0,0.0,0.0,0.0,0.0,0.0,0.0,0.0,0.0,0.0,3.3102,3.3102,3.3102,3.3102,3.3102,3.3102,3.3102,3.3102,3.3102,3.3102,3.3102,3.3102,3.3102,3.3102,3.3102,3.3102,3.3102,3.3102,3.3208,3.489,3.5595,3.5745,3.7505,3.8202,0.0,0.0,0.0,0.0,0.0,0.0,0.0,0.0,0.0,0.0,3.8202,3.8202,3.8202,3.8202,3.8536,3.8899,3.8899,3.9363,3.9954,4.0423,4.0815,4.1221,4.17,4.2131,4.2484,4.2687,4.2698,4.2727,4.2959,4.2828,4.2741,4.2959,4.2484,4.2092,4.2092,4.2625,4.3249,4.3917,4.4487,4.5066,4.5721,4.5779,4.5756,4.5677,4.539,4.5181,4.5101,4.4723,4.4679,4.5,4.4795,4.4876,4.5287,4.5287,4.5321,4.539,4.564,4.5629,4.539,4.5651,4.5779,4.579,4.5869,4.5892,4.5892,4.5892,4.5892,4.5892,4.5892,4.5892,4.5892,4.5892,4.5892,4.5892,0.0,0.0,0.0,0.0,0.0,0.0,0.0,0.0,0.0,0.0,0.0,0.0,0.0,0.0,0.0,0.0,0.0,0.0,0.0,0.0,3.3102,3.3102,3.3102,3.3102,3.3102,3.3102,3.3102,3.3102,3.3102,3.3102,3.3102,3.3102,3.3102,3.3102,3.3102,3.3293,3.3694,3.5043,3.5799,3.6237,3.7644,3.8202,3.8202,0.0,0.0,0.0,0.0,0.0,0.0,0.0,0.0,0.0,3.8202,3.8202,3.8251,3.8522,3.8875,3.9247,3.9494,4.0017,4.0583,4.1004,4.1294,4.1671,4.231,4.2552,4.264,4.264,4.2538,4.2509,4.2625,4.2538,4.2509,4.2625,4.2349,4.2092,4.2092,4.2857,4.3554,4.3961,4.4774,4.5456,4.5848,4.5892,4.5813,4.5595,4.5273,4.5066,4.4989,4.4714,4.4737,4.5089,4.4977,4.5104,4.5504,4.5504,4.5549,4.5651,4.5824,4.5824,4.5651,4.5824,4.5892,4.5892,4.5892,4.5892,4.5892,4.5892,4.5892,4.5892,4.5892,4.6051,4.6258,4.6258,4.6429,4.6647,0.0,0.0,0.0,0.0,0.0,0.0,0.0,0.0,0.0,0.0,0.0,0.0,0.0,0.0,0.0,0.0,0.0,0.0,0.0,0.0,3.3102,3.3102,3.3102,3.3102,3.3102,3.3102,3.3102,3.3102,3.3102,3.3102,3.3102,3.3102,3.3102,3.3102,3.3176,3.3664,3.446,3.5339,3.6181,3.6985,3.7848,3.8202,3.8202,3.8202,0.0,0.0,0.0,0.0,0.0,0.0,0.0,0.0,3.8202,3.8246,3.8405,3.903,3.9276,3.9494,4.0046,4.067,4.1192,4.1192,4.1652,4.2237,4.2789,4.2484,4.2117,4.2165,4.2571,4.2756,4.2194,4.2552,4.2741,4.2179,4.2092,4.2092,4.2092,4.3206,4.4004,4.4004,4.5122,4.5892,4.5892,4.5892,4.57,4.517,4.5135,4.5058,4.483,4.483,4.4922,4.5135,4.5135,4.5261,4.5526,4.5538,4.5695,4.5979,4.5979,4.6008,4.6066,4.595,4.5892,4.5892,4.5892,4.5935,4.5979,4.5979,4.6022,4.6066,4.6066,4.6417,4.6888,4.6888,4.7233,4.7706,0.0,0.0,0.0,0.0,0.0,0.0,0.0,0.0,0.0,0.0,0.0,0.0,0.0,0.0,0.0,0.0,0.0,0.0,0.0,0.0,3.3102,3.3102,3.3102,3.3102,3.3102,3.3102,3.3102,3.3102,3.3102,3.3102,3.3102,3.3102,3.3102,3.3122,3.3823,3.422,3.4501,3.5986,3.6727,3.6985,3.7848,3.8202,3.8202,3.8202,3.8202,0.0,0.0,0.0,0.0,0.0,0.0,0.0,3.8202,3.8556,3.9015,3.916,3.99,4.0713,4.0844,4.1366,4.1874,4.1874,4.199,4.2121,4.2266,4.2179,4.2223,4.2712,4.2538,4.2252,4.2121,4.2219,4.2248,4.2121,4.2092,4.2092,4.2092,4.3206,4.4004,4.4004,4.5122,4.5892,4.5892,4.5892,4.5768,4.5447,4.5413,4.5296,4.5043,4.5046,4.5147,4.5413,4.5413,4.5538,4.5813,4.5813,4.6082,4.6612,4.6612,4.6885,4.7355,4.6356,4.5892,4.5892,4.5892,4.6171,4.6612,4.6612,4.6925,4.7399,4.7399,4.746,4.7579,4.7579,4.7346,4.703,0.0,0.0,0.0,0.0,0.0,0.0,0.0,0.0,0.0,0.0,0.0,0.0,0.0,0.0,0.0,0.0,0.0,0.0,0.0,0.0,0.0,3.3102,3.3102,3.3102,3.3102,3.3102,3.3102,3.3102,3.3102,3.3102,0.0,0.0,3.3326,3.3728,3.3759,3.4468,3.5629,3.6082,3.6766,3.7558,3.8018,3.8202,3.8202,3.8202,3.8202,3.8202,3.8202,0.0,0.0,0.0,0.0,0.0,0.0,0.0,3.932,3.9929,4.0583,4.1163,4.1482,4.1831,4.2092,4.2092,4.2092,4.2092,4.2092,4.2092,4.2266,4.2886,4.2523,4.2092,4.2092,4.2092,4.2092,4.2092,4.2092,4.2194,4.2484,4.338,4.4106,4.4396,4.5296,4.5892,4.5892,4.5892,4.579,4.5515,4.5504,4.5447,4.5296,4.5284,4.5413,4.5688,4.5977,4.6049,4.5892,4.6501,4.6809,4.6789,4.7132,4.7462,4.7776,4.7108,4.6818,4.6818,4.6818,4.6995,4.7288,4.7288,4.7303,4.732,4.732,4.732,4.732,4.732,4.7303,4.732,0.0,0.0,0.0,0.0,0.0,0.0,0.0,0.0,0.0,0.0,0.0,0.0,0.0,0.0,0.0,0.0,0.0,0.0,0.0,0.0,0.0,3.3102,3.3102,3.3102,3.3102,3.3102,3.3102,3.3102,3.3102,0.0,0.0,0.0,0.0,3.4157,3.3725,3.4697,3.6649,3.6227,3.6879,3.8202,3.8202,3.8202,3.8202,3.8202,0.0,3.8202,3.8202,3.8202,3.8217,3.8333,0.0,0.0,0.0,0.0,3.9741,4.0786,4.1178,4.1381,4.1957,4.2092,4.2092,4.2092,4.2092,4.2131,4.2223,4.2262,4.2436,4.3046,4.2673,4.2281,4.2407,4.2436,4.2436,4.2436,4.2436,4.26,4.3104,4.3743,4.4338,4.4832,4.5485,4.5892,4.5892,4.5892,4.579,4.5515,4.5538,4.5549,4.5504,4.5538,4.572,4.6055,4.6435,4.6508,4.6226,4.7155,4.7462,4.7149,4.7811,4.8125,4.8125,4.8125,4.8009,4.7791,4.7677,4.7692,4.7791,4.7677,4.7375,4.6975,4.6975,4.6975,4.6989,4.7079,4.7407,4.7881,0.0,0.0,0.0,0.0,0.0,0.0,0.0,0.0,0.0,0.0,0.0,0.0,0.0,0.0,0.0,0.0,0.0,0.0,3.3102,0.0,0.0,3.3102,3.3102,3.3102,3.3102,3.3102,3.3102,3.3102,0.0,0.0,0.0,0.0,0.0,3.3336,0.0,3.5467,3.5855,3.7261,3.799,3.8202,3.8202,3.8202,3.8202,0.0,0.0,3.8202,3.8202,3.8202,3.8289,3.887,3.9073,0.0,0.0,0.0,4.0873,4.1047,4.1512,4.199,4.2078,4.2092,4.2092,4.2092,4.2092,4.2248,4.277,4.2886,4.3075,4.3728,4.3351,4.3061,4.3641,4.3743,4.3743,4.3743,4.3743,4.3761,4.3859,4.4396,4.4803,4.489,4.5485,4.5892,4.5892,4.5892,4.579,4.5515,4.5722,4.5756,4.5515,4.5722,4.6108,4.6656,4.6258,4.6516,4.7544,4.7132,4.7439,4.8455,4.9129,4.9446,4.9446,4.9446,4.8836,4.7776,4.719,4.7262,4.775,4.7175,4.7219,4.7663,4.7663,4.7663,4.7735,4.8249,4.8162,4.7881,0.0,0.0,0.0,0.0,0.0,0.0,0.0,0.0,0.0,0.0,0.0,0.0,0.0,0.0,0.0,3.3102,3.3102,3.3102,3.3102,3.3102,3.3102,3.3102,3.3102,3.3102,3.3102,3.3102,3.3102,3.3102,0.0,0.0,0.0,3.3326,3.3598,0.0,0.0,0.0,0.0,3.7352,3.7739,3.8202,3.8202,3.8202,3.8202,0.0,0.0,0.0,0.0,0.0,3.9305,3.9596,3.9697,3.9813,4.0462,0.0,0.0,0.0,4.186,4.2092,4.2092,4.2092,4.2092,4.2092,4.2353,4.2658,4.2944,4.3293,4.3743,4.4367,4.4266,4.4048,4.4019,4.4004,4.4004,4.4004,4.4004,4.412,4.4454,4.473,4.5035,4.5424,4.5717,4.5892,4.5892,4.5892,4.5847,4.5734,4.6146,4.6212,4.5748,4.6517,4.6911,4.6789,4.7248,4.7579,4.7805,4.8229,4.8711,4.9262,4.955,4.9693,4.9693,4.9693,4.9388,4.8851,4.8548,4.8592,4.8836,4.8548,4.8185,4.7834,4.8174,4.7869,4.732,4.7956,4.804,4.7881,0.0,0.0,0.0,0.0,0.0,0.0,0.0,0.0,0.0,0.0,0.0,0.0,0.0,0.0,0.0,0.0,3.3432,3.3336,3.3113,3.3102,3.3102,3.3102,3.3102,3.3102,3.3102,3.3102,3.3102,0.0,0.0,0.0,3.4052,3.3839,3.4397,0.0,3.4965,3.5886,0.0,0.0,0.0,0.0,3.8202,3.8202,0.0,0.0,0.0,0.0,0.0,0.0,4.0128,4.0292,4.035,4.0466,4.1134,4.1352,0.0,0.0,0.0,4.2092,4.2092,4.2092,4.2146,4.2281,4.2669,4.3079,4.3409,4.3874,4.4396,4.5032,4.5151,4.5021,4.457,4.4483,4.4483,4.4483,4.4483,4.4643,4.5093,4.5151,4.534,4.5834,4.5892,4.5892,4.5892,4.5892,4.5964,4.6113,4.654,4.6682,4.64,4.7271,4.7637,4.7282,4.8048,4.8406,4.8284,4.9228,4.9693,4.9693,4.9693,4.9693,4.9693,4.9693,4.9693,4.9693,4.9521,4.9449,4.9434,4.9286,4.8662,4.7837,4.8304,4.7886,4.7132,4.7782,4.804,4.8127,0.0,0.0,0.0,0.0,0.0,0.0,0.0,0.0,0.0,0.0,0.0,0.0,0.0,3.5305,3.4335,3.4335,3.4335,3.3981,3.3144,3.3102,3.3102,3.3102,3.3102,0.0,3.3102,3.3102,3.3102,0.0,0.0,0.0,3.3197,3.4746,3.5514,3.5595,3.5568,3.6068,3.7024,0.0,0.0,0.0,0.0,0.0,0.0,0.0,0.0,0.0,0.0,4.0075,4.0191,4.0829,4.1057,4.1163,4.1841,4.2059,4.2049,0.0,0.0,0.0,4.2092,4.2092,4.2248,4.2814,4.2988,4.3322,4.4527,4.4832,4.5035,4.5703,4.5848,4.5845,4.5805,4.579,4.579,4.579,4.579,4.5805,4.5834,4.5848,4.5848,4.5892,4.5892,4.5892,4.5892,4.5892,4.6142,4.6714,4.6775,4.7062,4.7663,4.775,4.8055,4.8585,4.8101,4.8415,4.9591,4.9664,4.9693,4.9693,4.9693,4.9693,4.9693,4.9693,4.9693,4.9664,4.9018,4.8745,4.8701,4.8127,4.7863,4.7805,4.7834,4.782,4.7823,4.8423,4.8643,4.8757,0.0,0.0,0.0,0.0,0.0,0.0,0.0,0.0,0.0,0.0,0.0,0.0,0.0,3.5863,3.5166,3.5166,3.5166,3.4824,3.3989,3.4421,3.4473,3.396,3.3926,3.3926,3.3926,3.339,0.0,0.0,0.0,3.4496,3.4715,3.5325,3.6197,3.7242,3.6674,3.6922,3.7739,3.808,0.0,0.0,0.0,0.0,0.0,0.0,0.0,4.0452,4.0655,4.1018,4.1424,4.1667,4.1744,4.1787,4.202,4.2092,4.2092,4.2092,4.2092,4.2092,4.2092,4.2092,4.2237,4.2857,4.3322,4.3859,4.4701,4.5224,4.5601,4.5848,4.5892,4.5892,4.5892,4.5892,4.5892,4.5892,4.5892,4.6037,4.6421,4.6479,4.6638,4.7068,4.7123,4.7123,4.7123,4.7123,4.7213,4.7433,4.7799,4.7959,4.782,4.8575,4.8926,4.8701,4.8911,4.9243,4.9693,4.9693,4.9693,4.9693,4.9693,4.9693,4.9693,4.9693,4.9693,4.9693,4.9449,4.9347,4.9332,4.9112,4.8766,4.8409,4.8853,4.8766,4.8452,4.9103,4.9347,4.9376,0.0,0.0,0.0,0.0,0.0,0.0,0.0,0.0,0.0,0.0,0.0,0.0,0.0,0.0,3.6039,3.6039,3.5765,3.5366,3.4834,3.5295,3.5237,3.4439,3.4651,3.4672,3.4408,3.4102,0.0,0.0,0.0,0.0,0.0,3.6207,3.6928,3.7739,3.7462,3.7653,0.0,0.0,0.0,3.8217,0.0,0.0,3.9247,3.9668,4.0365,4.1134,4.1352,4.1715,4.2092,4.2092,4.2092,4.2092,4.2092,4.2092,0.0,0.0,4.2092,4.2092,4.2092,4.2248,4.2552,4.3177,4.383,4.4469,4.5093,4.5572,4.5892,4.5892,4.5892,4.5892,4.5892,4.5892,4.5964,4.6171,4.62,4.6417,4.7044,4.7146,4.7303,4.775,4.7805,4.7805,4.7805,4.7805,4.7881,4.8087,4.8467,4.8626,4.8459,4.9243,4.9492,4.9047,4.9463,4.9693,4.9693,4.9693,4.9693,4.9693,4.9693,4.9693,4.9693,4.9693,4.9693,4.9693,4.9693,4.9693,4.9693,4.9693,4.9434,4.9088,4.9533,4.9434,4.9088,4.9536,4.9693,4.9693,0.0,0.0,0.0,0.0,0.0,0.0,0.0,0.0,0.0,0.0,0.0,0.0,0.0,0.0,0.0,3.6946,3.6158,3.5665,3.5635,3.5655,3.5318,3.4512,3.5217,3.5268,3.4491,3.5207,0.0,0.0,0.0,0.0,0.0,0.0,3.7739,3.6985,3.782,3.8202,3.8202,0.0,3.8217,3.8289,3.8942,3.9218,3.9392,4.0626,4.1105,4.1207,4.186,4.2092,4.2092,4.2092,4.2092,4.2092,4.2092,0.0,0.0,0.0,0.0,0.0,0.0,0.0,0.0,4.3859,4.4469,4.5079,4.5746,4.5892,4.5892,4.5892,4.5892,4.5892,4.5892,4.5892,4.6098,4.6699,4.6789,4.7033,4.7735,4.7834,4.7834,4.7852,4.7863,4.7863,4.7863,4.7863,4.8098,4.8687,4.873,4.9003,4.9664,4.9693,4.9693,4.9693,4.9693,4.9693,4.9693,4.9693,4.9693,4.9693,4.9693,4.9693,4.9693,4.9693,4.9693,4.9693,4.9693,4.9693,4.9693,4.9693,4.9693,4.9693,4.9693,4.9693,4.9693,4.9693,4.9693,4.9693,0.0,0.0,0.0,0.0,0.0,0.0,0.0,0.0,0.0,0.0,0.0,0.0,0.0,0.0,3.7839,3.7839,3.761,3.7203,3.6576,3.7126,3.7097,3.6245,3.6423,3.6443,3.6205,3.5799,3.5595,0.0,0.0,3.6776,3.6557,3.7682,0.0,0.0,3.8099,3.8202,3.8202,3.8202,3.8478,3.8942,3.9131,3.9755,4.0612,4.096,4.1395,4.1856,4.2034,4.2092,4.2092,4.2092,4.2092,4.2092,4.2092,0.0,0.0,0.0,0.0,0.0,4.2756,0.0,0.0,0.0,0.0,0.0,4.5746,4.5892,4.5892,4.5892,4.5892,4.5892,4.5892,4.5892,4.6098,4.6699,4.6789,4.7193,4.8292,4.8452,4.8638,4.9127,4.917,4.917,4.917,4.917,4.9231,4.942,4.942,4.9492,4.9693,4.9693,4.9693,4.9693,4.9693,4.9693,4.9693,4.9693,4.9693,4.9693,4.9693,4.9693,4.9693,4.9693,4.9693,4.9693,4.9693,4.9693,4.9693,4.9693,4.9693,4.9693,4.9693,4.9693,4.9693,4.9693,4.9693,4.9583,0.0,0.0,0.0,0.0,0.0,0.0,0.0,0.0,0.0,0.0,0.0,0.0,0.0,0.0,0.0,3.8202,3.8202,3.7981,3.7481,3.7924,3.781,3.6946,3.7246,3.7265,3.6917,3.6762,3.667,3.667,3.7184,3.7443,3.7453,3.7962,0.0,0.0,0.0,0.0,0.0,0.0,3.8841,3.9218,3.9465,4.0191,4.1134,4.141,4.1769,4.2092,4.2092,4.2092,4.2092,4.2092,4.2092,4.2092,4.2092,4.2266,0.0,0.0,0.0,0.0,0.0,0.0,0.0,4.4803,0.0,0.0,4.5714,4.5546,4.5364,4.5813,4.5892,4.5892,4.5892,4.5892,4.6098,4.6699,4.6789,4.7239,4.8527,4.8945,4.9262,4.9649,4.9693,4.9693,4.9693,4.9693,4.9693,4.9693,4.9693,4.9693,4.9693,4.9693,4.9693,4.9693,4.9693,4.9693,4.9693,4.9693,4.9693,4.9693,4.9693,4.9693,4.9693,4.9693,4.9693,4.9693,4.9693,4.9693,4.9693,4.9693,4.9693,4.9693,4.9693,4.9693,4.9693,4.9693,4.9397,4.8902,0.0,0.0,0.0,0.0,0.0,0.0,0.0,0.0,0.0,0.0,0.0,0.0,0.0,0.0,0.0,0.0,3.8202,3.8202,3.8202,3.8202,3.7848,3.7082,3.7791,3.7839,3.7063,3.7801,3.8202,3.8202,3.8202,3.8202,3.8202,3.8202,0.0,0.0,0.0,0.0,0.0,3.8913,3.9233,3.9349,3.9958,4.0612,4.1279,4.1874,4.2092,4.2092,4.2092,4.2092,4.2092,4.2092,4.2136,4.2194,4.2194,4.2625,4.3119,4.3119,4.3583,0.0,0.0,0.0,0.0,4.4692,4.4402,0.0,4.5341,4.4816,4.4394,4.5364,4.5561,4.5561,4.5561,4.5561,4.5722,4.6276,4.642,4.698,4.8491,4.9107,4.9472,4.9681,4.9595,4.9559,4.9681,4.9693,4.9693,4.9693,4.9693,4.9693,4.9693,4.9693,4.9693,4.9693,4.9693,4.9693,4.9693,4.9693,4.9693,4.9693,4.9693,4.9693,4.9693,4.9693,4.9693,4.9693,4.9693,4.9693,4.9693,4.9693,4.9693,4.9693,4.9693,4.9693,4.9693,4.9693,4.8976,4.7983,0.0,0.0,0.0,0.0,0.0,0.0,0.0,0.0,0.0,0.0,0.0,0.0,0.0,0.0,0.0,0.0,3.8202,3.8202,3.8202,3.8202,3.8127,3.7952,3.8118,3.8127,3.7952,3.8118,3.8202,3.8202,3.8202,3.8202,3.8202,3.8202,0.0,0.0,0.0,0.0,0.0,3.8913,3.9479,3.9987,4.0641,4.1308,4.1918,4.2049,4.2092,4.2092,4.2092,4.2092,4.2092,4.2092,4.2411,4.2828,4.2828,4.3278,4.3801,4.3801,4.4237,4.4551,0.0,0.0,4.4211,4.3415,4.3141,0.0,4.3356,4.3237,4.3139,4.3356,4.3404,4.3404,4.3404,4.3404,4.3445,4.3555,4.3982,4.5337,4.8297,4.8072,4.8133,4.9537,4.8889,4.8688,4.9608,4.9693,4.9693,4.9693,4.9693,4.9693,4.9693,4.9693,4.9693,4.9693,4.9693,4.9693,4.9693,4.9693,4.9693,4.9693,4.9693,4.9693,4.9693,4.9693,4.9693,4.9693,4.9693,4.9693,4.9693,4.9693,4.9693,4.9693,4.9693,4.9693,4.9693,4.9693,4.8976,4.7869,0.0,0.0,0.0,0.0,0.0,0.0,0.0,0.0,0.0,0.0,0.0,0.0,0.0,0.0,0.0,0.0,0.0,0.0,0.0,3.8202,3.8202,3.8202,3.8202,3.8202,3.8202,3.8202,3.8202,3.8202,3.8202,3.8202,3.8202,3.8202,3.8202,0.0,0.0,0.0,3.8739,3.9378,4.0017,4.0626,4.096,4.1497,4.2092,4.2092,4.2092,4.2092,4.2092,4.2092,4.216,4.2451,4.2756,4.3061,4.3395,4.3932,4.4454,4.4454,4.4518,4.4482,4.3987,4.37,4.3426,4.2937,4.2404,0.0,0.0,4.2391,4.2146,4.2695,4.2804,4.2804,4.2804,4.2804,4.2804,4.2804,4.3048,4.3942,4.5931,4.6254,4.663,4.7502,4.7342,4.7383,4.7943,4.7993,4.8234,4.8815,4.8852,4.91,4.9669,4.9693,4.9693,4.9693,4.9693,4.9693,4.9693,4.9693,4.9693,4.9693,4.9693,4.9693,4.9693,4.9693,4.9693,4.9693,4.9693,4.9693,4.9693,4.9693,4.936,4.8914,4.9485,4.9693,4.9693,4.9693,4.8976,4.792,3.7874,0.0,0.0,0.0,0.0,0.0,0.0,0.0,0.0,0.0,0.0,0.0,0.0,0.0,0.0,0.0,0.0,0.0,3.8202,3.8202,3.8202,3.8202,3.8202,3.8202,3.8202,3.8202,3.8202,3.8202,3.8202,3.8202,3.8202,3.8202,3.8202,3.8202,3.8202,3.857,3.9247,3.9842,4.0481,4.1105,4.1236,4.1613,4.2092,4.2092,4.2092,4.2092,4.2092,4.2165,4.2349,4.2843,4.3162,4.3453,4.4004,4.46,4.5093,4.5093,4.4715,4.4266,4.4067,4.3271,4.2452,4.2245,4.1543,4.1132,0.0,0.0,0.0,4.2012,4.2196,4.2196,4.2196,4.2196,4.2181,4.2061,4.2141,4.2342,4.2715,4.3785,4.4783,4.5423,4.569,4.5949,4.6267,4.6211,4.6575,4.76,4.7783,4.8298,4.9324,4.9583,4.9693,4.9693,4.9693,4.9693,4.9693,4.9693,4.9693,4.9693,4.9693,4.9693,4.9681,4.9473,4.936,4.936,4.9137,4.905,4.905,4.905,4.8499,4.7793,4.8927,4.9235,4.905,4.905,4.8336,4.7358,3.7172,3.7839,0.0,0.0,3.8202,0.0,0.0,0.0,0.0,0.0,0.0,0.0,0.0,0.0,0.0,0.0,3.8202,3.8202,3.8202,3.8202,3.8202,3.8202,3.8202,3.8202,3.8202,3.8202,3.8202,3.8202,3.8202,3.8202,3.8202,3.8202,3.8202,3.8202,3.8202,3.857,3.9247,3.9842,4.0481,4.1149,4.1754,4.2034,4.2092,4.2092,4.2092,4.2092,4.2092,4.244,4.2915,4.2988,4.3743,4.4701,4.4774,4.5253,4.579,4.579,4.5072,4.4113,4.3199,4.2195,4.117,4.0275,3.9968,3.9903,4.0019,0.0,3.9903,4.0032,0.0,4.0045,4.0045,0.0,0.0,3.9411,3.9741,3.9905,3.95,4.0374,4.2163,4.5149,4.465,4.4666,4.6161,4.5871,4.5841,4.6449,4.6998,4.7545,4.8157,4.9151,4.9693,4.9693,4.9693,4.9693,4.9693,4.9693,4.9693,4.9693,4.9693,4.9693,4.9669,4.8651,4.8186,4.8135,4.7125,4.6685,4.6685,4.6685,4.662,4.6607,4.7754,4.7588,4.6685,4.6685,4.5992,4.5074,3.7056,3.7496,0.0,0.0,3.8202,3.8202,0.0,0.0,3.8202,3.8202,0.0,3.8202,3.8202,3.8202,3.8202,0.0,3.8202,3.8202,3.8202,3.8202,0.0,3.8202,3.8202,3.8202,3.8202,3.8202,3.8202,3.8202,3.8202,3.8202,3.8202,3.8202,3.8202,3.8217,3.8609,3.9131,3.9755,4.0408,4.1062,4.17,4.199,4.2092,4.2092,4.2092,4.2092,4.216,4.2509,4.2785,4.3119,4.3845,4.4454,4.4962,4.5354,4.5674,4.579,4.5141,4.4231,4.3199,4.2158,4.112,4.0236,3.9813,3.9697,3.9697,3.9697,3.9697,3.9697,3.9697,0.0,0.0,0.0,0.0,0.0,0.0,3.9559,3.9622,3.9396,3.9747,4.0678,4.2385,4.2753,4.3263,4.4292,4.4178,4.4422,4.5302,4.5605,4.6128,4.697,4.8083,4.8701,4.8701,4.936,4.9693,4.9693,4.9693,4.9693,4.9681,4.9026,4.8701,4.8676,4.7523,4.7009,4.6983,4.6516,4.6307,4.6307,4.6307,4.5926,4.5422,4.59,4.6176,4.6307,4.6307,4.6018,4.5635,3.6562,0.0,0.0,0.0,3.8202,3.8202,3.8202,3.8202,3.8202,3.8202,3.8202,3.8202,3.8202,3.8202,3.8202,3.8202,3.8202,3.8202,3.8202,3.8202,3.8202,3.8202,3.8202,3.8202,3.8202,3.8202,3.8202,3.8202,3.8202,3.8202,3.8202,3.8202,3.8304,3.8507,3.8986,3.9639,4.0408,4.0887,4.1482,4.2092,4.2092,4.2092,4.2092,4.2092,4.2092,4.2179,4.2774,4.3119,4.3438,4.4527,4.5021,4.5253,4.5746,4.5892,4.5742,4.4966,4.4008,4.2971,4.1913,4.0895,4.0045,3.9762,3.9697,3.9697,3.9697,3.9697,3.9697,3.9697,3.9697,0.0,0.0,0.0,3.9647,3.9509,0.0,3.9647,3.9496,3.9609,3.9898,4.0437,4.1507,4.235,4.2738,4.2776,4.3186,4.4166,4.4364,4.4863,4.582,4.6932,4.7677,4.7983,4.8802,4.9373,4.9693,4.9693,4.9547,4.9225,4.8401,4.7844,4.7499,4.6372,4.586,4.5847,4.5529,4.5409,4.5409,4.5409,4.494,4.4221,4.4221,4.4711,4.5409,4.5409,4.5409,4.5409,3.5334,3.6455,0.0,0.0,3.8202,3.8202,3.8202,3.8202,3.8202,3.8202,3.8202,3.8202,3.8202,3.8202,3.8202,3.8202,3.8202,3.8202,3.8202,3.8202,3.8202,3.8202,3.8202,3.8202,3.8202,3.8202,3.8202,3.8202,3.8202,3.8202,3.8202,3.8202,3.8551,3.9175,3.9189,3.99,4.1062,4.1091,4.1482,4.2092,4.2092,4.2092,4.2092,4.2092,4.2092,4.2179,4.2774,4.3424,4.4062,4.4687,4.5325,4.5863,4.5892,4.5892,4.588,4.5858,4.5084,4.4031,4.3019,4.1975,4.0919,3.9942,3.9697,3.9697,3.9697,3.9697,3.9697,3.9697,3.9697,3.9697,3.9697,3.9697,3.9534,0.0,3.9358,0.0,0.0,3.9371,3.9898,4.0437,4.1507,4.2199,4.2224,4.2238,4.2464,4.302,4.3541,4.4095,4.4711,4.5767,4.6854,4.7971,4.8034,4.8576,4.9681,4.9693,4.9151,4.8047,4.8021,4.7421,4.632,4.5248,4.4751,4.4696,4.3574,4.3113,4.3113,4.3113,4.3085,4.3044,4.3044,4.3071,4.3113,4.3113,4.3113,4.3113,0.0,0.0,0.0,3.7574,3.7941,3.8202,3.8202,3.8202,3.8202,3.8202,3.8202,3.8202,3.8202,3.8202,3.8202,3.8202,3.8202,3.8202,3.8202,3.8202,3.8202,3.8202,3.8202,3.8202,3.8202,3.8202,3.8202,3.8202,3.8202,3.8202,3.8217,3.8652,3.8986,3.9233,4.0075,4.0699,4.1134,4.157,4.1889,4.2092,4.2092,4.2092,4.2092,4.2092,4.2349,4.2774,4.3438,4.4062,4.4687,4.534,4.5703,4.5892,4.5892,4.5892,4.5768,4.5049,4.4582,4.3923,4.2207,4.1481,4.0957,3.9942,3.9697,3.9697,3.9697,3.9697,3.9697,3.9697,3.9697,3.9697,3.9697,3.9697,3.9634,0.0,0.0,3.9647,0.0,3.9597,3.9773,3.9948,4.0626,4.1368,4.2123,4.2199,4.2425,4.2964,4.3161,4.3356,4.3561,4.5315,4.649,4.6854,4.8336,4.8951,4.8576,4.8564,4.7995,4.688,4.615,4.5622,4.5195,4.407,4.3574,4.3546,4.3169,4.3002,4.3002,4.3002,4.3002,4.3002,4.3002,4.3214,4.349,4.3126,4.3226,4.3576,3.6866,3.7387,3.7674,3.7664,3.7962,3.8202,3.8202,3.8202,3.8202,3.8202,3.8202,3.8202,3.8202,3.8202,3.8202,3.8202,3.8202,3.8202,3.8202,3.8202,3.8202,3.8202,3.8202,3.8202,3.8202,3.8202,3.8202,3.8202,3.8202,3.8202,3.8217,3.8884,3.9305,3.9567,4.0626,4.1221,4.1482,4.1928,4.2092,4.2092,4.2092,4.2092,4.2092,4.2092,4.2469,4.309,4.3757,4.4382,4.4992,4.5674,4.5892,4.5892,4.5892,4.5892,4.5768,4.5072,4.4606,4.3923,4.2232,4.1493,4.0957,3.9942,3.9697,3.9697,3.9697,3.9697,3.9697,3.9697,3.9697,3.9697,3.9697,3.9697,3.9697,0.0,0.0,3.9697,0.0,3.9697,3.9697,3.9697,4.0161,4.0864,4.1795,4.206,4.2425,4.2964,4.3002,4.3002,4.3002,4.4738,4.5913,4.6294,4.8121,4.8738,4.8009,4.7996,4.7242,4.5728,4.502,4.4493,4.407,4.3337,4.3101,4.3289,4.3289,4.339,4.3578,4.3578,4.3578,4.3578,4.3578,4.3777,4.4028,4.349,4.3614,4.4152,3.6546,3.7611,3.8478,3.8372,3.8296,3.824,3.8212,3.8202,3.8202,3.8202,3.8202,3.8202,3.8202,3.8202,3.8202,3.8202,3.8202,3.8202,3.8202,3.8202,3.8202,3.8202,3.8202,3.8202,3.8202,3.8202,3.8202,3.8202,3.8202,3.8202,3.8217,3.8913,3.9552,4.0133,4.0839,4.1497,4.2092,4.2092,4.2092,4.2092,4.2092,4.2092,4.2092,4.2121,4.2523,4.3133,4.3772,4.4411,4.505,4.5688,4.5892,4.5892,4.5892,4.5892,4.5892,4.5892,4.5141,4.409,4.3081,4.2011,4.0957,3.9942,3.9697,3.9697,3.9697,3.9697,3.9697,3.9697,3.9697,3.9697,3.9697,3.9697,3.9697,0.0,0.0,3.9697,3.9697,3.9697,3.9697,3.9697,4.0162,4.0662,4.1214,4.1807,4.2387,4.2926,4.2989,4.3002,4.3002,4.4083,4.5168,4.6189,4.7318,4.7895,4.7844,4.7844,4.6751,4.4615,4.4615,4.4055,4.3052,4.3052,4.3339,4.384,4.384,4.4127,4.4589,4.4589,4.4589,4.4589,4.4589,4.4629,4.4591,4.4079,4.4217,4.4742,3.85,3.9375,3.9775,3.9156,3.9035,3.8835,3.8272,3.8202,3.8202,3.8202,3.8202,3.8202,3.8202,3.8202,3.8202,3.8202,3.8202,3.8202,3.8202,3.8202,3.8202,3.8202,3.8202,3.8202,3.8202,3.8202,3.8202,3.8202,3.8202,3.8202,3.8217,3.9349,3.9944,4.0147,4.1323,4.1932,4.2092,4.2092,4.2092,4.2092,4.2092,4.2092,4.216,4.2596,4.3166,4.3772,4.3932,4.4701,4.5659,4.5834,4.5892,4.5892,4.5892,4.5892,4.5892,4.5892,4.5141,4.409,4.3081,4.2011,4.0957,3.9942,3.9697,3.9697,3.9697,3.9697,3.9697,3.9697,3.9697,3.9697,3.9697,3.9697,3.9697,3.9697,3.9697,3.9697,3.9697,3.9697,3.9697,3.9697,3.9823,4.0124,4.065,4.1215,4.1781,4.2362,4.2776,4.3002,4.3002,4.4083,4.4832,4.5101,4.6176,4.6346,4.5555,4.5542,4.4832,4.3448,4.3448,4.3483,4.3589,4.3589,4.389,4.4391,4.4391,4.4478,4.4589,4.4589,4.4589,4.4589,4.4589,4.4867,4.5246,4.5108,4.5146,4.5347,3.9345,4.03,4.0832,4.0351,4.0006,3.9421,3.8365,3.8202,3.8202,3.8202,3.8202,3.8202,3.8202,3.8202,3.8202,3.8202,3.8202,3.8202,3.8202,3.8202,3.8202,3.8202,3.8202,3.8202,3.8202,3.8202,3.8202,3.8202,3.8202,3.8347,3.8667,3.9639,4.0259,4.0583,4.1628,4.2092,4.2092,4.2092,4.2092,4.2092,4.2092,4.2092,0.0,4.276,4.3424,4.4033,4.4295,4.5035,4.5892,4.5892,4.5892,4.5892,4.5892,4.5892,4.5813,4.5338,4.4455,4.3414,4.2378,4.1345,4.0415,3.9839,3.9873,4.0061,4.0061,4.0224,4.04,4.04,4.04,4.0324,4.0099,4.0061,3.9973,3.9735,3.9697,3.9697,3.9697,3.9697,3.9697,3.9697,3.9697,3.9823,4.0111,4.0851,4.1554,4.2149,4.27,4.3002,4.3002,4.4083,4.471,4.471,4.5513,4.5552,4.471,4.4448,4.3866,4.3002,4.3002,4.3277,4.3802,4.3802,4.4242,4.498,4.498,4.5118,4.5344,4.5344,4.5344,4.5344,4.5344,4.5545,4.5849,4.5849,4.5849,4.5886,3.9741,4.0819,4.1688,4.1537,4.0892,3.9929,3.8546,3.8268,3.8202,3.8202,3.8202,3.8202,3.8202,3.8202,3.8202,3.8202,3.8202,3.8202,3.8202,3.8202,3.8202,3.8202,3.8202,3.8202,3.8202,3.8202,3.8202,3.8202,3.8289,3.8638,3.9218,3.99,4.0539,4.1134,4.1802,4.2092,4.2092,4.2092,4.2092,4.2092,4.2092,4.2092,4.2179,4.2872,4.3496,4.4091,4.4774,4.5409,4.5892,4.5892,4.5892,4.5892,4.5892,4.5801,4.5501,4.4571,4.3486,4.2405,4.1548,4.0568,3.9823,3.9885,4.0261,4.06,4.06,4.0964,4.1301,4.1301,4.1301,4.1164,4.0688,4.06,4.045,3.9986,3.9848,3.9798,3.9798,3.9735,3.9697,3.9697,3.9697,0.0,3.9697,4.0662,4.1529,4.2034,4.265,4.3002,4.3002,4.3932,4.4479,4.4479,4.493,4.4943,4.448,4.3959,4.3459,4.3002,4.3002,4.3327,4.3903,4.3903,4.4531,4.5598,4.5598,4.5861,4.6298,4.6298,4.6298,4.6298,4.6298,4.6298,4.6298,4.6298,4.6298,4.6298,4.1005,4.188,4.2236,4.1608,4.0892,4.0104,3.9247,3.8592,3.8202,3.8202,3.8202,3.8202,3.8202,3.8202,3.8202,3.8202,3.8202,3.8202,3.8202,3.8202,3.8202,3.8202,3.8202,3.8202,3.8202,3.8202,3.8202,3.8202,3.8754,3.9078,3.9233,4.0379,4.0989,4.1134,4.1802,4.2092,4.2092,4.2092,4.2092,4.2092,4.2092,4.2092,4.2233,4.3369,4.3903,4.4149,4.5311,4.579,4.5892,4.5892,4.5892,4.5892,4.5892,4.5293,4.4548,4.4359,4.2958,4.1549,4.1859,4.117,4.0475,4.0913,4.1088,4.1164,4.1164,4.1226,4.1301,4.1301,4.1301,4.1264,4.1176,4.1164,4.1126,4.1039,4.065,4.0362,4.0362,3.9986,3.9697,3.9697,3.9697,3.9697,3.9697,4.0662,4.1339,4.1453,4.2423,4.3002,4.3002,4.3197,4.3295,4.3295,4.3402,4.3389,4.3295,4.3194,4.3096,4.3002,4.3002,4.3501,4.4466,4.4466,4.5081,4.6163,4.6163,4.621,4.6298,4.6298,4.6298,4.6298,4.6298,4.6298,4.6298,4.6298,4.6298,4.6298,4.1986,4.2375,4.2373,4.1624,4.0892,4.0148,3.9403,3.8675,3.8202,3.8202,3.8202,3.8202,3.8202,3.8202,3.8202,3.8202,3.8202,3.8202,3.8202,3.8202,3.8202,3.8202,3.8202,3.8202,3.8202,3.8202,3.8202,3.8202,3.887,3.9363,3.9683,4.0655,4.1279,4.1628,4.1972,4.2092,4.2092,4.2092,4.2092,4.2092,4.2092,4.2281,4.2658,4.3627,4.4193,4.4585,4.5558,4.5892,4.5892,4.5892,4.5892,4.5892,4.5892,4.5153,4.4252,4.4015,4.286,4.1668,4.1684,4.1312,4.0989,4.1239,4.1542,4.1769,4.1769,4.1982,4.2182,4.2182,4.2182,4.2108,4.1819,4.1517,4.1301,4.1301,4.1076,4.0913,4.0913,4.0688,4.0538,4.0538,4.0538,4.0538,4.0538,4.1279,4.1629,4.1314,4.2359,4.3002,4.3002,4.3002,4.3002,4.3002,4.2725,4.2713,4.3002,4.2725,4.2725,4.3002,4.3002,4.3551,4.4589,4.4589,4.5219,4.6298,4.6298,4.6298,4.6298,4.6298,4.6298,4.6298,4.6298,4.6298,4.6298,4.6298,4.6298,4.6298,4.2635,4.2602,4.2373,4.1624,4.0892,4.0148,3.9403,3.8675,3.8202,3.8202,3.8202,3.8202,3.8202,3.8202,3.8202,3.8202,3.8202,3.8202,3.8202,3.8202,3.8202,3.8202,3.8202,3.8202,3.8202,3.8202,3.8275,3.8405,3.9073,3.9712,4.0331,4.1004,4.1584,4.2092,4.2092,4.2092,4.2092,4.2092,4.2092,4.2092,4.2092,4.2465,4.3065,4.3743,4.4367,4.4992,4.5659,4.5892,4.5872,4.5776,4.5676,4.5586,4.5708,4.4864,4.3779,4.3527,4.2737,4.1879,4.1569,4.149,4.1516,4.1628,4.2021,4.2375,4.2375,4.27,4.3002,4.3002,4.3002,4.2876,4.245,4.1969,4.1654,4.1654,4.1579,4.149,4.149,4.139,4.1301,4.1301,4.1301,4.1301,4.1301,4.1857,4.1997,4.1529,4.2435,4.3113,4.3351,4.3127,4.3113,4.3351,4.2713,4.2562,4.3002,4.2575,4.2575,4.3002,4.3002,4.3551,4.4589,4.4589,4.5219,4.6298,4.6298,4.6298,4.6298,4.6298,4.6298,4.6298,4.6298,4.6298,4.6298,4.6298,4.6298,4.6298,4.274,4.2602,4.2373,4.1624,4.0892,4.0148,3.9403,3.8675,3.8202,3.8202,3.8202,3.8202,3.8202,3.8202,3.8202,3.8202,3.8202,3.8202,3.8202,3.8202,3.8202,3.8202,3.8202,3.8202,3.8202,3.8202,3.8507,3.9117,3.9712,4.036,4.1018,4.1686,4.2034,4.2092,4.2092,4.2092,4.2092,4.2092,4.2092,4.2092,4.2092,4.2465,4.3065,4.3743,4.4367,4.4992,4.5659,4.5892,4.5843,4.5416,4.4898,4.4553,4.5084,4.3901,4.2389,4.2839,4.2199,4.1487,4.1986,4.2123,4.2223,4.2711,4.2875,4.2926,4.2926,4.2964,4.3002,4.3002,4.3002,4.2975,4.2925,4.2875,4.2837,4.2837,4.2424,4.2123,4.2123,4.1629,4.1301,4.1301,4.1301,4.1301,4.1301,4.1857,4.2174,4.2123,4.2663,4.3448,4.4493,4.356,4.3463,4.4506,4.3481,4.2951,4.3002,4.2951,4.2951,4.3002,4.3002,4.3551,4.4589,4.4589,4.5219,4.6298,4.6298,4.6298,4.6298,4.6298,4.6298,4.6298,4.6298,4.6298,4.6298,4.6298,4.6298,4.6298,4.2732,4.2602,4.2238,4.1052,4.0596,3.9999,3.8817,3.8393,3.8202,3.8202,3.8202,3.8202,3.8202,3.8202,3.8202,3.8202,3.8202,3.8202,3.8202,3.8202,3.8202,3.8202,3.8202,3.8202,3.8202,3.8202,3.8536,3.9204,3.9799,4.0437,4.1105,4.1787,4.2092,4.2092,4.2092,4.2092,4.2092,4.2092,4.2092,4.2092,4.2092,4.2702,4.3627,4.3903,4.4629,4.5587,4.6203,4.6435,4.6362,4.5904,4.5346,4.4835,4.4756,4.374,4.2684,4.3218,4.2643,4.1958,4.2524,4.2675,4.2725,4.2951,4.3002,4.3002,4.3002,4.3002,4.3002,4.3002,4.3002,4.3002,4.3002,4.3002,4.3002,4.3002,4.2826,4.2675,4.2675,4.2473,4.2321,4.2321,4.2321,4.2321,4.2321,4.2536,4.2675,4.2675,4.2876,4.3198,4.3656,4.3252,4.3198,4.367,4.3239,4.3002,4.3002,4.3002,4.3002,4.3002,4.3002,4.3551,4.4589,4.4589,4.5219,4.6298,4.6298,4.6298,4.6298,4.6298,4.6298,4.6298,4.6298,4.6298,4.6298,4.6298,4.6298,4.6298,4.2699,4.2602,4.2126,4.0656,4.0399,3.9894,3.8431,3.8202,3.8202,3.8202,3.8202,3.8202,3.8202,3.8202,3.8202,3.8202,3.8202,3.8202,3.8202,3.8202,3.8202,3.8202,3.8202,3.8202,3.8202,3.8202,3.8623,3.9455,3.9886,4.0539,4.1395,4.1874,4.2092,4.2092,4.2092,4.2092,4.2092,4.2092,4.2092,4.2092,4.2092,4.2872,4.4004,4.4004,4.4893,4.6229,4.6656,4.6931,4.6966,4.6174,4.5599,4.5127,4.4426,4.3493,4.2795,4.3336,4.2988,4.2526,4.2901,4.3002,4.3002,4.3002,4.3002,4.3002,4.3002,4.3002,4.3002,4.3002,4.3002,4.3002,4.3002,4.3002,4.3002,4.3002,4.3002,4.3002,4.3002,4.3002,4.3002,4.3002,4.3002,4.3002,4.3002,4.3002,4.3002,4.3002,4.3309,4.3503,4.3503,4.3183,4.3155,4.3489,4.3169,4.3002,4.3002,4.3002,4.3002,4.3002,4.3002,4.3551,4.4602,4.4955,4.5533,4.6298,4.6298,4.6298,4.6298,4.6298,4.6298,4.6298,4.6298,4.6298,4.6298,4.6298,4.6298,4.6298,4.2602,4.2602,4.2126,4.0656,4.0399,3.9894,3.8431,3.8202,3.8202,3.8202,3.8202,3.8202,3.8202,3.8202,3.8202,3.8202,3.8202,3.8202,3.8202,3.8202,3.8202,3.8202,3.8202,3.8202,3.8202,3.8202,3.8826,4.0089,4.0104,4.0771,4.2092,4.2092,4.2092,4.2092,4.2092,4.2092,4.2092,4.2092,4.2092,4.2092,4.2092,4.2872,4.4004,4.4004,4.5158,4.6789,4.6789,4.7219,4.7533,4.5944,4.5398,4.5205,4.4072,4.3019,4.2301,4.284,4.3002,4.3002,4.3002,4.3002,4.3002,4.3002,4.3002,4.3002,4.3002,4.3002,4.3002,4.3002,4.3002,4.3002,4.3002,4.3002,4.3002,4.3002,4.3002,4.3002,4.3002,4.3002,4.3002,4.3002,4.3002,4.3002,4.3002,4.3002,4.3002,4.3002,4.4042,4.4683,4.4683,4.3615,4.3518,4.4629,4.3587,4.3002,4.3002,4.3002,4.3002,4.3002,4.3002,4.3551,4.4642,4.5771,4.6301,4.6298,4.6298,4.6298,4.6298,4.6298,4.6298,4.6298,4.6298,4.6298,4.6298,4.6298,4.6298,4.6298,4.2602,4.2602,4.2126,4.0656,4.0399,3.9894,3.8431,3.8202,3.8202,3.8202,3.8202,3.8202,3.8202,3.8202,3.8202,3.8202,3.8202,3.8202,3.8202,3.8202,3.8202,3.8202,3.8202,3.8202,3.8202,3.8652,3.9276,4.0104,4.0564,4.1221,4.2092,4.2092,4.2092,4.2092,4.2092,4.2092,4.2092,4.2092,4.2092,4.2092,4.2092,4.3119,4.4614,4.4614,4.5819,4.7535,4.7947,4.7767,4.7195,4.6308,4.5539,4.4717,4.3581,4.3002,4.2776,4.2951,4.3002,4.3002,4.3002,4.3002,4.3002,4.3002,4.3002,4.3002,4.3002,4.3002,4.3002,4.3002,4.3002,4.3002,4.3002,4.3002,4.3002,4.3002,4.3002,4.3002,4.3002,4.3002,4.3002,4.3002,4.3002,4.3002,4.3002,4.3698,4.3836,4.3058,4.4724,4.5462,4.4737,4.4357,4.433,4.4696,4.3587,4.3002,4.3002,4.3002,4.3002,4.3,4.3377,4.4129,4.5234,4.5974,4.6298,4.6298,4.6298,4.6298,4.6298,4.6298,4.6298,4.6298,4.6298,4.6298,4.6298,4.6298,4.6298,4.6298,4.2246,4.219,4.173,4.0243,3.9982,3.9582,3.8384,3.8202,3.8202,3.8202,3.8202,3.8202,3.8202,3.8202,3.8202,3.8202,3.8202,3.8202,3.8202,3.8202,3.8202,3.8202,3.8202,3.8318,3.8565,3.8986,3.9625,4.0481,4.1159,4.1686,4.2092,4.2092,4.2092,4.2092,4.2092,4.2092,4.2092,4.2092,4.2092,4.2121,4.2349,4.3424,4.493,4.518,4.6472,4.8141,4.811,4.7807,4.7263,4.608,4.5248,4.4493,4.3365,4.3002,4.3002,4.3002,4.3002,4.3002,4.3002,4.3002,4.3002,4.3002,4.3002,4.3002,4.3002,4.3002,4.3002,4.3002,4.3002,4.3002,4.3002,4.3002,4.3002,4.3002,4.3002,4.3002,4.3002,4.3002,4.3002,4.3002,4.3002,4.3169,4.3601,4.4275,4.4561,4.4262,4.5515,4.6005,4.5342,4.4926,4.4506,4.4083,4.3365,4.3002,4.3002,4.3002,4.3002,4.3014,4.374,4.4593,4.5525,4.6062,4.6298,4.6298,4.6298,4.6298,4.6298,4.6298,4.6298,4.6298,4.6298,4.6298,4.6298,4.6298,4.6298,4.6298,4.1624,4.1468,4.0961,3.9555,3.9296,3.9048,3.83,3.8202,3.8202,3.8202,3.8202,3.8202,3.8202,3.8202,3.8202,3.8202,3.8202,3.8202,3.8202,3.8202,3.8202,3.8202,3.8246,3.8556,3.9189,3.9291,3.9944,4.1163,4.1787,4.2092,4.2092,4.2092,4.2092,4.2092,4.2092,4.2092,4.2092,4.2092,4.2092,4.215,4.2756,4.3787,4.5035,4.5703,4.7129,4.8627,4.755,4.7467,4.755,4.5422,4.4656,4.4398,4.3323,4.3002,4.3002,4.3002,4.3002,4.3002,4.3002,4.3002,4.3002,4.3002,4.3002,4.3002,4.3002,4.3002,4.3002,4.3002,4.3002,4.3002,4.3002,4.3002,4.3002,4.3002,4.2977,4.2951,4.2951,4.2951,4.2951,4.2951,4.3046,4.3532,4.4601,4.4832,4.5315,4.6228,4.6359,4.6359,4.6202,4.5248,4.422,4.3155,4.3044,4.3002,4.3002,4.3002,4.3052,4.3113,4.4114,4.493,4.5575,4.606,4.6298,4.6298,4.6298,4.6298,4.6298,4.6298,4.6298,4.6298,4.6298,4.6298,4.6298,4.6298,4.6298,4.6298,4.1533,4.1052,4.0373,3.9457,3.9296,3.9048,3.83,3.8202,3.8202,3.8202,3.8202,3.8202,3.8202,3.8202,3.8202,3.8202,3.8202,3.8202,3.8202,3.8202,3.8202,3.8202,3.8696,3.9044,3.9204,4.0147,4.1047,4.186,4.202,4.2092,4.2092,4.2092,4.2092,4.2092,4.2092,4.2092,4.2092,4.2092,4.2092,4.215,4.2756,4.4077,4.5732,4.6348,4.7785,4.9329,4.8187,4.7323,4.6503,4.5155,4.4124,4.3351,4.3085,4.3002,4.3002,4.3002,4.3002,4.3002,4.3002,4.3002,4.3002,4.3002,4.3002,4.3002,4.3002,4.3002,4.3002,4.3002,4.3002,4.3002,4.3002,4.3002,4.3002,4.3002,4.265,4.2387,4.2387,4.2387,4.2387,4.2387,4.3512,4.4398,4.467,4.6242,4.6958,4.6346,4.7113,4.6867,4.5168,4.4832,4.4574,4.4302,4.3449,4.3002,4.3002,4.3002,4.3415,4.4215,4.4491,4.5131,4.611,4.6235,4.6298,4.6298,4.6298,4.6298,4.6298,4.6298,4.6298,4.6298,4.6298,4.6298,4.6298,4.6298,4.6298,4.6298,4.0622,4.0174,3.9662,3.8927,3.8798,3.8666,3.8268,3.8202,3.8202,3.8202,3.8202,3.8202,3.8202,3.8202,3.8202,3.8202,3.8202,3.8202,3.8202,3.8202,3.8333,3.8638,3.9015,3.9465,4.006,4.0752,4.1424,4.2092,4.2092,4.2092,4.2092,4.2092,4.2092,4.2092,4.2092,4.2092,4.2092,4.2092,4.2262,4.2571,4.3206,4.4603,4.6388,4.7015,4.8273,4.9471,4.7817,4.6841,4.6058,4.4453,4.3504,4.3002,4.3002,4.3002,4.3002,4.3002,4.3002,4.3002,4.3002,4.3002,4.3002,4.3002,4.3002,4.3002,4.3002,4.3002,4.3002,4.3002,4.3002,4.3002,4.3002,4.2801,4.2625,4.2625,4.2159,4.1883,4.2161,4.2611,4.3026,4.3321,4.4581,4.5648,4.615,4.7294,4.7958,4.7854,4.7459,4.6699,4.5489,4.4466,4.3919,4.3919,4.3323,4.3002,4.3002,4.3239,4.3777,4.4589,4.488,4.5457,4.6298,4.6298,4.6298,4.6298,4.6298,4.6298,4.6298,4.6298,4.6298,4.6298,4.6298,4.6298,4.6298,4.6298,4.6298,4.6298,3.9546,3.922,3.8945,3.83,3.8202,3.8202,3.8202,3.8202,3.8202,3.8202,3.8202,3.8202,3.8202,3.8202,3.8202,3.8202,3.8202,3.8202,3.8202,3.8202,3.8507,3.9175,3.9291,3.9886,4.1076,4.1192,4.1526,4.2092,4.2092,4.2092,4.2092,4.2092,4.2092,4.2092,4.2092,4.2092,4.2092,4.2092,4.2451,4.3075,4.383,4.5202,4.6876,4.7651,4.8554,4.9161,4.706,4.6202,4.5754,4.3685,4.3002,4.3002,4.3002,4.2951,4.2876,4.2876,4.2799,4.2787,4.295,4.3002,4.3002,4.3002,4.3002,4.3002,4.3002,4.3002,4.3002,4.3002,4.3002,4.2977,4.2901,4.2513,4.2174,4.2072,4.1629,4.1533,4.2216,4.3169,4.4044,4.4742,4.5859,4.6945,4.7907,4.816,4.8651,4.9632,4.7753,4.649,4.632,4.4371,4.3183,4.3002,4.3002,4.3002,4.3002,4.354,4.4064,4.4602,4.5208,4.5773,4.6298,4.6298,4.6298,4.6298,4.6298,4.6298,4.6298,4.6298,4.6298,4.6298,4.6298,4.6298,4.6298,4.6298,4.6298,4.6298,3.9341,3.8798,3.8328,3.8221,3.8202,3.8202,3.8202,3.8202,3.8202,3.8202,3.8202,3.8202,3.8202,3.8202,3.8202,3.8202,3.8202,3.8202,3.8202,3.8202,3.8507,3.9175,3.9683,4.0321,4.1076,4.1642,4.199,4.2092,4.2092,4.2092,4.2092,4.2092,4.2092,4.2092,4.2092,4.2092,4.2092,4.2092,4.2451,4.3104,4.428,4.559,4.6931,4.8106,4.8431,4.8097,4.6776,4.5728,4.4751,4.3435,4.3002,4.3002,4.3002,4.2688,4.2324,4.2324,4.197,4.1766,4.2737,4.3002,4.3002,4.3002,4.3002,4.3002,4.3002,4.3002,4.3002,4.3002,4.3002,4.2864,4.2412,4.2249,4.2022,4.1529,4.1352,4.1663,4.2722,4.3414,4.419,4.525,4.677,4.7819,4.7983,4.8877,4.951,4.9681,4.8489,4.7318,4.6359,4.5114,4.3987,4.303,4.3002,4.3002,4.3002,4.354,4.4064,4.4602,4.5208,4.5773,4.6298,4.6298,4.6298,4.6298,4.6298,4.6298,4.6298,4.6298,4.6298,4.6298,4.6298,4.6298,4.6298,4.6298,4.6298,4.6298,3.8789,3.844,3.8202,3.8202,3.8202,3.8202,3.8202,3.8202,3.8202,3.8202,3.8202,3.8202,3.8202,3.8202,3.8202,3.8202,3.8202,3.8202,3.8202,3.8202,3.8638,3.9639,3.9944,4.0583,4.1623,4.1932,4.2092,4.2092,4.2092,4.2092,4.2092,4.2092,4.2092,4.2092,4.2092,4.2092,4.2121,4.2451,4.2959,4.3656,4.4933,4.62,4.739,4.7714,4.7912,4.7781,4.6058,4.5114,4.4534,4.3379,4.2813,4.2576,4.2576,4.2171,4.1718,4.1718,4.1743,4.1908,4.2424,4.2776,4.3002,4.3002,4.3002,4.3002,4.3002,4.3002,4.2926,4.2625,4.2576,4.2399,4.1819,4.1481,4.1191,4.0913,4.138,4.206,4.2892,4.452,4.5919,4.6747,4.8065,4.8927,4.8927,4.9385,4.9693,4.9693,4.8639,4.7499,4.6372,4.5289,4.4179,4.303,4.3002,4.3138,4.344,4.3966,4.4516,4.5095,4.566,4.6062,4.6298,4.6298,4.6298,4.6298,4.6298,4.6298,4.6298,4.6298,4.6298,4.6298,4.6298,4.6298,4.6298,4.6298,4.6298,4.6298,3.83,3.8202,3.8202,3.8202,3.8202,3.8202,3.8202,3.8202,3.8202,3.8202,3.8202,3.8202,3.8202,3.8202,3.8202,3.8202,3.8202,3.8202,3.8202,3.8202,3.8768,4.0046,4.0394,4.1057,4.2078,4.2092,4.2092,4.2092,4.2092,4.2092,4.2092,4.2092,4.2092,4.2092,4.2092,4.2092,4.2136,4.2741,4.3395,4.412,4.5543,4.6628,4.74,4.7334,4.7287,4.701,4.5302,4.4534,4.4179,4.3295,4.2637,4.2199,4.2199,4.1707,4.1113,4.1113,4.1429,4.1821,4.1959,4.2284,4.2636,4.2776,4.2699,4.2649,4.2788,4.2699,4.2485,4.2085,4.1997,4.1807,4.1214,4.0775,4.0541,4.0651,4.1634,4.2691,4.3626,4.5852,4.7639,4.8319,4.9176,4.9693,4.9693,4.9693,4.9693,4.9693,4.8889,4.7779,4.6385,4.5515,4.4452,4.3044,4.3002,4.3251,4.379,4.4328,4.4905,4.5512,4.605,4.6298,4.6298,4.6298,4.6298,4.6298,4.6298,4.6298,4.6298,4.6298,4.6298,4.6298,4.6298,4.6298,4.6298,4.6298,4.6298,4.6298,3.8212,3.8202,3.8202,3.8202,3.8202,3.8202,3.8202,3.8202,3.8202,3.8202,3.8202,3.8202,3.8202,3.8202,3.8202,3.8202,3.8202,3.8202,3.8202,3.8202,3.8768,4.0046,4.1279,4.199,4.2092,4.2092,4.2092,4.2092,4.2092,4.2092,4.2092,4.2092,4.2092,4.2092,4.2092,4.2092,4.2136,4.2741,4.3395,4.4164,4.6,4.6534,4.6352,4.7502,4.6697,4.4926,4.4751,4.4015,4.3113,4.303,4.2637,4.2199,4.2199,4.1443,4.0563,4.0563,4.06,4.0738,4.124,4.1403,4.1567,4.211,4.1831,4.1566,4.2122,4.1819,4.1414,4.1364,4.1378,4.1202,4.065,4.0525,4.0638,4.1088,4.2161,4.3652,4.5685,4.7118,4.8344,4.9446,4.9644,4.9693,4.9693,4.9693,4.9693,4.9693,4.962,4.8612,4.6425,4.6228,4.5195,4.3071,4.3002,4.3251,4.379,4.4328,4.4905,4.5512,4.605,4.6298,4.6298,4.6298,4.6298,4.6298,4.6298,4.6298,4.6298,4.6298,4.6298,4.6298,4.6298,4.6298,4.6298,4.6298,4.6298,4.6298,3.8202,3.8202,3.8202,3.8202,3.8202,3.8202,3.8202,3.8202,3.8202,3.8202,3.8202,3.8202,3.8202,3.8202,3.8202,3.8202,3.8202,3.8202,3.8202,3.8202,3.8768,4.0046,4.1381,4.2092,4.2092,4.2092,4.2092,4.2092,4.2092,4.2092,4.2092,4.2092,4.2092,4.2092,4.2092,4.2092,4.2165,4.3191,4.3772,4.4208,4.649,4.6883,4.6155,4.6733,4.6018,4.4615,4.3891,4.315,4.2499,4.2499,4.1909,4.1154,4.1154,4.0614,4.0011,4.0011,4.0011,4.0061,4.0249,4.0788,4.1352,4.1579,4.1465,4.1352,4.1592,4.1453,4.1214,4.0876,4.08,4.0651,4.0111,4.0504,4.0989,4.1171,4.3321,4.5278,4.609,4.7854,4.9213,4.9644,4.9693,4.9693,4.9693,4.9693,4.941,4.8688,4.8651,4.7677,4.5435,4.4629,4.3878,4.303,4.3327,4.3752,4.429,4.4867,4.5447,4.5999,4.6198,4.6298,4.6298,4.6298,4.6298,4.6298,4.6298,4.6298,4.6298,4.6298,4.6298,4.6298,4.6298,4.6298,4.6298,4.6298,4.6298,4.6248,3.8202,3.8202,3.8202,3.8202,3.8202,3.8202,3.8202,3.8202,3.8202,3.8202,3.8202,3.8202,3.8202,3.8202,3.8202,3.8202,3.8202,3.8202,3.8202,3.8405,3.8986,4.0046,4.1178,4.1874,4.2092,4.2092,4.2092,4.2092,4.2092,4.2092,4.2092,4.2092,4.2092,4.2092,4.2092,4.2092,4.2179,4.3467,4.4004,4.4189,4.6379,4.658,4.5578,4.5729,4.5009,4.3813,4.3029,4.2399,4.192,4.192,4.1291,4.05,4.05,4.0123,3.9697,3.9697,3.9697,3.9697,3.9697,4.0236,4.0838,4.1014,4.0926,4.0838,4.1014,4.0913,4.0688,4.0324,4.0249,4.0228,4.0185,4.0731,4.1471,4.2351,4.458,4.6367,4.692,4.8547,4.9693,4.9693,4.9693,4.9693,4.9693,4.9693,4.9237,4.8085,4.7996,4.7036,4.4831,4.3615,4.3076,4.3251,4.3765,4.4315,4.488,4.5284,4.5761,4.6298,4.6298,4.6298,4.6298,4.6298,4.6298,4.6298,4.6298,4.6298,4.6298,4.6298,4.6298,4.6298,4.6298,4.6298,4.6298,4.6298,4.6185,4.5999,3.8202,3.8202,3.8202,3.8202,3.8202,3.8202,3.8202,3.8202,3.8202,3.8202,3.8202,3.8202,3.8202,3.8202,3.8202,3.8202,3.8202,3.8202,3.8202,3.8826,3.9465,4.006,4.0742,4.141,4.2092,4.2092,4.2092,4.2092,4.2092,4.2092,4.2092,4.2092,4.2092,4.2092,4.2092,4.2092,4.2179,4.3467,4.4004,4.4113,4.5532,4.5419,4.4399,4.4599,4.3654,4.2186,4.2186,4.1807,4.1289,4.1289,4.0938,4.05,4.05,4.0123,3.9697,3.9697,3.9697,3.9697,3.9697,3.9697,3.9823,4.0362,4.0099,3.9835,4.0374,4.0073,3.9697,3.9697,3.9697,4.0006,4.1007,4.1207,4.2112,4.4845,4.5808,4.6791,4.8468,4.9277,4.9693,4.9693,4.9693,4.9693,4.9693,4.9693,4.9225,4.8072,4.7971,4.701,4.4791,4.3628,4.3251,4.3777,4.4328,4.4893,4.5499,4.5497,4.5761,4.6298,4.6298,4.6298,4.6298,4.6298,4.6298,4.6298,4.6298,4.6298,4.6298,4.6298,4.6298,4.6298,4.6298,4.6298,4.6286,4.6286,4.5949,4.5499,3.8202,3.8202,3.8202,3.8202,3.8202,3.8202,3.8202,3.8202,3.8202,3.8202,3.8202,3.8202,3.8202,3.8202,3.8202,3.8202,3.8202,3.8202,3.8202,3.8391,3.8797,3.9436,4.0525,4.141,4.2092,4.2092,4.2092,4.2092,4.2092,4.2092,4.2092,4.2092,4.2092,4.2092,4.2092,4.2092,4.2179,4.3467,4.3574,4.3072,4.5229,4.4772,4.2884,4.3743,4.3036,4.1567,4.1567,4.1215,4.0738,4.0738,4.0374,3.9936,3.9936,3.9823,3.9697,3.9697,3.9697,3.9697,3.9697,3.9697,3.9735,3.9898,3.9823,3.9735,3.9898,3.981,3.9697,3.9697,3.9697,4.0006,4.1007,4.1827,4.297,4.4979,4.6436,4.7651,4.8578,4.9277,4.9693,4.9693,4.9693,4.9693,4.9693,4.9693,4.89,4.6944,4.5369,4.4207,4.3532,4.3549,4.3627,4.379,4.4731,4.5309,4.5499,4.5874,4.615,4.6298,4.6298,4.6298,4.6298,4.6298,4.6298,4.6298,4.6298,4.6298,4.6298,4.6298,4.6298,4.6298,4.6298,4.6075,4.5736,4.5736,4.5372,4.4805,3.8202,3.8202,3.8202,3.8202,3.8202,3.8202,3.8202,3.8202,3.8202,3.8202,3.8202,3.8202,3.8202,3.8202,3.8202,3.8202,3.8202,3.8202,3.8202,3.8202,3.8507,3.9175,4.0162,4.1018,4.1686,4.1961,4.2092,4.2092,4.2092,4.2092,4.2092,4.2092,4.2092,4.2092,4.2092,4.2092,4.2158,4.3006,4.2989,4.2522,4.3956,4.355,4.2149,4.2629,4.2058,4.0989,4.0989,4.0651,4.0174,4.0174,3.9973,3.9697,3.9697,3.9697,3.9697,3.9697,3.9697,3.9697,3.9697,3.9697,3.9697,3.9697,3.9697,3.9697,3.9697,3.9697,3.9697,3.9697,3.9697,4.0147,4.1568,4.2354,4.3559,4.5912,4.7131,4.8098,4.8972,4.9449,4.9693,4.9693,4.9693,4.9693,4.9693,4.9287,4.8083,4.5847,4.4208,4.3327,4.3327,4.3827,4.4229,4.4455,4.5148,4.5598,4.5811,4.615,4.6298,4.6298,4.6298,4.6298,4.6298,4.6298,4.6298,4.6298,4.6298,4.6298,4.6273,4.6075,4.5987,4.5962,4.5721,4.542,4.5146,4.5146,4.4782,4.424,3.8202,3.8202,3.8202,3.8202,3.8202,3.8202,3.8202,3.8202,3.8202,3.8202,3.8202,3.8202,3.8202,3.8202,3.8202,3.8202,3.8202,3.8202,3.8202,3.8202,3.8469,3.9078,3.9755,4.0379,4.1004,4.1739,4.2092,4.2092,4.2092,4.2092,4.2092,4.2092,4.2051,4.1964,4.1964,4.1922,4.1859,4.2157,4.2225,4.2129,4.2112,4.2018,4.184,4.1399,4.0901,4.0425,4.0425,4.0111,3.9697,3.9697,3.9697,3.9697,3.9697,3.9697,3.9697,3.9697,3.9697,3.9697,3.9697,3.9697,3.9697,3.9697,3.9697,3.9697,3.9697,3.9697,3.9697,3.9697,3.9697,4.0338,4.2416,4.2804,4.3899,4.7257,4.7805,4.8229,4.9519,4.9693,4.9693,4.9693,4.9693,4.9693,4.9693,4.8576,4.6985,4.4937,4.4163,4.3827,4.3878,4.4391,4.4905,4.5412,4.5474,4.5698,4.6135,4.6148,4.6198,4.6298,4.6298,4.6298,4.6298,4.6298,4.6273,4.6238,4.6238,4.6198,4.611,4.561,4.5424,4.5359,4.4817,4.4579,4.4541,4.4541,4.419,4.3727,3.8202,3.8202,3.8202,3.8202,3.8202,3.8202,3.8202,3.8202,3.8202,3.8202,3.8202,3.8202,3.8202,3.8202,3.8202,3.8202,3.8202,3.8202,3.8202,3.8202,3.8251,3.8405,3.9494,4.0162,4.0307,4.1482,4.2092,4.2092,4.2092,4.2092,4.2092,4.2092,4.1685,4.093,4.093,4.0521,3.9886,4.0875,4.0827,4.0174,4.1553,4.135,4.0259,4.0567,4.0337,3.9873,3.9873,3.9798,3.9697,3.9697,3.9697,3.9697,3.9697,3.9697,3.9697,3.9697,3.9697,3.9697,3.9697,3.9697,3.9697,3.9697,3.9697,3.9697,3.9697,3.9697,3.9697,3.9697,3.9697,4.0338,4.2416,4.2804,4.3899,4.7257,4.7805,4.8229,4.9519,4.9693,4.9693,4.9693,4.9693,4.9693,4.9693,4.7854,4.6299,4.5392,4.438,4.3976,4.4389,4.4968,4.5146,4.4805,4.5246,4.5334,4.4966,4.4968,4.542,4.6298,4.6298,4.6298,4.6298,4.6298,4.6075,4.566,4.566,4.5409,4.4968,4.4842,4.4805,4.478,4.464,4.434,4.3964,4.3964,4.3627,4.3176,3.8202,3.8202,3.8202,3.8202,3.8202,3.8202,3.8202,3.8202,3.8202,3.8202,3.8202,3.8202,3.8202,3.8202,3.8202,3.8202,3.8202,3.8202,3.8202,3.8202,3.8202,3.8202,3.9421,4.0104,4.0104,4.141,4.2092,4.2092,4.2092,4.2092,4.2082,4.1612,4.1089,4.0568,4.0127,3.9659,3.9245,3.9945,3.991,3.9491,4.0539,4.044,3.9722,4.0011,3.9948,3.9697,3.9697,3.9697,3.9697,3.9697,3.9697,3.9697,3.9697,3.9697,3.9697,3.9697,3.9697,3.9697,3.9697,3.9697,3.9697,3.9697,3.9697,3.9697,3.9697,3.9697,3.9697,3.9697,3.9697,4.0338,4.2416,4.2804,4.3717,4.6523,4.7447,4.8051,4.8792,4.936,4.951,4.8951,4.8889,4.8462,4.7421,4.6472,4.5588,4.4755,4.4371,4.4303,4.4591,4.4893,4.4932,4.4602,4.4905,4.4918,4.4589,4.4589,4.4905,4.5495,4.5495,4.5495,4.5495,4.5495,4.5332,4.507,4.507,4.488,4.4577,4.4315,4.4215,4.419,4.394,4.3664,4.3427,4.3427,4.3239,4.3002,3.8202,3.8202,3.8202,3.8202,3.8202,3.8202,3.8202,3.8202,3.8202,3.8202,3.8202,3.8202,3.8202,3.8202,3.8202,3.8202,3.8202,3.8202,3.8202,3.8202,3.8202,3.8202,3.9421,4.0104,4.0104,4.1253,4.1835,4.1835,4.203,4.1922,4.1591,4.0919,4.0429,4.0084,3.9307,3.8877,3.8731,3.8952,3.9079,3.9176,3.9449,3.9622,3.9697,3.9697,3.9697,3.9697,3.9697,3.9697,3.9697,3.9697,3.9697,3.9697,3.9697,3.9697,3.9697,3.9697,3.9697,3.9697,3.9697,3.9697,3.9697,3.9697,3.9697,3.9697,3.9697,3.9697,3.9697,3.9697,3.9697,4.0338,4.2416,4.2804,4.3524,4.5748,4.7062,4.7846,4.7979,4.8976,4.9274,4.8135,4.7831,4.6919,4.4899,4.5101,4.4929,4.3875,4.4202,4.4489,4.4604,4.4589,4.4552,4.4466,4.4451,4.4416,4.4328,4.4328,4.4328,4.4328,4.4328,4.4428,4.4589,4.4589,4.4539,4.4451,4.4451,4.4416,4.429,4.3853,4.3664,4.3614,4.3176,4.3002,4.3002,4.3002,4.3002,4.3002,3.8202,3.8202,3.8202,3.8202,3.8202,3.8202,3.8202,3.8202,3.8202,3.8202,3.8202,3.8202,3.8202,3.8202,3.8202,3.8202,3.8202,3.8202,3.8202,3.8202,3.8202,3.8202,3.9421,4.0104,4.0104,4.0549,4.0809,4.0809,4.1675,4.1241,3.9607,4.0278,3.9724,3.8172,3.8046,3.7544,3.6818,3.7286,3.777,3.8238,3.8793,3.9296,3.9697,3.9697,3.9697,3.9697,3.9697,3.9697,3.9697,3.9697,3.9697,3.9697,3.9697,3.9697,3.9697,3.9697,3.9697,3.9697,3.9697,3.9697,3.9697,3.9697,3.9697,3.9697,3.9697,3.9697,3.9697,3.9697,3.9697,4.0338,4.2416,4.2804,4.3524,4.5748,4.7062,4.7846,4.7979,4.8976,4.9274,4.8135,4.7139,4.6044,4.4818,4.4775,4.453,4.385,4.3865,4.4102,4.4591,4.4589,4.4391,4.3928,4.3915,4.3689,4.3226,4.3214,4.3214,4.3214,4.3214,4.3702,4.4589,4.4589,4.4353,4.3915,4.3915,4.3639,4.3201,4.3138,4.3101,4.3101,4.3025,4.3002,4.3002,4.3002,4.3002,4.3002,3.8202,3.8202,3.8202,3.8202,3.8202,3.8202,3.8202,3.8202,3.8202,3.8202,3.8202,3.8202,3.8202,3.8202,3.8202,3.8202,3.8202,3.8202,3.8202,3.8202,3.8121,3.798,3.9346,3.9777,3.9113,4.0076,4.0084,3.9044,4.0003,4.0035,3.921,3.9099,3.8599,3.7774,3.7257,3.6792,3.6443,3.6972,3.7512,3.804,3.8668,3.922,3.9697,3.9697,3.9697,3.9697,3.9697,3.9697,3.9697,3.9697,3.9697,3.9697,3.9697,3.9697,3.9697,3.9697,3.9697,3.9697,3.9697,3.9697,3.9697,3.9697,3.9697,3.9697,3.9697,3.9697,3.9697,3.9697,3.9697,4.0338,4.2416,4.2804,4.3318,4.4888,4.6641,4.7616,4.7127,4.8033,4.811,4.636,4.5141,4.4262,4.3808,4.402,4.4091,4.382,4.3802,4.3903,4.414,4.3878,4.3589,4.3364,4.3352,4.3239,4.3002,4.3002,4.3002,4.3002,4.3002,4.3251,4.3702,4.3702,4.3591,4.3352,4.3352,4.3214,4.3002,4.3002,4.3002,4.3002,4.3002,4.3002,4.3002,4.3002,4.3002,4.3002]}]]